[[{"header":{"parameterUnit":"m.s-1","parameterCategory":1,"la1":31.0,"la2":29.5877,"lo1":-88.7671,"lo2":-86.6584,"dy":0.0162,"dx":0.0185,"nx":115,"ny":88,"refTime":"2023-03-12T06:00:00:Z","depth":0,"parameterNumber":2,"parameterNumberName":"U-component_of_WINDS"},"data":[0.0,0.0,0.0,0.0,0.0,0.0,0.0,0.0,0.0,0.0,0.0,0.0,0.0,0.0,0.0,0.0,0.0,0.0,0.0,0.0,0.0,0.0,0.0,0.0,0.0,0.0,0.0,0.0,0.0,0.0,0.0,0.0,0.0,0.0,0.0,0.0,0.0,0.0,0.0,0.0,0.0,0.0,0.0,0.0,0.0,0.0,0.0,0.0,0.0,0.0,0.0,0.0,0.0,0.0,0.0,0.0,0.0,0.0,0.0,0.0,0.0,0.0,0.0,0.0,0.0,0.0,0.0,0.0,0.0,0.0,0.0,0.0,0.0,0.0,0.0,0.0,0.0,0.0,0.0,0.0,0.0,0.0,0.0,0.0,0.0,0.0,0.0,0.0,0.0,0.0,0.0,0.0,0.0,0.0,0.0,0.0,0.0,0.0,0.0,0.0,0.0,0.0,0.0,0.0,0.0,0.0,0.0,0.0,0.0,0.0,0.0,0.0,0.0,0.0,0.0,0.0,0.0,0.0,0.0,0.0,0.0,0.0,0.0,0.0,0.0,0.0,0.0,0.0,0.0,0.0,0.0,0.0,0.0,0.0,0.0,0.0,0.0,0.0,0.0,0.0,0.0,0.0,0.0,0.0,0.0,0.0,0.0,0.0,0.0,0.0,0.0,0.0,0.0,0.0,0.0,0.0,0.0,0.0,0.0,0.0,0.0,0.0,0.0,0.0,0.0,0.0,0.0,0.0,0.0,0.0,0.0,0.0,0.0,0.0,0.0,0.0,0.0,0.0,0.0,0.0,0.0,0.0,0.0,0.0,0.0,0.0,0.0,0.0,0.0,0.0,0.0,0.0,0.0,0.0,0.0,0.0,0.0,0.0,0.0,0.0,0.0,0.0,0.0,0.0,0.0,0.0,0.0,0.0,0.0,0.0,0.0,0.0,0.0,0.0,0.0,0.0,0.0,0.0,0.0,0.0,0.0,0.0,0.0,0.0,0.0,0.0,0.0,0.0,0.0,0.0,0.0,0.0,0.0,0.0,0.0,0.0,0.0,0.0,0.0,0.0,0.0,0.0,0.0,0.0,0.0,0.0,0.0,0.0,0.0,0.0,0.0,0.0,0.0,0.0,0.0,0.0,0.0,0.0,0.0,0.0,0.0,0.0,0.0,0.0,0.0,0.0,0.0,0.0,0.0,0.0,0.0,0.0,0.0,0.0,0.0,0.0,0.0,0.0,0.0,0.0,0.0,0.0,0.0,0.0,0.0,0.0,0.0,0.0,0.0,0.0,0.0,0.0,0.0,0.0,0.0,0.0,0.0,0.0,0.0,0.0,0.0,0.0,0.0,0.0,0.0,0.0,0.0,0.0,0.0,0.0,0.0,0.0,0.0,0.0,0.0,0.0,0.0,0.0,0.0,0.0,0.0,0.0,0.0,0.0,0.0,0.0,0.0,0.0,0.0,0.0,0.0,0.0,0.0,0.0,0.0,0.0,0.0,0.0,0.0,0.0,0.0,0.0,0.0,0.0,0.0,0.0,0.0,0.0,0.0,0.0,0.0,0.0,0.0,0.0,0.0,0.0,0.0,0.0,0.0,0.0,0.0,0.0,0.0,0.0,0.0,0.0,0.0,0.0,0.0,0.0,0.0,0.0,0.0,0.0,0.0,0.0,0.0,0.0,0.0,0.0,0.0,0.0,0.0,0.0,0.0,0.0,0.0,0.0,0.0,0.0,0.0,0.0,0.0,0.0,0.0,0.0,0.0,0.0,0.0,0.0,0.0,0.0,0.0,0.0,0.0,0.0,0.0,0.0,0.0,0.0,0.0,0.0,0.0,0.0,0.0,0.0,0.0,0.0,0.0,0.0,0.0,0.0,0.0,0.0,0.0,0.0,0.0,0.0,0.0,0.0,0.0,0.0,0.0,0.0,0.0,0.0,0.0,0.0,0.0,0.0,0.0,0.0,0.0,0.0,0.0,0.0,0.0,0.0,0.0,0.0,0.0,0.0,0.0,0.0,0.0,0.0,0.0,0.0,0.0,0.0,0.0,0.0,0.0,0.0,0.0,0.0,0.0,0.0,0.0,0.0,0.0,0.0,0.0,0.0,0.0,0.0,0.0,0.0,0.0,0.0,0.0,0.0,0.0,0.0,0.0,0.0,0.0,0.0,0.0,0.0,0.0,0.0,0.0,0.0,0.0,0.0,0.0,0.0,0.0,0.0,0.0,0.0,0.0,0.0,0.0,0.0,0.0,0.0,0.0,0.0,0.0,0.0,0.0,0.0,0.0,0.0,0.0,0.0,0.0,0.0,0.0,0.0,0.0,0.0,0.0,0.0,0.0,0.0,0.0,0.0,0.0,0.0,0.0,0.0,0.0,0.0,0.0,0.0,0.0,0.0,0.0,0.0,0.0,0.0,0.0,0.0,0.0,0.0,0.0,0.0,0.0,0.0,0.0,0.0,0.0,0.0,0.0,0.0,0.0,0.0,0.0,0.0,0.0,0.0,0.0,0.0,0.0,0.0,0.0,0.0,0.0,0.0,0.0,0.0,0.0,0.0,0.0,0.0,0.0,0.0,0.0,0.0,0.0,0.0,0.0,0.0,0.0,0.0,0.0,0.0,0.0,0.0,0.0,0.0,0.0,0.0,0.0,0.0,0.0,0.0,0.0,0.0,0.0,0.0,0.0,0.0,0.0,0.0,0.0,0.0,0.0,0.0,0.0,0.0,0.0,0.0,0.0,0.0,0.0,0.0,0.0,0.0,0.0,0.0,0.0,0.0,0.0,0.0,0.0,0.0,0.0,0.0,0.0,0.0,0.0,0.0,0.0,0.0,0.0,0.0,0.0,0.0,0.0,0.0,0.0,0.0,0.0,0.0,0.0,0.0,0.0,0.0,0.0,0.0,0.0,0.0,0.0,0.0,0.0,0.0,0.0,0.0,0.0,0.0,0.0,0.0,0.0,0.0,0.0,0.0,0.0,0.0,0.0,0.0,0.0,0.0,0.0,0.0,0.0,0.0,0.0,0.0,0.0,0.0,0.0,0.0,0.0,0.0,0.0,0.0,0.0,0.0,0.0,0.0,0.0,0.0,0.0,0.0,0.0,0.0,0.0,0.0,0.0,0.0,0.0,0.0,0.0,0.0,0.0,0.0,0.0,0.0,0.0,0.0,0.0,0.0,0.0,0.0,0.0,0.0,0.0,0.0,0.0,0.0,0.0,0.0,0.0,0.0,0.0,0.0,0.0,0.0,0.0,0.0,0.0,0.0,0.0,0.0,0.0,0.0,0.0,0.0,0.0,0.0,0.0,0.0,0.0,0.0,0.0,0.0,0.0,0.0,0.0,0.0,0.0,0.0,0.0,0.0,0.0,0.0,0.0,0.0,0.0,0.0,0.0,0.0,0.0,0.0,0.0,0.0,0.0,0.0,0.0,0.0,0.0,0.0,0.0,0.0,0.0,0.0,0.0,0.0,0.0,0.0,0.0,0.0,0.0,0.0,0.0,0.0,0.0,0.0,0.0,0.0,0.0,0.0,0.0,0.0,0.0,0.0,0.0,0.0,0.0,0.0,0.0,0.0,0.0,0.0,0.0,0.0,0.0,0.0,0.0,0.0,0.0,0.0,0.0,0.0,0.0,0.0,0.0,0.0,0.0,0.0,0.0,0.0,0.0,0.0,0.0,0.0,0.0,0.0,0.0,0.0,0.0,0.0,0.0,0.0,0.0,0.0,0.0,0.0,0.0,0.0,0.0,0.0,0.0,0.0,0.0,0.0,0.0,0.0,0.0,0.0,0.0,0.0,0.0,0.0,0.0,0.0,0.0,0.0,0.0,0.0,0.0,0.0,0.0,0.0,0.0,0.0,0.0,0.0,0.0,0.0,0.0,0.0,0.0,0.0,0.0,0.0,0.0,0.0,0.0,0.0,0.0,0.0,0.0,0.0,0.0,0.0,0.0,0.0,0.0,0.0,0.0,0.0,0.0,0.0,0.0,0.0,0.0,0.0,0.0,0.0,0.0,0.0,0.0,0.0,0.0,0.0,0.0,0.0,0.0,0.0,0.0,0.0,0.0,0.0,0.0,0.0,0.0,0.0,0.0,0.0,0.0,0.0,0.0,0.0,0.0,0.0,0.0,0.0,0.0,0.0,0.0,0.0,0.0,0.0,0.0,0.0,0.0,0.0,0.0,0.0,0.0,0.0,0.0,0.0,0.0,0.0,0.0,0.0,0.0,0.0,0.0,0.0,0.0,0.0,0.0,0.0,0.0,0.0,0.0,0.0,0.0,0.0,4.1211,0.0,0.0,0.0,0.0,0.0,0.0,0.0,0.0,0.0,0.0,0.0,0.0,0.0,0.0,0.0,0.0,0.0,0.0,0.0,0.0,0.0,0.0,0.0,0.0,0.0,0.0,0.0,0.0,0.0,0.0,0.0,0.0,0.0,0.0,0.0,0.0,0.0,0.0,0.0,0.0,0.0,0.0,0.0,0.0,0.0,0.0,0.0,0.0,0.0,0.0,0.0,0.0,0.0,0.0,0.0,0.0,0.0,0.0,0.0,0.0,0.0,0.0,0.0,0.0,0.0,0.0,0.0,0.0,0.0,0.0,0.0,0.0,0.0,0.0,0.0,0.0,0.0,0.0,0.0,0.0,0.0,0.0,0.0,0.0,0.0,0.0,0.0,0.0,0.0,0.0,0.0,0.0,0.0,0.0,0.0,0.0,0.0,0.0,0.0,0.0,0.0,0.0,0.0,0.0,0.0,0.0,0.0,0.0,0.0,0.0,4.1211,4.1211,4.1211,4.1211,4.1211,0.0,0.0,0.0,0.0,0.0,0.0,0.0,0.0,0.0,0.0,0.0,0.0,0.0,0.0,0.0,0.0,0.0,0.0,0.0,0.0,0.0,0.0,0.0,0.0,0.0,0.0,0.0,0.0,0.0,0.0,0.0,0.0,0.0,0.0,0.0,0.0,0.0,0.0,0.0,0.0,0.0,0.0,0.0,0.0,0.0,0.0,0.0,0.0,0.0,0.0,0.0,0.0,0.0,0.0,0.0,0.0,0.0,0.0,0.0,0.0,0.0,0.0,0.0,0.0,0.0,0.0,0.0,0.0,0.0,0.0,0.0,0.0,0.0,0.0,0.0,0.0,0.0,0.0,0.0,0.0,0.0,0.0,0.0,0.0,0.0,0.0,0.0,0.0,0.0,0.0,0.0,0.0,0.0,0.0,0.0,0.0,0.0,0.0,0.0,0.0,0.0,0.0,0.0,0.0,0.0,0.0,0.0,0.0,0.0,0.0,0.0,0.0,4.168,4.1797,4.1758,0.0,0.0,0.0,0.0,0.0,0.0,0.0,0.0,0.0,0.0,0.0,0.0,0.0,0.0,0.0,0.0,0.0,0.0,0.0,0.0,0.0,0.0,0.0,0.0,0.0,0.0,0.0,0.0,0.0,0.0,0.0,0.0,0.0,0.0,0.0,0.0,0.0,0.0,0.0,0.0,0.0,0.0,0.0,0.0,0.0,0.0,0.0,0.0,0.0,0.0,0.0,0.0,0.0,0.0,0.0,0.0,0.0,0.0,0.0,0.0,0.0,0.0,0.0,0.0,0.0,0.0,0.0,0.0,0.0,0.0,0.0,0.0,0.0,0.0,0.0,0.0,0.0,0.0,0.0,0.0,0.0,0.0,0.0,0.0,0.0,0.0,0.0,0.0,0.0,0.0,0.0,0.0,0.0,0.0,0.0,0.0,0.0,0.0,0.0,0.0,0.0,0.0,0.0,0.0,0.0,0.0,0.0,0.0,0.0,0.0,4.1562,4.2266,4.3047,0.0,4.3398,0.0,0.0,0.0,0.0,0.0,0.0,0.0,0.0,0.0,0.0,0.0,0.0,0.0,0.0,0.0,0.0,0.0,0.0,0.0,0.0,0.0,0.0,0.0,0.0,0.0,0.0,0.0,0.0,0.0,0.0,0.0,0.0,0.0,0.0,0.0,0.0,0.0,0.0,0.0,0.0,0.0,0.0,0.0,0.0,0.0,0.0,0.0,0.0,0.0,0.0,0.0,0.0,0.0,0.0,0.0,0.0,0.0,0.0,0.0,0.0,0.0,0.0,0.0,0.0,0.0,0.0,0.0,0.0,0.0,0.0,0.0,0.0,0.0,0.0,0.0,0.0,0.0,0.0,0.0,0.0,0.0,0.0,0.0,0.0,0.0,0.0,0.0,0.0,0.0,0.0,0.0,0.0,0.0,0.0,0.0,0.0,0.0,0.0,0.0,0.0,0.0,0.0,0.0,0.0,0.0,0.0,0.0,0.0,0.0,0.0,4.1562,4.2383,4.2734,4.2695,0.0,0.0,0.0,0.0,0.0,0.0,0.0,0.0,0.0,0.0,0.0,0.0,0.0,0.0,0.0,0.0,0.0,0.0,0.0,0.0,0.0,0.0,0.0,0.0,0.0,0.0,0.0,0.0,0.0,0.0,0.0,0.0,0.0,0.0,0.0,0.0,0.0,0.0,0.0,0.0,0.0,0.0,0.0,0.0,0.0,0.0,0.0,0.0,0.0,0.0,0.0,0.0,0.0,0.0,0.0,0.0,0.0,0.0,0.0,0.0,0.0,0.0,0.0,0.0,0.0,0.0,0.0,0.0,0.0,0.0,0.0,0.0,0.0,0.0,0.0,0.0,0.0,0.0,0.0,0.0,0.0,0.0,0.0,0.0,0.0,0.0,0.0,0.0,0.0,0.0,0.0,0.0,0.0,0.0,0.0,0.0,0.0,0.0,0.0,0.0,0.0,0.0,0.0,0.0,0.0,0.0,0.0,0.0,0.0,0.0,4.1523,4.2031,4.3008,4.2422,4.2031,4.1875,0.0,0.0,0.0,0.0,0.0,0.0,0.0,0.0,0.0,0.0,0.0,0.0,0.0,0.0,0.0,0.0,0.0,0.0,0.0,0.0,0.0,0.0,0.0,0.0,0.0,0.0,0.0,0.0,0.0,0.0,0.0,0.0,0.0,0.0,0.0,0.0,0.0,0.0,0.0,0.0,0.0,0.0,0.0,0.0,0.0,0.0,0.0,0.0,0.0,0.0,0.0,0.0,0.0,0.0,0.0,0.0,0.0,0.0,0.0,0.0,0.0,0.0,0.0,0.0,0.0,0.0,0.0,0.0,0.0,0.0,0.0,0.0,0.0,0.0,0.0,0.0,0.0,0.0,0.0,0.0,0.0,0.0,0.0,0.0,0.0,0.0,0.0,0.0,0.0,0.0,0.0,0.0,0.0,0.0,0.0,0.0,0.0,0.0,0.0,0.0,0.0,0.0,0.0,0.0,0.0,0.0,0.0,0.0,4.2266,4.2344,4.3125,4.4648,4.25,4.1992,0.0,0.0,0.0,0.0,0.0,0.0,0.0,0.0,0.0,0.0,0.0,0.0,0.0,0.0,0.0,0.0,0.0,0.0,0.0,0.0,0.0,0.0,0.0,0.0,0.0,0.0,0.0,0.0,0.0,0.0,0.0,0.0,0.0,0.0,0.0,0.0,0.0,0.0,0.0,0.0,0.0,0.0,0.0,0.0,0.0,0.0,0.0,0.0,0.0,0.0,0.0,0.0,0.0,0.0,0.0,0.0,0.0,0.0,0.0,0.0,0.0,0.0,0.0,0.0,0.0,0.0,0.0,0.0,0.0,0.0,0.0,0.0,0.0,0.0,0.0,0.0,0.0,0.0,0.0,0.0,0.0,0.0,0.0,0.0,0.0,0.0,0.0,0.0,0.0,0.0,0.0,0.0,0.0,0.0,0.0,0.0,0.0,0.0,0.0,0.0,0.0,0.0,0.0,0.0,0.0,0.0,0.0,0.0,0.0,4.1641,4.2148,4.2461,4.2539,4.2148,4.2031,0.0,0.0,0.0,0.0,0.0,0.0,0.0,0.0,0.0,0.0,0.0,0.0,0.0,0.0,0.0,0.0,0.0,0.0,0.0,0.0,0.0,0.0,0.0,0.0,0.0,0.0,0.0,0.0,0.0,0.0,0.0,0.0,0.0,0.0,0.0,0.0,0.0,0.0,0.0,0.0,0.0,0.0,0.0,0.0,0.0,0.0,0.0,0.0,0.0,0.0,0.0,0.0,0.0,0.0,0.0,0.0,0.0,0.0,0.0,0.0,0.0,0.0,0.0,0.0,0.0,0.0,0.0,0.0,0.0,0.0,0.0,0.0,0.0,0.0,0.0,0.0,0.0,0.0,0.0,0.0,0.0,0.0,0.0,0.0,0.0,0.0,0.0,0.0,0.0,0.0,0.0,0.0,0.0,0.0,0.0,0.0,0.0,0.0,0.0,0.0,0.0,0.0,0.0,0.0,0.0,0.0,0.0,0.0,0.0,4.1211,0.0,4.1172,4.1211,4.1445,4.1445,0.0,0.0,0.0,0.0,0.0,0.0,0.0,0.0,0.0,0.0,0.0,0.0,0.0,0.0,0.0,0.0,0.0,0.0,0.0,0.0,0.0,0.0,0.0,0.0,0.0,0.0,0.0,0.0,0.0,0.0,0.0,0.0,0.0,0.0,0.0,0.0,0.0,0.0,0.0,0.0,0.0,0.0,0.0,0.0,0.0,0.0,0.0,0.0,0.0,0.0,0.0,0.0,0.0,0.0,0.0,0.0,0.0,0.0,0.0,0.0,0.0,0.0,0.0,0.0,0.0,0.0,0.0,0.0,0.0,0.0,0.0,0.0,0.0,0.0,0.0,0.0,0.0,0.0,0.0,0.0,0.0,0.0,0.0,0.0,0.0,0.0,0.0,0.0,0.0,0.0,0.0,0.0,0.0,0.0,0.0,0.0,0.0,0.0,0.0,0.0,0.0,0.0,0.0,0.0,0.0,0.0,0.0,0.0,4.1172,4.1133,3.957,3.9609,4.1133,4.043,4.0351,0.0,0.0,0.0,0.0,0.0,0.0,0.0,0.0,0.0,0.0,0.0,0.0,0.0,0.0,0.0,0.0,0.0,0.0,0.0,0.0,0.0,0.0,0.0,0.0,0.0,0.0,0.0,0.0,0.0,0.0,0.0,0.0,0.0,0.0,0.0,0.0,0.0,0.0,0.0,0.0,0.0,0.0,0.0,0.0,0.0,0.0,0.0,0.0,0.0,0.0,0.0,0.0,0.0,0.0,0.0,0.0,0.0,0.0,0.0,0.0,0.0,0.0,0.0,0.0,0.0,0.0,0.0,0.0,0.0,0.0,0.0,0.0,0.0,0.0,0.0,0.0,0.0,0.0,0.0,0.0,0.0,0.0,0.0,0.0,0.0,0.0,0.0,0.0,0.0,0.0,0.0,0.0,0.0,0.0,0.0,0.0,0.0,0.0,0.0,0.0,0.0,0.0,0.0,0.0,0.0,0.0,0.0,0.0,0.0,4.0312,3.9805,4.0312,4.1875,4.0664,4.0859,0.0,0.0,0.0,0.0,0.0,0.0,0.0,0.0,0.0,0.0,0.0,0.0,0.0,0.0,0.0,0.0,0.0,0.0,0.0,0.0,0.0,0.0,0.0,0.0,0.0,0.0,0.0,0.0,0.0,0.0,0.0,0.0,0.0,0.0,0.0,0.0,0.0,0.0,0.0,0.0,0.0,0.0,0.0,0.0,0.0,0.0,0.0,0.0,0.0,0.0,0.0,0.0,0.0,0.0,0.0,0.0,0.0,0.0,0.0,0.0,0.0,0.0,0.0,0.0,0.0,0.0,0.0,0.0,0.0,0.0,0.0,0.0,0.0,0.0,0.0,0.0,0.0,0.0,0.0,0.0,0.0,0.0,0.0,0.0,0.0,0.0,0.0,0.0,0.0,0.0,0.0,0.0,0.0,0.0,0.0,0.0,0.0,0.0,0.0,0.0,0.0,0.0,0.0,0.0,0.0,0.0,0.0,0.0,0.0,4.3072,4.2125,4.2169,4.3178,4.2531,4.2148,4.2187,0.0,0.0,0.0,0.0,0.0,0.0,0.0,0.0,0.0,0.0,0.0,0.0,0.0,0.0,0.0,0.0,0.0,0.0,0.0,0.0,0.0,0.0,0.0,0.0,0.0,0.0,0.0,0.0,0.0,0.0,0.0,0.0,0.0,0.0,0.0,0.0,0.0,0.0,0.0,0.0,0.0,0.0,0.0,0.0,0.0,0.0,0.0,0.0,0.0,0.0,0.0,0.0,0.0,0.0,0.0,0.0,0.0,0.0,0.0,0.0,0.0,0.0,0.0,0.0,0.0,0.0,0.0,0.0,0.0,0.0,0.0,0.0,0.0,0.0,0.0,0.0,0.0,0.0,0.0,0.0,0.0,0.0,0.0,0.0,0.0,0.0,0.0,0.0,0.0,0.0,0.0,0.0,0.0,0.0,0.0,0.0,0.0,0.0,0.0,0.0,0.0,0.0,0.0,0.0,0.0,0.0,0.0,0.0,4.8855,4.6883,4.5827,4.5438,4.5869,4.4257,0.0,0.0,0.0,0.0,0.0,0.0,0.0,0.0,0.0,0.0,0.0,0.0,0.0,0.0,0.0,0.0,0.0,0.0,0.0,0.0,0.0,0.0,0.0,0.0,0.0,0.0,0.0,0.0,0.0,0.0,0.0,0.0,0.0,0.0,0.0,0.0,0.0,0.0,0.0,0.0,0.0,0.0,0.0,0.0,0.0,0.0,0.0,0.0,0.0,0.0,0.0,0.0,0.0,0.0,0.0,0.0,0.0,0.0,0.0,0.0,0.0,0.0,0.0,0.0,0.0,0.0,0.0,0.0,0.0,0.0,0.0,0.0,0.0,0.0,0.0,0.0,0.0,0.0,0.0,0.0,0.0,0.0,0.0,0.0,0.0,0.0,0.0,0.0,0.0,0.0,0.0,0.0,0.0,0.0,0.0,0.0,0.0,0.0,0.0,0.0,0.0,0.0,0.0,0.0,0.0,0.0,0.0,0.0,0.0,5.3986,5.8681,5.8886,5.4087,4.9949,4.7274,0.0,0.0,0.0,0.0,0.0,0.0,0.0,0.0,0.0,0.0,0.0,0.0,0.0,0.0,0.0,0.0,0.0,0.0,0.0,0.0,0.0,0.0,0.0,0.0,0.0,0.0,0.0,0.0,0.0,0.0,0.0,0.0,0.0,0.0,0.0,0.0,0.0,0.0,0.0,0.0,0.0,0.0,0.0,0.0,0.0,0.0,0.0,0.0,0.0,0.0,0.0,0.0,0.0,0.0,0.0,0.0,0.0,0.0,0.0,0.0,0.0,0.0,0.0,0.0,0.0,0.0,0.0,0.0,0.0,0.0,0.0,0.0,0.0,0.0,0.0,0.0,0.0,0.0,0.0,0.0,0.0,0.0,0.0,0.0,0.0,0.0,0.0,0.0,0.0,0.0,0.0,0.0,0.0,0.0,0.0,0.0,0.0,0.0,0.0,0.0,0.0,0.0,0.0,0.0,0.0,0.0,0.0,0.0,5.6299,5.8566,6.6934,6.941,6.5282,5.8021,5.2003,0.0,0.0,0.0,0.0,0.0,0.0,0.0,0.0,0.0,0.0,0.0,0.0,0.0,0.0,0.0,0.0,0.0,0.0,0.0,0.0,0.0,0.0,0.0,0.0,0.0,0.0,0.0,0.0,0.0,0.0,0.0,0.0,0.0,0.0,0.0,0.0,0.0,0.0,0.0,0.0,0.0,0.0,0.0,0.0,0.0,0.0,0.0,0.0,0.0,0.0,0.0,0.0,0.0,0.0,0.0,0.0,0.0,0.0,0.0,0.0,0.0,0.0,0.0,0.0,0.0,0.0,0.0,0.0,0.0,0.0,0.0,0.0,0.0,0.0,0.0,0.0,0.0,0.0,0.0,0.0,0.0,0.0,0.0,0.0,0.0,0.0,0.0,0.0,0.0,0.0,0.0,0.0,0.0,0.0,0.0,0.0,0.0,0.0,0.0,0.0,0.0,0.0,0.0,0.0,0.0,0.0,0.0,0.0,6.1505,6.2667,7.2492,7.7139,7.5802,6.6857,5.7165,0.0,0.0,0.0,0.0,0.0,0.0,0.0,0.0,0.0,0.0,0.0,0.0,0.0,0.0,0.0,0.0,0.0,0.0,0.0,0.0,0.0,0.0,0.0,0.0,0.0,0.0,0.0,0.0,0.0,0.0,0.0,0.0,0.0,0.0,0.0,0.0,0.0,0.0,0.0,0.0,0.0,0.0,0.0,0.0,0.0,0.0,0.0,0.0,0.0,0.0,0.0,0.0,0.0,0.0,0.0,0.0,0.0,0.0,0.0,0.0,0.0,0.0,0.0,0.0,0.0,0.0,0.0,0.0,0.0,0.0,0.0,0.0,0.0,0.0,0.0,0.0,0.0,0.0,0.0,0.0,0.0,0.0,0.0,0.0,0.0,0.0,0.0,0.0,0.0,0.0,0.0,0.0,0.0,0.0,0.0,0.0,0.0,0.0,0.0,0.0,0.0,0.0,0.0,0.0,0.0,0.0,0.0,0.0,6.1997,6.6074,7.5369,7.8908,7.6032,6.5646,5.7736,0.0,0.0,0.0,0.0,0.0,0.0,0.0,0.0,0.0,0.0,0.0,0.0,0.0,0.0,0.0,0.0,0.0,0.0,0.0,0.0,0.0,0.0,0.0,0.0,0.0,0.0,0.0,0.0,0.0,0.0,0.0,0.0,0.0,0.0,0.0,0.0,0.0,0.0,0.0,0.0,0.0,0.0,0.0,0.0,0.0,0.0,0.0,0.0,4.9266,0.0,0.0,0.0,0.0,0.0,0.0,0.0,0.0,0.0,0.0,0.0,0.0,0.0,0.0,0.0,0.0,0.0,0.0,0.0,0.0,0.0,0.0,0.0,0.0,0.0,0.0,0.0,0.0,0.0,0.0,0.0,0.0,0.0,0.0,0.0,0.0,0.0,0.0,0.0,0.0,0.0,0.0,0.0,0.0,0.0,0.0,0.0,0.0,0.0,0.0,0.0,0.0,0.0,0.0,0.0,0.0,0.0,0.0,0.0,6.418,6.9471,7.7449,8.0631,7.8177,6.8445,6.0559,0.0,0.0,0.0,0.0,0.0,0.0,0.0,0.0,0.0,0.0,0.0,0.0,0.0,0.0,0.0,0.0,0.0,0.0,0.0,0.0,0.0,0.0,0.0,0.0,0.0,0.0,0.0,0.0,0.0,0.0,0.0,0.0,0.0,0.0,0.0,0.0,0.0,0.0,0.0,0.0,0.0,0.0,0.0,0.0,0.0,0.0,0.0,0.0,0.0,0.0,0.0,0.0,0.0,0.0,0.0,0.0,0.0,0.0,0.0,0.0,0.0,0.0,0.0,0.0,0.0,0.0,0.0,0.0,0.0,0.0,0.0,0.0,0.0,0.0,0.0,0.0,0.0,0.0,0.0,0.0,0.0,0.0,0.0,0.0,0.0,0.0,0.0,0.0,0.0,0.0,0.0,0.0,0.0,0.0,0.0,0.0,0.0,0.0,0.0,0.0,0.0,0.0,0.0,0.0,0.0,0.0,0.0,5.9459,6.6461,7.3241,7.9105,8.1708,8.0785,7.2092,6.377,5.6395,0.0,0.0,0.0,0.0,0.0,0.0,0.0,0.0,0.0,0.0,0.0,0.0,0.0,0.0,0.0,0.0,0.0,0.0,0.0,0.0,0.0,0.0,0.0,0.0,0.0,0.0,0.0,0.0,0.0,0.0,0.0,0.0,0.0,0.0,0.0,0.0,0.0,0.0,4.4687,4.6289,0.0,0.0,0.0,0.0,0.0,0.0,0.0,0.0,5.0087,0.0,0.0,0.0,0.0,0.0,0.0,0.0,0.0,0.0,0.0,0.0,0.0,0.0,0.0,0.0,0.0,0.0,0.0,0.0,0.0,0.0,0.0,0.0,0.0,0.0,0.0,0.0,0.0,0.0,0.0,0.0,0.0,0.0,0.0,0.0,0.0,0.0,0.0,0.0,0.0,0.0,0.0,0.0,0.0,0.0,0.0,0.0,0.0,0.0,0.0,0.0,0.0,0.0,0.0,0.0,0.0,5.8095,5.9728,6.6307,7.8228,8.0354,8.0862,7.9854,7.2332,6.496,5.8042,0.0,0.0,0.0,0.0,0.0,0.0,0.0,0.0,0.0,0.0,0.0,0.0,0.0,0.0,0.0,0.0,0.0,0.0,0.0,0.0,0.0,0.0,0.0,0.0,0.0,0.0,0.0,0.0,0.0,0.0,0.0,0.0,0.0,0.0,0.0,0.0,0.0,0.0,0.0,5.1016,5.2461,0.0,0.0,0.0,0.0,0.0,0.0,0.0,0.0,5.1696,0.0,0.0,0.0,0.0,0.0,0.0,0.0,0.0,0.0,0.0,0.0,0.0,0.0,0.0,0.0,0.0,0.0,0.0,0.0,0.0,0.0,0.0,0.0,0.0,0.0,0.0,0.0,0.0,0.0,0.0,0.0,0.0,0.0,0.0,0.0,0.0,0.0,0.0,0.0,0.0,0.0,0.0,0.0,0.0,0.0,0.0,0.0,0.0,0.0,0.0,0.0,0.0,0.0,0.0,0.0,5.9917,6.3028,6.9391,7.9392,8.1085,8.1323,8.0354,7.2168,6.5167,0.0,0.0,0.0,0.0,0.0,0.0,0.0,0.0,0.0,0.0,0.0,0.0,0.0,0.0,0.0,0.0,0.0,0.0,0.0,0.0,0.0,0.0,0.0,0.0,0.0,0.0,0.0,0.0,0.0,0.0,0.0,0.0,0.0,0.0,0.0,0.0,0.0,0.0,0.0,0.0,5.3594,5.5351,5.707,0.0,0.0,0.0,0.0,0.0,0.0,5.3156,5.3766,0.0,0.0,0.0,0.0,0.0,0.0,0.0,0.0,0.0,0.0,0.0,0.0,0.0,0.0,0.0,0.0,0.0,0.0,0.0,0.0,0.0,0.0,0.0,0.0,0.0,0.0,0.0,0.0,0.0,0.0,0.0,0.0,0.0,0.0,0.0,0.0,0.0,0.0,0.0,0.0,0.0,0.0,0.0,0.0,0.0,0.0,0.0,0.0,0.0,0.0,0.0,0.0,0.0,0.0,0.0,6.1077,6.6139,7.2402,7.9931,8.1624,8.19,8.0977,7.186,6.4949,0.0,0.0,0.0,0.0,0.0,0.0,0.0,0.0,0.0,0.0,0.0,0.0,0.0,0.0,0.0,0.0,0.0,0.0,0.0,0.0,0.0,0.0,0.0,0.0,0.0,0.0,0.0,0.0,0.0,0.0,0.0,0.0,0.0,0.0,0.0,0.0,0.0,0.0,0.0,0.0,0.0,5.8125,5.9492,5.8203,0.0,0.0,0.0,0.0,5.3437,5.625,0.0,0.0,0.0,0.0,0.0,0.0,0.0,0.0,0.0,0.0,0.0,0.0,0.0,0.0,0.0,0.0,0.0,0.0,0.0,0.0,0.0,0.0,0.0,0.0,0.0,0.0,0.0,0.0,0.0,0.0,0.0,0.0,0.0,0.0,0.0,0.0,0.0,0.0,0.0,0.0,0.0,0.0,0.0,0.0,0.0,0.0,0.0,0.0,0.0,0.0,0.0,0.0,0.0,0.0,0.0,0.0,6.1812,6.6383,7.2946,8.1508,8.2208,8.1939,8.1016,7.1321,6.4422,0.0,0.0,0.0,0.0,0.0,0.0,0.0,0.0,0.0,0.0,0.0,0.0,0.0,0.0,0.0,0.0,0.0,0.0,0.0,0.0,0.0,0.0,0.0,0.0,0.0,0.0,0.0,0.0,0.0,0.0,0.0,0.0,0.0,0.0,0.0,0.0,0.0,0.0,0.0,0.0,0.0,6.1172,6.1406,6.0,5.8555,0.0,0.0,5.8008,5.918,6.3437,0.0,0.0,0.0,0.0,0.0,0.0,0.0,0.0,0.0,0.0,0.0,0.0,0.0,0.0,0.0,0.0,0.0,0.0,0.0,0.0,0.0,0.0,0.0,0.0,0.0,0.0,0.0,0.0,0.0,0.0,0.0,0.0,0.0,0.0,0.0,0.0,0.0,0.0,0.0,0.0,0.0,0.0,0.0,0.0,0.0,0.0,0.0,0.0,0.0,0.0,0.0,0.0,0.0,0.0,0.0,5.5696,6.2831,6.8977,7.5156,8.1369,8.2093,8.167,8.0392,6.9552,6.2834,0.0,0.0,0.0,0.0,0.0,0.0,0.0,0.0,0.0,0.0,0.0,0.0,0.0,0.0,0.0,0.0,0.0,0.0,0.0,0.0,0.0,0.0,0.0,0.0,0.0,0.0,0.0,0.0,0.0,0.0,0.0,0.0,0.0,0.0,0.0,0.0,0.0,0.0,0.0,0.0,0.0,0.0,6.3398,6.3398,0.0,0.0,0.0,6.1015,6.1758,0.0,0.0,0.0,0.0,0.0,0.0,0.0,0.0,0.0,0.0,0.0,0.0,0.0,0.0,0.0,0.0,0.0,0.0,0.0,0.0,0.0,0.0,0.0,0.0,0.0,0.0,0.0,0.0,0.0,0.0,0.0,0.0,0.0,0.0,0.0,0.0,0.0,0.0,0.0,0.0,0.0,0.0,0.0,0.0,0.0,0.0,0.0,0.0,0.0,0.0,0.0,0.0,0.0,0.0,0.0,0.0,0.0,6.3504,7.1107,7.699,8.0991,8.2099,8.1739,7.9661,6.9117,0.0,0.0,0.0,0.0,0.0,0.0,0.0,0.0,0.0,0.0,0.0,0.0,0.0,0.0,0.0,0.0,0.0,0.0,0.0,0.0,0.0,0.0,0.0,0.0,0.0,0.0,0.0,4.1601,0.0,0.0,0.0,0.0,0.0,0.0,0.0,0.0,0.0,0.0,0.0,0.0,0.0,0.0,6.6758,6.4609,6.6328,6.7851,0.0,0.0,6.5078,6.5508,6.8672,6.8672,0.0,0.0,0.0,0.0,0.0,0.0,0.0,0.0,0.0,0.0,0.0,0.0,0.0,0.0,0.0,0.0,0.0,0.0,0.0,0.0,0.0,0.0,0.0,0.0,0.0,0.0,0.0,0.0,0.0,0.0,0.0,0.0,0.0,0.0,0.0,0.0,0.0,0.0,0.0,0.0,0.0,0.0,0.0,0.0,0.0,0.0,0.0,0.0,0.0,0.0,0.0,0.0,0.0,0.0,0.0,6.3561,7.1681,7.7598,8.1029,8.2676,8.2317,7.9738,7.1349,6.4872,0.0,0.0,0.0,0.0,0.0,0.0,0.0,0.0,0.0,0.0,0.0,0.0,0.0,0.0,0.0,0.0,0.0,0.0,0.0,0.0,0.0,0.0,0.0,0.0,0.0,0.0,0.0,0.0,0.0,0.0,0.0,0.0,0.0,0.0,0.0,0.0,0.0,0.0,0.0,0.0,0.0,6.543,6.4414,6.7812,7.1289,0.0,0.0,7.0742,7.2344,7.8086,7.8242,6.5937,0.0,0.0,0.0,0.0,0.0,0.0,0.0,0.0,0.0,0.0,0.0,0.0,0.0,0.0,0.0,0.0,0.0,0.0,0.0,0.0,0.0,0.0,0.0,0.0,0.0,0.0,0.0,0.0,0.0,0.0,0.0,0.0,0.0,0.0,0.0,0.0,0.0,0.0,0.0,0.0,0.0,0.0,0.0,0.0,0.0,0.0,0.0,0.0,0.0,0.0,0.0,0.0,0.0,5.9412,6.3437,7.274,7.8967,8.1721,8.3016,8.2631,8.0662,7.1822,6.5141,0.0,0.0,0.0,0.0,0.0,0.0,0.0,0.0,0.0,0.0,0.0,0.0,0.0,0.0,0.0,0.0,0.0,0.0,0.0,0.0,0.0,0.0,0.0,0.0,0.0,0.0,0.0,0.0,4.418,4.4844,4.5703,0.0,0.0,0.0,0.0,0.0,0.0,0.0,0.0,0.0,0.0,6.7851,6.957,7.2187,0.0,0.0,7.4883,7.414,7.4805,7.5312,7.289,6.4805,6.125,0.0,0.0,0.0,0.0,0.0,0.0,0.0,0.0,0.0,0.0,0.0,0.0,0.0,0.0,0.0,0.0,0.0,0.0,0.0,0.0,0.0,0.0,0.0,0.0,0.0,0.0,0.0,0.0,0.0,0.0,0.0,0.0,0.0,0.0,0.0,0.0,0.0,0.0,0.0,0.0,0.0,0.0,0.0,0.0,0.0,0.0,0.0,0.0,0.0,0.0,0.0,0.0,5.9721,6.3322,7.2817,7.9198,8.2253,8.2901,8.2516,8.0939,7.2976,6.6384,0.0,0.0,0.0,0.0,0.0,0.0,0.0,0.0,0.0,0.0,0.0,0.0,0.0,0.0,0.0,0.0,0.0,0.0,0.0,0.0,0.0,0.0,0.0,0.0,0.0,0.0,0.0,0.0,4.5039,4.5742,4.6601,0.0,0.0,0.0,0.0,0.0,0.0,0.0,0.0,0.0,0.0,6.914,7.1758,7.4297,7.6015,7.6367,7.5234,7.4453,7.4687,7.289,6.957,6.3906,0.0,0.0,0.0,0.0,0.0,0.0,0.0,0.0,0.0,0.0,0.0,0.0,0.0,0.0,0.0,0.0,0.0,0.0,0.0,0.0,0.0,0.0,0.0,0.0,0.0,0.0,0.0,0.0,0.0,0.0,0.0,0.0,0.0,0.0,0.0,0.0,0.0,0.0,0.0,0.0,0.0,0.0,0.0,0.0,0.0,0.0,0.0,0.0,0.0,0.0,0.0,0.0,0.0,5.9121,6.3303,7.182,7.8122,8.2138,8.2324,8.1977,8.1016,7.5207,6.9267,6.3283,0.0,0.0,0.0,0.0,0.0,0.0,0.0,0.0,0.0,0.0,0.0,0.0,0.0,0.0,0.0,0.0,0.0,0.0,0.0,0.0,0.0,0.0,0.0,0.0,0.0,0.0,4.625,4.6289,4.6641,0.0,0.0,0.0,0.0,0.0,0.0,0.0,0.0,0.0,0.0,6.3359,6.8476,6.9453,7.3164,7.5664,7.4883,7.2617,7.1211,7.2109,7.2695,7.0937,0.0,0.0,0.0,0.0,0.0,0.0,0.0,0.0,0.0,0.0,0.0,0.0,0.0,0.0,0.0,0.0,0.0,0.0,0.0,0.0,0.0,0.0,0.0,0.0,0.0,0.0,0.0,5.0195,4.9141,0.0,0.0,0.0,0.0,0.0,0.0,0.0,0.0,0.0,0.0,0.0,5.1839,5.2165,0.0,0.0,0.0,0.0,0.0,0.0,0.0,0.0,0.0,0.0,0.0,0.0,6.0184,6.3561,7.2778,7.9191,8.2208,8.2862,8.2747,8.1893,7.613,6.8948,6.0234,0.0,0.0,0.0,0.0,0.0,0.0,0.0,0.0,0.0,0.0,0.0,0.0,0.0,0.0,0.0,0.0,0.0,0.0,0.0,0.0,0.0,0.0,0.0,0.0,0.0,4.7383,0.0,0.0,0.0,0.0,0.0,0.0,0.0,0.0,0.0,0.0,0.0,5.5156,5.9414,6.375,6.7383,6.9922,7.3476,7.6211,0.0,0.0,0.0,0.0,0.0,0.0,0.0,0.0,0.0,0.0,0.0,0.0,0.0,0.0,6.2484,5.6084,5.4319,5.4,5.4574,0.0,0.0,0.0,0.0,0.0,0.0,0.0,0.0,0.0,0.0,0.0,0.0,0.0,0.0,0.0,0.0,5.1779,0.0,0.0,0.0,0.0,0.0,0.0,0.0,0.0,5.1891,5.3547,5.5626,5.651,5.7188,0.0,5.6267,5.3756,0.0,0.0,0.0,0.0,0.0,0.0,0.0,0.0,6.0745,6.36,7.274,7.9153,8.2131,8.2593,8.2593,8.2201,7.6254,6.896,6.0325,5.5434,5.1337,0.0,0.0,0.0,0.0,0.0,0.0,0.0,0.0,0.0,0.0,0.0,0.0,0.0,0.0,0.0,0.0,0.0,0.0,0.0,0.0,0.0,0.0,0.0,4.8828,0.0,0.0,0.0,0.0,0.0,0.0,0.0,0.0,0.0,5.4883,5.543,5.7812,6.3242,6.6172,6.8555,7.043,0.0,0.0,0.0,0.0,0.0,0.0,0.0,6.6601,6.4336,6.4297,6.4609,6.4805,6.7656,6.9531,6.8398,0.0,0.0,6.0789,5.8913,5.8593,5.9167,5.8873,5.8991,6.0307,6.0596,6.0981,0.0,0.0,0.0,0.0,0.0,0.0,0.0,0.0,5.5487,5.5938,0.0,5.5477,0.0,0.0,0.0,0.0,0.0,0.0,0.0,0.0,5.7473,5.8894,5.7864,5.859,5.883,5.8693,5.7958,5.6994,5.584,5.1991,0.0,0.0,0.0,0.0,0.0,0.0,6.0822,6.3714,7.1896,7.8084,8.2061,8.1554,8.1477,8.197,7.5802,6.9568,6.3706,5.9412,5.5609,5.2123,4.9624,0.0,0.0,0.0,0.0,0.0,0.0,0.0,0.0,0.0,0.0,0.0,0.0,0.0,0.0,0.0,0.0,0.0,0.0,0.0,0.0,5.0273,0.0,0.0,0.0,0.0,0.0,0.0,0.0,0.0,0.0,0.0,5.7109,5.8359,6.1484,6.7265,0.0,0.0,0.0,0.0,7.414,6.9453,6.8594,6.8437,6.7695,6.9414,7.0351,6.8672,0.0,0.0,7.1406,7.1055,7.0781,6.8984,7.0273,7.0508,6.8867,6.6719,6.543,6.5463,6.4716,6.4406,6.5025,6.5331,6.5523,6.3867,0.0,0.0,0.0,0.0,6.0282,6.1983,6.3856,6.4419,6.3122,6.0473,5.8957,0.0,0.0,0.0,0.0,0.0,0.0,5.7107,5.9545,6.1494,6.3976,6.6973,6.7812,6.8234,6.8147,6.6115,6.4089,6.1973,5.9011,5.5895,5.2664,0.0,0.0,0.0,0.0,6.2562,6.7075,7.4067,7.8992,8.14,8.1785,8.1208,7.9592,7.6532,7.2429,6.7099,6.3435,5.9364,5.4857,5.2779,0.0,0.0,0.0,0.0,0.0,0.0,0.0,0.0,0.0,0.0,0.0,0.0,0.0,0.0,0.0,0.0,0.0,0.0,0.0,5.1836,5.1992,5.207,0.0,0.0,0.0,0.0,0.0,0.0,0.0,0.0,0.0,6.4336,6.3125,6.3008,0.0,0.0,6.8984,6.8125,7.1992,7.4883,7.4648,0.0,0.0,0.0,7.5664,7.4765,7.3047,7.5351,7.7305,7.7148,7.8125,7.8633,7.7461,7.7734,7.7695,7.6406,7.2344,6.9531,6.9757,6.9665,6.9818,7.0947,7.1236,7.1602,7.3832,6.6728,6.3729,6.2936,6.3825,6.5062,6.6669,6.8359,6.8822,6.7795,6.5628,6.3561,6.065,5.729,5.5902,0.0,0.0,0.0,6.0925,6.4347,6.5779,6.8578,7.2294,7.3313,7.3706,7.3581,7.1486,6.9436,6.759,6.4705,6.2012,5.9396,0.0,0.0,5.6097,6.0848,6.5288,6.9442,7.5434,7.9338,8.1054,8.1554,8.0746,7.8554,7.7224,7.4273,6.9557,6.6436,6.2791,5.8418,5.5626,5.3126,0.0,0.0,0.0,0.0,0.0,0.0,0.0,0.0,0.0,0.0,0.0,4.5469,4.5937,0.0,0.0,0.0,5.0976,5.1992,5.2656,5.2695,0.0,0.0,0.0,0.0,0.0,0.0,0.0,5.7539,6.0469,6.414,6.8515,6.7969,6.7851,6.9922,7.1406,7.1953,7.1094,0.0,7.7383,7.8086,7.9062,7.9805,8.0156,7.9961,7.9375,7.8359,7.9101,8.0117,8.0664,8.164,8.207,8.1679,8.1523,8.1367,8.082,7.7617,7.5039,7.4961,7.4865,7.5218,7.6326,7.6466,7.6763,8.3478,7.9792,7.1602,6.8359,6.8656,6.9385,7.0209,7.0992,7.0902,7.1103,7.1452,6.8855,6.6808,6.5076,6.2079,0.0,0.0,6.3156,6.5538,6.7949,7.0246,7.2584,7.5024,7.5895,7.6325,7.6248,7.4725,7.3514,7.2476,6.9436,6.7744,6.7244,6.2073,5.9264,5.93,6.4401,6.846,7.1206,7.5972,7.9261,8.1054,8.1093,8.0323,7.8669,7.7762,7.5319,7.1151,6.8564,6.5639,6.2213,5.8226,5.5549,5.4451,0.0,0.0,0.0,0.0,0.0,0.0,0.0,0.0,0.0,0.0,0.0,0.0,0.0,0.0,0.0,5.3046,0.0,5.3281,5.3164,0.0,0.0,0.0,5.668,5.9023,6.0234,6.1523,6.3008,0.0,0.0,0.0,0.0,7.4687,7.7265,7.8125,7.8203,7.7422,7.9375,8.0898,8.0156,8.0312,8.0742,8.1797,8.2734,8.3281,8.3047,8.289,8.2187,8.2187,8.2265,8.2304,8.2265,8.2304,8.2265,8.2304,8.1914,8.1797,7.9961,7.9765,8.0,8.039,8.0348,8.0393,8.8479,8.6401,8.4253,8.126,7.7916,7.8715,7.9554,8.0315,8.0315,7.8639,7.5749,7.3791,7.093,6.759,6.741,6.7718,6.8345,6.9563,7.1156,7.2943,7.4241,7.5774,7.7608,7.8492,7.8915,7.8877,7.8485,7.7553,7.6092,7.5284,7.3206,7.009,6.9271,6.7614,6.5148,6.6423,6.9318,7.3768,7.6286,7.8723,8.0977,8.1093,8.0592,7.9515,7.8062,7.558,7.1995,6.9448,6.6255,6.2296,5.9858,5.7357,5.4643,5.2295,0.0,0.0,0.0,0.0,0.0,0.0,0.0,0.0,0.0,4.43,4.5273,0.0,4.911,0.0,5.3621,5.6328,5.7539,5.707,0.0,0.0,5.8789,5.9414,6.0078,6.3242,6.5234,6.5,6.8203,7.1523,7.4336,7.6172,7.8203,8.0664,7.957,7.8398,7.8281,8.0937,8.2929,8.2969,8.4804,8.6367,8.582,8.5117,8.4336,8.3711,8.289,8.2304,8.2304,8.2304,8.2304,8.2304,8.2304,8.2304,8.2304,8.2304,8.2187,8.1758,8.1679,8.1679,8.1679,8.164,8.161,9.2133,9.0902,9.0941,8.9286,8.6594,8.517,8.4818,8.5228,8.4504,8.2862,8.0498,7.8077,7.4841,7.136,7.2129,7.2552,7.2668,7.3899,7.5159,7.6409,7.7266,7.8391,7.9677,8.0138,8.0369,8.0331,8.0015,7.9323,7.8438,7.8015,7.6592,7.4322,7.4763,7.3894,7.1647,7.014,7.1132,7.4649,7.6771,7.8915,8.0977,8.1093,8.0131,7.8169,7.6455,7.3667,6.9519,6.6949,6.4176,6.1104,5.9319,5.7396,5.5138,5.2713,5.0737,0.0,0.0,0.0,0.0,0.0,0.0,0.0,0.0,0.0,0.0,0.0,5.0833,0.0,5.5489,0.0,5.9101,5.9101,5.9805,6.1836,6.2461,6.3437,6.5351,6.7695,6.957,7.0664,7.2851,7.5312,7.7812,7.8984,8.039,8.2578,8.1992,8.1367,8.1601,8.3945,8.5976,8.6445,8.8047,8.8828,8.7695,8.6054,8.4609,8.375,8.289,8.2304,8.2304,8.2304,8.2304,8.2304,8.2304,8.2304,8.2304,8.2304,8.2304,8.2304,8.2304,8.2265,8.2148,8.207,8.1968,9.4711,9.4057,9.4018,9.4018,9.3749,8.9979,8.8171,8.7781,8.6203,8.5363,8.4868,8.1554,7.8477,7.5745,7.6361,7.6245,7.563,7.7092,7.816,7.8883,7.9614,8.0354,8.1093,8.1093,8.1093,8.1054,8.0323,7.9977,7.9977,7.9208,7.8669,7.8361,7.844,7.8006,7.6871,7.4081,7.3388,7.483,7.7254,7.9223,8.0746,8.0477,7.8707,7.5476,7.362,7.0422,6.5646,6.3051,6.0988,5.9242,5.7665,5.6527,5.5868,5.2905,5.1275,0.0,4.9279,0.0,0.0,0.0,0.0,0.0,0.0,0.0,0.0,5.2597,5.3575,5.5719,5.8162,5.9805,6.0312,6.1094,6.2812,6.5859,6.6484,6.8125,7.1797,7.2617,7.3984,7.7031,7.7539,7.8594,8.0547,8.1094,8.1797,8.3281,8.414,8.4531,8.5117,8.6836,8.8476,8.9609,8.9687,8.8867,8.7461,8.5937,8.4609,8.375,8.289,8.2344,8.2304,8.2304,8.2304,8.2304,8.2304,8.2304,8.2304,8.2304,8.2304,8.2304,8.2304,8.2304,8.2265,8.2187,8.2031,9.598,9.5788,9.5826,9.5826,9.5672,9.4172,9.2364,9.0402,8.9367,8.7791,8.5709,8.3048,8.1508,8.0823,8.0362,8.0054,7.99,8.0246,8.0439,8.0623,8.0785,8.0939,8.1093,8.1093,8.1093,8.1093,8.0939,8.0862,8.0862,8.0669,7.9554,7.7592,7.8207,7.74,7.5313,0.0,0.0,0.0,7.7562,7.8653,7.8915,7.6976,7.462,7.1953,6.9557,0.0,6.3002,6.101,5.9204,5.7544,5.6498,0.0,0.0,0.0,0.0,0.0,0.0,0.0,0.0,0.0,0.0,0.0,5.4617,5.4117,5.3166,5.3674,5.584,5.9855,6.1324,6.3203,6.6211,6.7265,6.832,6.9609,7.0976,7.2461,7.3984,7.5937,7.7578,7.8125,7.9414,8.0429,8.0937,8.1601,8.2422,8.3476,8.4336,8.5156,8.5898,8.7031,8.7812,8.7969,8.8164,8.7656,8.6601,8.5586,8.457,8.375,8.2851,8.2344,8.2304,8.2304,8.2304,8.2304,8.2304,8.2304,8.2304,8.2304,8.2304,8.2304,8.2304,8.2304,8.2304,8.2265,8.2226,9.6865,0.0,9.648,9.6288,0.0,9.5365,9.4249,9.2943,9.1252,8.9098,8.6671,8.4901,8.3978,8.3555,8.2708,8.2324,8.2324,8.19,8.1708,8.167,8.1285,8.1093,8.1093,8.1093,8.1093,8.1093,8.1093,8.1093,8.1093,8.1093,8.0439,7.9169,7.96,7.9138,7.79,7.83,7.8108,7.7254,7.807,7.8946,7.97,7.8498,7.6447,7.3509,0.0,0.0,0.0,0.0,0.0,0.0,0.0,0.0,0.0,0.0,0.0,5.6287,5.557,5.583,5.7426,5.7565,5.8112,5.935,5.9826,5.9042,5.6665,5.8508,6.1002,6.3726,6.5199,6.7265,7.0351,7.1523,7.2695,7.4336,7.5351,7.6328,7.7578,7.8515,7.9414,8.0234,8.0742,8.1133,8.1601,8.1992,8.2851,8.4023,8.4609,8.5351,8.664,8.7578,8.8086,8.8086,8.8086,8.7461,8.5898,8.5234,8.4414,8.3281,8.2578,8.2344,8.2304,8.2304,8.2304,8.2304,8.2304,8.2304,8.2304,8.2304,8.2304,8.2304,8.2304,8.2304,8.2304,8.2304,8.2304,9.7519,9.7403,9.6634,9.6288,9.6249,9.5518,9.5134,9.4828,0.0,0.0,0.0,8.6791,8.5868,8.5055,8.4209,8.3747,8.3555,8.2708,8.2285,8.2278,8.1439,8.1093,8.1093,8.1093,8.1093,8.1093,8.1093,8.1093,8.1093,8.1093,8.1093,8.1093,8.1093,8.1093,8.1093,8.1093,8.0407,7.9031,7.8615,7.9177,8.0598,8.0183,7.8489,7.5408,7.2184,6.8706,6.4949,6.1065,5.8979,5.8941,5.7995,5.767,5.8042,5.7302,5.6967,5.7205,5.6644,5.7489,6.0188,6.0378,6.1426,6.3809,6.4757,6.4089,6.1304,6.3762,6.6013,6.7343,6.9038,7.1055,7.3711,7.4922,7.6367,7.8515,7.8867,7.9492,8.0703,8.0547,8.0742,8.1914,8.164,8.1484,8.2148,8.2265,8.2851,8.4258,8.457,8.5312,8.6914,8.7851,8.8242,8.8086,8.789,8.7344,8.5547,8.4687,8.4101,8.2929,8.2461,8.2304,8.2304,8.2304,8.2304,8.2304,8.2304,8.2304,8.2304,8.2304,8.2304,8.2304,8.2304,8.2304,8.2304,8.2304,8.2304,9.7519,9.7442,9.6634,9.6288,9.6288,9.6172,9.5711,9.4789,9.2287,9.0594,8.9444,8.791,8.6757,8.5901,8.5093,8.4324,8.3555,8.267,8.2285,0.0,8.1477,8.1093,8.1093,8.1093,8.1093,8.1093,8.1093,8.1093,8.1093,8.1093,8.1093,8.1093,8.1093,8.1093,8.1093,8.1093,8.0977,8.0746,7.9261,7.8608,7.88,7.674,7.4681,7.2771,7.0259,6.7833,6.5774,6.3089,6.1569,6.1492,6.0027,6.0157,6.2232,6.1593,6.1841,6.3199,6.3238,6.3383,6.3847,6.3886,6.4654,6.637,6.7345,6.7359,6.6205,6.5909,6.7188,7.0406,7.1753,7.3515,7.6289,7.7969,7.8984,7.9531,8.0234,8.0781,8.1054,8.1523,8.1953,8.2226,8.2226,8.2109,8.2265,8.2304,8.2656,8.3554,8.4023,8.4492,8.6015,8.7148,8.7304,8.6758,8.6562,8.6054,8.5039,8.4219,8.375,8.3476,8.2734,8.2304,8.2304,8.2304,8.2304,8.2304,8.2304,8.2304,8.2304,8.2304,8.2304,8.2304,8.2304,8.2304,8.2304,8.2304,8.2304,9.8211,9.8057,9.6826,9.6288,9.6288,9.6288,9.5826,9.4905,9.329,9.2098,9.1171,8.9486,8.856,8.8094,8.6824,8.6017,8.5593,8.4286,8.3708,8.3625,8.2855,8.2471,8.2432,8.2471,8.2477,8.2439,8.2439,8.2208,8.1785,8.1747,8.1554,8.1131,8.1093,8.1093,8.1131,8.1516,8.1516,8.1093,8.0331,7.9908,7.9869,7.88,7.7585,7.6325,7.432,7.265,7.1376,6.8932,6.7379,6.6869,6.5718,6.5153,6.5326,6.5018,6.4971,6.5295,6.573,6.5947,6.5949,6.6833,6.8102,6.9701,7.0217,7.0706,7.1206,7.0567,7.1053,7.32,7.4679,7.6484,7.8828,7.9805,8.0469,8.1054,8.1484,8.1679,8.1719,8.2031,8.2304,8.2304,8.2304,8.2304,8.2304,8.2304,8.2617,8.3437,8.3945,8.4648,8.5351,8.582,8.6133,8.6133,8.5781,8.5156,8.4375,8.3906,8.3437,8.3008,8.2578,8.2344,8.2304,8.2304,8.2304,8.2304,8.2304,8.2304,8.2304,8.2304,8.2304,8.2304,8.2304,8.2304,8.2304,8.2304,8.2304,9.9135,9.8634,9.7173,9.648,9.6288,9.6288,9.5903,9.5212,9.4368,9.352,9.2592,9.0979,9.0059,8.9787,8.8517,8.7863,8.7478,8.594,8.517,8.5049,8.4119,8.3618,8.3587,8.3593,8.3593,8.3593,8.3593,8.3247,8.267,8.2593,8.217,8.1439,8.1208,8.117,8.1362,8.197,8.2086,8.1708,8.167,8.1477,8.1131,8.1285,8.0977,8.0061,7.8646,7.757,7.6793,7.4619,7.3053,7.2352,7.1371,7.0206,6.8924,6.8642,6.8167,6.7511,6.791,6.827,6.8333,6.9706,7.1255,7.288,7.3063,7.3745,7.5284,7.5264,7.5204,7.5684,7.698,7.8672,8.0273,8.0859,8.1367,8.2187,8.2304,8.2265,8.2304,8.2304,8.2304,8.2304,8.2304,8.2304,8.2304,8.2304,8.2539,8.3203,8.4062,8.457,8.4609,8.4609,8.4922,8.5234,8.5039,8.4297,8.3476,8.3281,8.3008,8.2383,8.2304,8.2304,8.2304,8.2304,8.2304,8.2304,8.2304,8.2304,8.2304,8.2304,8.2304,8.2304,8.2304,8.2304,8.2304,8.2304,8.2304,10.0173,9.875,9.775,9.6942,9.6326,9.6288,9.6249,9.6057,9.5251,9.4403,9.3474,9.1825,9.0633,8.9979,8.971,8.921,8.844,8.6786,8.5978,8.5786,8.4324,8.3593,8.3682,8.3643,8.3605,8.3643,8.3676,8.367,8.3478,8.3439,8.3016,8.2201,8.1477,8.1516,8.2124,8.2278,8.267,8.3336,8.3368,8.2631,8.1246,8.1823,8.1785,8.1016,8.0054,7.9523,7.9292,7.7754,7.6793,7.6617,7.511,7.4168,7.3889,7.3289,7.2507,7.1657,7.1657,7.1734,7.1811,7.2591,7.387,7.5417,7.5601,7.6284,7.7861,7.8729,7.8613,7.7872,7.8209,7.9378,8.0536,8.1399,8.1914,8.2226,8.2304,8.2304,8.2304,8.2304,8.2304,8.2304,8.2304,8.2304,8.2304,8.2304,8.2344,8.25,8.3203,8.3711,8.3711,8.3711,8.375,8.3867,8.375,8.3398,8.2695,8.2422,8.2461,8.2344,8.2304,8.2304,8.2304,8.2304,8.2304,8.2304,8.2304,8.2304,8.2304,8.2304,8.2304,8.2304,8.2304,8.2304,8.2304,8.2304,8.2304,10.0327,9.875,9.7865,9.7019,9.6326,9.6288,9.6288,9.6211,9.5366,9.4789,9.4287,9.2672,9.1479,9.0633,9.0133,8.971,8.9286,8.7632,8.6863,8.6781,8.5593,8.5093,8.506,8.506,8.506,8.5099,8.5093,8.4824,8.4362,8.3824,8.3163,8.2432,8.2432,8.274,8.3118,8.3555,8.3791,8.3643,8.4561,8.4247,8.2747,8.2362,8.1939,8.117,8.0746,8.0554,8.0516,7.9862,7.9292,7.88,7.81,7.7254,7.6293,7.5918,7.5369,7.4533,7.4437,7.4668,7.5159,7.5582,7.6245,7.7408,7.7476,7.7784,7.8438,7.9306,7.9537,7.9161,7.9785,8.0669,8.1359,8.1792,8.207,8.2265,8.2304,8.2304,8.2304,8.2304,8.2304,8.2304,8.2304,8.2304,8.2304,8.2304,8.2304,8.2304,8.2656,8.2851,8.2851,8.2812,8.2812,8.2851,8.2851,8.2734,8.2383,8.2304,8.2304,8.2304,8.2304,8.2304,8.2304,8.2304,8.2304,8.2304,8.2304,8.2304,8.2304,8.2304,8.2304,8.2304,8.2304,8.2304,8.2304,8.2304,8.2304,10.0558,9.875,9.7634,9.6826,9.6326,9.6288,9.6288,9.6249,9.5635,9.5212,9.4866,9.371,9.271,9.1825,9.0748,9.0248,9.0094,8.8748,8.794,8.7704,8.6824,8.644,8.644,8.6478,8.6594,8.6786,8.6824,8.6401,8.5555,8.4439,8.3632,8.3163,8.3394,8.3734,8.401,8.4632,8.4714,8.445,8.5522,8.5401,8.4055,8.3362,8.2631,8.1862,8.1785,8.1785,8.1778,8.1554,8.117,8.0484,8.0292,7.9523,7.8108,7.8015,7.7583,7.6813,7.6677,7.6947,7.7592,7.763,7.7977,7.8746,7.8861,7.8938,7.9246,7.9815,8.0161,8.0277,8.097,8.1522,8.185,8.1967,8.2109,8.2265,8.2304,8.2304,8.2304,8.2304,8.2304,8.2304,8.2304,8.2304,8.2304,8.2304,8.2304,8.2304,8.2304,8.2304,8.2304,8.2344,8.2344,8.2304,8.2304,8.2304,8.2304,8.2304,8.2304,8.2304,8.2304,8.2304,8.2304,8.2304,8.2304,8.2304,8.2304,8.2304,8.2304,8.2304,8.2304,8.2304,8.2304,8.2304,8.2304,8.2304,8.2304,10.1096,9.8673,9.7057,9.6365,9.6288,9.6288,9.6288,9.6288,9.6211,9.5751,9.5135,9.4866,9.4366,9.3441,9.1902,9.1171,9.1056,9.0171,8.9325,8.8594,8.7704,8.7319,8.7319,8.7363,8.7714,8.8286,8.8325,8.794,8.7055,8.5632,8.4863,8.4714,8.4093,8.4093,8.4714,8.4907,8.5253,8.5786,8.6017,8.5709,8.4945,8.4786,8.4324,8.3593,8.3439,8.3356,8.331,8.2631,8.217,8.2163,8.14,8.0592,7.9792,7.9638,7.9254,7.8454,7.8369,7.8408,7.8454,7.8485,7.8861,7.9561,7.9746,8.0054,8.0631,8.0823,8.0977,8.1246,8.1285,8.1475,8.1694,8.1898,8.207,8.2265,8.2304,8.2304,8.2304,8.2304,8.2304,8.2304,8.2304,8.2304,8.2304,8.2304,8.2304,8.2304,8.2304,8.2304,8.2304,8.2304,8.2304,8.2304,8.2304,8.2304,8.2304,8.2304,8.2304,8.2304,8.2304,8.2304,8.2304,8.2304,8.2304,8.2304,8.2304,8.2304,8.2304,8.2304,8.2304,8.2304,8.2304,8.2304,8.2304,8.2304,8.2304,10.0289,9.7904,9.6788,9.6288,9.6288,9.6288,9.6288,9.6288,9.6288,9.6134,9.5751,9.5251,9.4789,9.4441,9.3326,9.2787,9.2672,9.1364,9.0287,8.9367,8.8017,8.7396,8.7396,8.7406,8.7872,8.8598,8.8675,8.7979,8.6632,8.594,8.5401,8.5016,8.5132,8.5401,8.5632,8.567,8.5824,8.6055,8.6094,8.5978,8.5747,8.567,8.5517,8.517,8.4132,8.3593,8.3587,8.2785,8.2324,8.2317,8.1516,8.0977,8.0708,8.06,8.0254,7.9492,7.9831,7.9939,7.9485,7.9831,8.0285,8.0592,8.0631,8.0708,8.1016,8.1093,8.1131,8.1208,8.1323,8.1439,8.1563,8.1789,8.207,8.2265,8.2304,8.2304,8.2304,8.2304,8.2304,8.2304,8.2304,8.2304,8.2304,8.2304,8.2304,8.2304,8.2304,8.2304,8.2304,8.2304,8.2304,8.2304,8.2304,8.2304,8.2304,8.2304,8.2304,8.2304,8.2304,8.2304,8.2304,8.2304,8.2304,8.2304,8.2304,8.2304,8.2304,8.2304,8.2304,8.2304,8.2304,8.2304,8.2304,8.2304,8.2304,9.9481,9.7865,9.6749,9.6288,9.6288,9.6288,9.6288,9.6288,9.6288,9.6288,9.6172,9.5674,9.5441,9.5326,9.4788,9.4557,9.4287,9.2518,9.0982,8.9867,8.8709,8.8205,8.8205,8.8214,8.8679,8.9332,8.9213,8.844,8.744,8.7055,8.6665,8.6236,8.6704,8.6973,8.6935,8.6935,8.6973,8.694,8.694,8.694,8.6935,8.694,8.694,8.6786,8.5824,8.4939,8.4439,8.3599,8.3131,8.3009,8.2124,8.1362,8.1131,8.1093,8.0862,8.0369,8.0746,8.0862,8.0369,8.0785,8.1093,8.1093,8.1093,8.1093,8.1093,8.1093,8.1093,8.1131,8.1208,8.1323,8.1456,8.1639,8.1922,8.2148,8.2265,8.2304,8.2304,8.2304,8.2304,8.2304,8.2304,8.2304,8.2304,8.2304,8.2304,8.2304,8.2304,8.2304,8.2304,8.2304,8.2304,8.2304,8.2304,8.2304,8.2304,8.2304,8.2304,8.2304,8.2304,8.2304,8.2304,8.2304,8.2304,8.2304,8.2304,8.2304,8.2304,8.2304,8.2304,8.2304,8.2304,8.2304,8.2304,8.2304,8.2304,9.8865,9.8442,9.7019,9.6326,9.6288,9.6288,9.6288,9.6288,9.6288,9.6288,9.6288,9.6249,9.6134,9.6211,9.6019,9.6172,9.5557,9.3595,9.1825,9.0329,9.0017,8.9932,8.9927,8.994,9.029,9.1018,9.0287,8.9863,8.9556,8.8825,8.8397,8.8546,8.8392,8.8392,8.8623,8.8435,8.8512,8.8479,8.844,8.8512,8.8661,8.8474,8.844,8.8517,8.8363,8.7594,8.617,8.5253,8.4786,8.4651,8.3233,8.197,8.1439,8.1246,8.1131,8.1208,8.1208,8.117,8.117,8.1246,8.1362,8.1246,8.117,8.1208,8.1131,8.1093,8.1093,8.1093,8.1131,8.1208,8.1323,8.1436,8.162,8.1953,8.2148,8.2265,8.2304,8.2304,8.2304,8.2304,8.2304,8.2304,8.2304,8.2304,8.2304,8.2304,8.2304,8.2304,8.2304,8.2304,8.2304,8.2304,8.2304,8.2304,8.2304,8.2304,8.2304,8.2304,8.2304,8.2304,8.2304,8.2304,8.2304,8.2304,8.2304,8.2304,8.2304,8.2304,8.2304,8.2304,8.2304,8.2304,8.2304,8.2304,8.2304,9.8981,9.7904,9.7365,9.6788,9.6326,9.6288,9.6288,9.6288,9.6288,9.6288,9.6288,9.6288,9.6288,9.6288,9.6288,9.598,9.5365,9.448,9.3595,9.2556,9.1937,9.163,9.1668,9.1707,9.1825,9.1899,9.121,9.0479,8.9902,8.9171,8.8671,8.8705,8.8743,8.8671,8.8829,8.8675,8.8675,8.8679,8.8679,8.8675,8.8705,8.8709,8.8709,8.8714,8.8709,8.8363,8.7863,8.6517,8.5747,8.5703,8.4099,8.3093,8.2778,8.224,8.2201,8.274,8.2817,8.2817,8.2817,8.2778,8.2477,8.2086,8.19,8.1631,8.117,8.117,8.117,8.1131,8.1093,8.1131,8.1208,8.1323,8.163,8.1953,8.2031,8.2148,8.2304,8.2304,8.2304,8.2304,8.2304,8.2304,8.2304,8.2304,8.2304,8.2304,8.2304,8.2304,8.2304,8.2304,8.2304,8.2304,8.2304,8.2304,8.2304,8.2304,8.2304,8.2304,8.2304,8.2304,8.2304,8.2304,8.2304,8.2304,8.2304,8.2304,8.2304,8.2304,8.2304,8.2304,8.2304,8.2304,8.2304,8.2304,8.2304,9.925,9.798,9.7634,9.7057,9.6326,9.6288,9.6288,9.6288,9.6288,9.6288,9.6288,9.6288,9.6288,9.6288,9.6288,9.6019,9.5518,9.548,9.5211,9.4518,9.3403,9.2979,9.2941,9.2941,9.2941,9.2864,9.2402,9.1864,9.1287,9.0556,9.0248,9.0475,8.994,9.0017,9.0367,8.9983,8.9867,9.0367,9.0021,8.979,8.9979,8.9787,8.9633,8.9636,8.9633,8.9633,8.9517,8.8248,8.7209,8.644,8.4983,8.4016,8.3618,8.3048,8.3048,8.3439,8.3593,8.3593,8.3593,8.3478,8.3401,8.2901,8.2785,8.2593,8.2131,8.2016,8.197,8.1593,8.19,8.1785,8.1323,8.1893,8.2186,8.2182,8.207,8.2109,8.2265,8.2304,8.2304,8.2304,8.2304,8.2304,8.2304,8.2304,8.2304,8.2304,8.2304,8.2304,8.2304,8.2304,8.2304,8.2304,8.2304,8.2304,8.2304,8.2304,8.2304,8.2304,8.2304,8.2304,8.2304,8.2304,8.2304,8.2304,8.2304,8.2304,8.2304,8.2304,8.2304,8.2304,8.2304,8.2304,8.2304,8.2304,8.2304,9.9673,9.8788,9.7942,9.7173,9.6442,9.6326,9.6288,9.6288,9.6288,9.6288,9.6288,9.6288,9.6288,9.6288,9.6288,9.6249,9.6249,9.6172,9.6134,9.5672,9.4711,9.4018,9.402,9.402,9.3906,9.3753,9.3674,9.3595,9.321,9.2633,9.2938,9.3054,9.1976,9.2053,9.2707,9.1979,9.2018,9.2826,9.1979,9.171,9.2322,9.1748,9.1325,9.1325,9.1248,9.1171,9.1018,9.0059,8.894,8.7512,8.5901,8.4747,8.4157,8.3817,8.3862,8.4138,8.3912,8.4105,8.3984,8.4247,8.4055,8.3945,8.3785,8.3625,8.3401,8.324,8.3009,8.2509,8.2978,8.2862,8.1977,8.2509,8.3102,8.2757,8.2596,8.25,8.2461,8.2539,8.2539,8.2461,8.2383,8.2304,8.2304,8.2304,8.2304,8.2304,8.2304,8.2304,8.2304,8.2304,8.2304,8.2304,8.2304,8.2304,8.2304,8.2304,8.2304,8.2304,8.2304,8.2304,8.2304,8.2304,8.2304,8.2304,8.2304,8.2304,8.2304,8.2304,8.2304,8.2304,8.2304,8.2304,8.2304,8.2304,8.2461,10.0481,9.9673,9.8827,9.7942,9.7134,9.6557,9.6288,9.6288,9.6288,9.6288,9.6288,9.6288,9.6288,9.6288,9.6288,9.6288,9.6288,9.6288,9.6288,9.6249,9.5903,9.5634,9.5597,9.5558,9.5212,9.4751,9.4634,9.4326,9.371,9.3518,9.3557,9.3669,9.3249,9.3207,9.3551,9.3249,9.3251,9.3595,9.3366,9.3059,9.3284,9.3169,9.3056,9.2979,9.2479,9.2172,9.1979,9.0675,8.9444,8.8363,8.6709,8.6363,8.6929,8.612,8.5665,8.6209,8.6824,8.6973,8.644,8.6319,8.6055,8.5445,8.4907,8.4253,8.3632,8.3593,8.351,8.3285,8.3516,8.3478,8.3099,8.3394,8.3587,8.3625,8.3764,8.3906,8.3945,8.3633,8.3281,8.3203,8.2695,8.2383,8.2304,8.2304,8.2304,8.2304,8.2304,8.2304,8.2304,8.2304,8.2304,8.2304,8.2304,8.2304,8.2304,8.2304,8.2304,8.2304,8.2304,8.2304,8.2304,8.2304,8.2304,8.2304,8.2304,8.2304,8.2304,8.2304,8.2304,8.2304,8.2304,8.2304,8.2304,8.2344,8.2656,10.0827,10.0058,9.9558,9.8634,9.7519,9.698,9.6634,9.6326,9.6288,9.6288,9.6288,9.6288,9.6288,9.6288,9.6288,9.6288,9.6288,9.6288,9.6288,9.6288,9.6249,9.6249,9.6249,9.6288,9.6019,9.5597,9.5518,9.5288,9.4826,9.4441,9.4441,9.4595,9.4057,9.4057,9.4785,9.402,9.4136,9.4518,9.4174,9.3828,9.4172,9.3864,9.371,9.3597,9.321,9.2979,9.2861,9.1982,9.0713,8.9021,8.7752,8.7671,8.8469,8.7814,8.7435,8.7979,8.8435,8.8435,8.8094,8.794,8.755,8.6786,8.6132,8.5555,8.4978,8.4901,8.5055,8.4247,8.4747,8.4786,8.433,8.4401,8.4901,8.5434,8.5441,8.5224,8.4879,8.4023,8.3672,8.3398,8.289,8.2304,8.2304,8.2304,8.2304,8.2304,8.2304,8.2304,8.2304,8.2304,8.2304,8.2304,8.2304,8.2304,8.2304,8.2304,8.2304,8.2304,8.2304,8.2304,8.2304,8.2304,8.2304,8.2304,8.2304,8.2304,8.2304,8.2304,8.2304,8.2304,8.2304,8.2304,8.2304,8.25,8.2851,10.0866,10.0212,10.0135,9.9211,9.7942,9.7673,9.7211,9.6557,9.6519,9.6403,9.6326,9.6288,9.6288,9.6288,9.6288,9.6288,9.6288,9.6288,9.6288,9.6288,9.6288,9.6288,9.6288,9.6288,9.6249,9.6172,9.6249,9.6172,9.5865,9.5365,9.5557,9.5634,9.4672,9.4864,9.5518,9.4789,9.4943,9.5634,9.4866,9.4635,9.4905,9.4595,9.4326,9.4289,9.3982,9.371,9.3669,9.3328,9.2292,8.9409,8.9098,8.9094,8.9162,8.909,8.8825,8.8906,8.9021,8.9133,8.8833,8.879,8.8556,8.7825,8.7627,8.7242,8.6632,8.6781,8.6478,8.5406,8.6555,8.644,8.5906,8.6017,8.6671,8.7214,8.7044,8.6227,8.5136,8.4258,8.3789,8.3672,8.3008,8.2539,8.2304,8.2304,8.2304,8.2304,8.2304,8.2304,8.2304,8.2304,8.2304,8.2304,8.2304,8.2304,8.2304,8.2304,8.2304,8.2304,8.2304,8.2304,8.2304,8.2304,8.2304,8.2304,8.2304,8.2304,8.2304,8.2304,8.2304,8.2304,8.2304,8.2304,8.2344,8.2695,8.3047,10.1212,10.0981,10.0366,9.9865,9.9442,9.8827,9.8019,9.7287,9.7248,9.6865,9.6403,9.6288,9.6288,9.6288,9.6288,9.6288,9.6288,9.6288,9.6288,9.6288,9.6288,9.6288,9.6288,9.6288,9.6288,9.6288,9.6288,9.6288,9.6172,9.6095,9.6095,9.6095,9.5903,9.5865,9.6057,9.5903,9.5865,9.6211,9.5826,9.5674,9.5826,9.5749,9.5557,9.552,9.502,9.4403,9.3826,9.3713,9.333,9.2523,9.1482,9.0979,9.1206,9.0398,8.9825,8.9867,9.029,9.0364,8.979,8.9636,8.956,8.9213,8.8671,8.8325,8.8171,8.7666,8.7325,8.6868,8.7175,8.7594,8.7632,8.7935,8.8171,8.8367,8.8329,8.7963,8.7086,8.6015,8.5156,8.457,8.3828,8.3086,8.2461,8.2422,8.2383,8.2344,8.2344,8.2344,8.2344,8.2344,8.2383,8.2422,8.2304,8.2304,8.2304,8.2304,8.2304,8.2304,8.2304,8.2304,8.2304,8.2304,8.2304,8.2304,8.2304,8.2304,8.2304,8.2304,8.2304,8.2304,8.2344,8.2422,8.2539,8.289,8.3398,10.1289,10.125,10.0827,10.0442,10.0058,9.9596,9.8904,9.8096,9.7672,9.7287,9.6826,9.648,9.6288,9.6288,9.6288,9.6288,9.6288,9.6288,9.6288,9.6288,9.6288,9.6288,9.6288,9.6288,9.6288,9.6288,9.6288,9.6288,9.6288,9.6288,9.6249,9.6288,9.6288,9.6211,9.6288,9.6288,9.6249,9.6288,9.6288,9.6288,9.6288,9.6288,9.6288,9.6249,9.5865,9.5365,9.5018,9.4943,9.4943,9.4597,9.371,9.2938,9.2938,9.2203,9.1591,9.1287,9.1479,9.1364,9.0752,9.0482,9.0329,8.9944,8.9483,8.9094,8.8902,8.8551,8.8397,8.8243,8.8325,8.8671,8.8709,8.9133,8.921,8.921,8.8986,8.8714,8.8197,8.7187,8.6094,8.5429,8.4648,8.3867,8.3281,8.2929,8.2539,8.2539,8.3047,8.3008,8.2539,8.2578,8.2539,8.2539,8.2383,8.2304,8.2304,8.2304,8.2304,8.2304,8.2304,8.2304,8.2304,8.2304,8.2304,8.2304,8.2304,8.2304,8.2304,8.2304,8.2304,8.2344,8.2383,8.2539,8.2851,8.3359,8.3906,10.1289,10.1289,10.1289,10.0904,10.0327,10.0289,9.9788,9.8942,9.8057,9.7634,9.7364,9.6634,9.6403,9.648,9.6557,9.6519,9.648,9.6326,9.6326,9.6596,9.6365,9.6442,9.648,9.6442,9.6288,9.6288,9.6288,9.6326,9.648,9.6403,9.6442,9.6442,9.6326,9.6288,9.6288,9.6288,9.6288,9.6288,9.6288,9.6288,9.6288,9.6288,9.6288,9.6288,9.6249,9.6134,9.6019,9.6057,9.6172,9.6249,9.5595,9.4901,9.4285,9.3705,9.3438,9.2672,9.2669,9.2361,9.1825,9.1479,9.1095,9.0329,9.0136,8.9829,8.9479,8.944,8.9321,8.9282,8.9282,8.9556,8.921,8.971,9.0059,9.0021,8.9448,8.9175,8.8938,8.8156,8.7304,8.5859,8.5234,8.457,8.3984,8.3554,8.3125,8.2851,8.3398,8.3554,8.3086,8.2851,8.289,8.2812,8.2656,8.3164,8.3281,8.3242,8.3125,8.3008,8.2851,8.2734,8.2695,8.2734,8.2773,8.2383,8.2304,8.2304,8.2304,8.2304,8.2344,8.2344,8.2695,8.3047,8.3437,8.3828,8.4531,10.1289,10.1289,10.1289,10.1212,10.1096,10.1096,10.0635,9.9827,9.8981,9.8135,9.7518,9.6711,9.6788,9.7173,9.7326,9.7326,9.7173,9.6903,9.6788,9.7133,9.6826,9.6749,9.7171,9.6711,9.6403,9.6288,9.6326,9.6596,9.6942,9.6711,9.6634,9.698,9.6596,9.6288,9.6288,9.6288,9.6288,9.6288,9.6288,9.6288,9.6288,9.6288,9.6288,9.6288,9.6288,9.6288,9.6288,9.6288,9.6288,9.6288,9.6134,9.598,9.548,9.4516,9.3864,9.3559,9.3518,9.3323,9.3015,9.2592,9.2284,9.1902,9.1441,9.1018,9.0633,9.0325,9.0094,8.9863,8.9902,9.0098,9.0748,9.0787,9.0902,9.0902,9.0713,9.0329,8.9855,8.9388,8.8439,8.664,8.5898,8.5273,8.4726,8.4297,8.4062,8.3906,8.4258,8.4023,8.3437,8.3281,8.332,8.3203,8.3008,8.375,8.4453,8.4453,8.4375,8.4219,8.4062,8.375,8.3672,8.3476,8.3281,8.3086,8.2578,8.2304,8.2304,8.2344,8.2656,8.2929,8.3281,8.3672,8.4492,8.5234,8.5742,10.1289,10.1289,10.1289,10.1289,10.1289,10.1289,10.1096,10.0634,9.9865,9.9212,9.8673,9.8019,9.7788,9.8096,9.8173,9.8173,9.8019,9.7827,9.7864,9.8018,9.7825,9.7787,9.8056,9.7325,9.698,9.6788,9.6596,9.6711,9.7326,9.6673,9.6788,9.7134,9.6673,9.6288,9.6288,9.6288,9.6326,9.6326,9.6326,9.6288,9.6288,9.6288,9.6288,9.6288,9.6288,9.6288,9.6288,9.6288,9.6288,9.6288,9.6288,9.6288,9.6019,9.5595,9.4789,9.4482,9.4364,9.4134,9.3826,9.3287,9.2979,9.2553,9.2364,9.2018,9.1518,9.1171,9.0979,9.0675,9.0559,9.0713,9.1095,9.1248,9.121,9.121,9.121,9.0825,9.021,9.0094,8.8958,8.7604,8.7383,8.664,8.5351,8.5078,8.5,8.5039,8.5156,8.4648,8.3945,8.4062,8.4219,8.3867,8.3828,8.4531,8.5273,8.5469,8.5703,8.5625,8.5469,8.5156,8.4726,8.457,8.4297,8.4023,8.3437,8.2851,8.2539,8.2695,8.3125,8.3594,8.4101,8.4726,8.5781,8.664,8.7148,10.1289,10.1289,10.1289,10.1289,10.1289,10.1289,10.1289,10.1135,10.0404,10.0058,9.9942,9.9173,9.8827,9.9019,9.9058,9.9058,9.9058,9.8904,9.8826,9.898,9.8749,9.8826,9.8788,9.8095,9.7403,9.7248,9.6634,9.6711,9.7211,9.6673,9.6826,9.7173,9.6788,9.6519,9.6596,9.6903,9.6711,9.6557,9.6519,9.648,9.6326,9.6288,9.6288,9.6288,9.6288,9.6288,9.6288,9.6288,9.6288,9.6288,9.6288,9.6288,9.6288,9.6288,9.598,9.5405,9.5251,9.4866,9.4445,9.4022,9.3751,9.3364,9.3441,9.2864,9.2287,9.2095,9.213,9.1595,9.1441,9.1441,9.1595,9.1672,9.1633,9.1518,9.1479,9.121,9.0594,9.0248,9.0017,8.9189,8.8948,8.7929,8.6484,8.5937,8.5898,8.5781,8.5898,8.5703,8.5117,8.5351,8.539,8.4844,8.4804,8.539,8.5976,8.6367,8.6797,8.7187,8.7109,8.6914,8.6289,8.5742,8.5508,8.5351,8.4492,8.3945,8.3515,8.3359,8.3984,8.457,8.5,8.582,8.6992,8.7851,8.8437,10.1289,10.1289,10.1289,10.1289,10.1289,10.1289,10.1289,10.1173,10.0404,10.0096,9.9904,9.925,9.9173,9.9635,9.9865,9.9904,9.9712,9.9404,9.9404,9.9788,9.9365,9.9442,9.9558,9.8212,9.775,9.7518,9.6711,9.6826,9.7057,9.6596,9.6788,9.7365,9.7442,9.7364,9.7441,9.7864,9.8056,9.7518,9.7364,9.7056,9.648,9.6365,9.6365,9.6288,9.6365,9.6403,9.648,9.6519,9.6519,9.6403,9.6365,9.6326,9.6288,9.6288,9.6288,9.6172,9.6134,9.6095,9.5712,9.5212,9.4751,9.4364,9.421,9.371,9.3287,9.2784,9.2553,9.2438,9.2361,9.2361,9.2476,9.2938,9.29,9.263,9.2326,9.1864,9.1287,9.1018,9.071,9.009,8.9639,8.8701,8.7461,8.7109,8.6797,8.6679,8.6562,8.6406,8.6172,8.625,8.6679,8.6211,8.6133,8.6679,8.7265,8.7578,8.789,8.8515,8.8515,8.8437,8.7929,8.7344,8.7265,8.6914,8.6054,8.5547,8.5469,8.5429,8.5351,8.5781,8.6562,8.7383,8.8281,8.9023,8.9687,10.1289,10.1289,10.1289,10.1289,10.1289,10.1289,10.1058,10.0596,10.025,9.9788,9.9365,9.8981,9.9058,9.9442,9.9827,10.0096,10.0096,10.0096,10.0366,10.0635,10.0366,10.0404,10.0289,9.9135,9.825,9.7864,9.7019,9.6403,9.6634,9.6711,9.6903,9.7942,9.7787,9.7825,9.8173,9.8634,9.8519,9.8327,9.8173,9.7787,9.721,9.6942,9.6749,9.6365,9.6749,9.6903,9.7057,9.7519,9.7403,9.7173,9.698,9.6711,9.6403,9.6288,9.6288,9.6288,9.6288,9.6249,9.6211,9.5942,9.552,9.5288,9.5018,9.5018,9.448,9.371,9.3207,9.3172,9.3169,9.3169,9.3172,9.348,9.3405,9.329,9.321,9.2672,9.221,9.2018,9.1672,9.0979,9.0283,8.9474,8.8866,8.8633,8.8359,8.8125,8.7969,8.7851,8.7148,8.6445,8.7031,8.7695,8.7773,8.8086,8.8672,8.914,8.9101,8.9492,8.9492,8.9453,8.9375,8.9062,8.8867,8.8867,8.8476,8.8047,8.7656,8.7383,8.7187,8.7695,8.8281,8.8984,8.9609,9.0195,9.0859,10.1289,10.1289,10.1289,10.1289,10.1289,10.1289,10.0981,10.0442,10.0173,9.975,9.9211,9.8904,9.8788,9.8904,9.9442,9.9827,10.0135,10.0712,10.1096,10.1212,10.1289,10.1212,10.0789,9.9788,9.8981,9.8786,9.7402,9.6673,9.6442,9.6634,9.7326,9.8442,9.8096,9.8403,9.8981,9.9404,9.9519,9.9173,9.8865,9.8403,9.7941,9.7864,9.748,9.7326,9.7479,9.7825,9.7941,9.8327,9.8288,9.7634,9.7403,9.7057,9.6442,9.6288,9.6288,9.6288,9.6288,9.6288,9.6288,9.6172,9.5942,9.5788,9.5749,9.5826,9.5328,9.4557,9.4018,9.4018,9.4018,9.4054,9.4057,9.4212,9.4328,9.4212,9.402,9.348,9.3018,9.2864,9.2479,9.1825,9.1248,9.0825,9.0314,9.0202,8.9961,8.9609,8.9414,8.9222,8.8398,8.7344,8.7851,8.875,8.8906,8.9219,8.9883,9.0351,9.039,9.0469,9.0508,9.0586,9.0625,9.0508,9.0312,9.0351,9.0429,9.0351,8.9883,8.9453,8.9062,8.9179,8.9453,9.0234,9.0898,9.1484,9.2187,10.1289,10.1289,10.1289,10.1289,10.1289,10.1289,10.1289,10.0827,10.0289,9.9942,9.9556,9.9134,9.8673,9.8788,9.8904,9.9365,10.0019,10.0135,10.0596,10.1058,10.1289,10.1289,10.0943,10.0366,9.9558,9.8826,9.7711,9.6942,9.6673,9.7057,9.7403,9.7634,9.8481,9.9249,9.9865,10.0442,10.0404,9.9981,9.9519,9.9018,9.875,9.8711,9.8596,9.8519,9.8634,9.8711,9.8711,9.8942,9.875,9.7904,9.775,9.7288,9.6711,9.6365,9.6326,9.6288,9.6288,9.6288,9.6288,9.6288,9.6249,9.6211,9.6249,9.6249,9.598,9.5366,9.4982,9.4903,9.4903,9.4903,9.5134,9.5441,9.5328,9.5135,9.4789,9.4403,9.398,9.371,9.3326,9.2669,9.2172,9.1864,9.1518,9.1347,9.0734,9.0319,8.9874,8.9624,8.9618,8.8906,8.9258,8.9765,8.9804,9.0234,9.0937,9.125,9.1328,9.1523,9.164,9.1875,9.207,9.1875,9.1406,9.1523,9.1523,9.1836,9.1914,9.1015,9.0351,9.0234,9.0547,9.1289,9.207,9.2695,9.3554,10.0866,10.1289,10.1289,10.1289,10.1289,10.1289,10.0711,9.9827,9.9442,9.8981,9.8518,9.8134,9.798,9.8134,9.8596,9.8596,9.8711,9.975,10.0212,10.0673,10.0981,10.125,10.1019,10.0557,9.9865,9.9288,9.8288,9.7827,9.7942,9.7788,9.8327,9.8865,9.9365,10.0019,10.075,10.1096,10.1019,10.0904,10.0442,10.0135,9.9635,9.9558,9.9327,9.8827,9.948,9.9557,9.9673,10.0135,9.975,9.9173,9.8596,9.7865,9.7096,9.6673,9.6442,9.6403,9.6403,9.6403,9.6288,9.6288,9.6288,9.6288,9.6288,9.6288,9.6288,9.5942,9.5865,9.5826,9.5749,9.5672,9.5865,9.6057,9.6057,9.5903,9.5595,9.5211,9.4903,9.4595,9.4134,9.3441,9.3249,9.3018,9.271,9.2392,9.1621,9.0928,9.0499,9.0149,9.0226,9.015,9.0335,9.0529,9.0586,9.0937,9.164,9.1953,9.2187,9.2344,9.2539,9.2539,9.25,9.2539,9.2226,9.2383,9.2539,9.2617,9.2461,9.1992,9.1719,9.1601,9.1797,9.2265,9.3086,9.3945,9.4687,10.0442,10.0943,10.1212,10.1289,10.1289,10.1058,10.0288,9.9211,9.8596,9.7943,9.7173,9.7366,9.7481,9.775,9.8365,9.8788,9.8865,9.9596,10.0173,10.0673,10.1096,10.1289,10.1096,10.0711,10.0211,9.9634,9.9058,9.8596,9.8134,9.825,9.8942,9.975,10.0365,10.0789,10.1058,10.1289,10.1289,10.1289,10.125,10.1096,10.048,10.0404,10.0288,9.975,10.0212,10.0442,10.0519,10.0789,10.0634,10.0019,9.9442,9.875,9.8056,9.7402,9.6942,9.6826,9.6826,9.6826,9.6442,9.6288,9.6288,9.6288,9.6288,9.6288,9.6288,9.6288,9.6172,9.6211,9.6249,9.6288,9.6288,9.6288,9.6288,9.6095,9.6095,9.5788,9.5634,9.5365,9.4826,9.4287,9.4134,9.3941,9.3441,9.3056,9.2556,9.1941,9.1668,9.1385,9.1339,9.1212,9.0848,9.1066,9.125,9.1679,9.2187,9.2148,9.2109,9.207,9.2265,9.2344,9.2383,9.2578,9.2969,9.3164,9.3242,9.332,9.3359,9.3398,9.3203,9.2969,9.3281,9.3633,9.4453,9.5273,9.5625,10.0058,10.0212,10.0904,10.1212,10.1058,10.0442,10.0058,9.9596,9.8212,9.7173,9.6749,9.7251,9.7597,9.7827,9.8634,9.9096,9.9442,9.9865,10.0366,10.0866,10.1135,10.125,10.1289,10.1019,10.0442,9.9404,9.9058,9.8711,9.7942,9.8827,9.9673,10.0289,10.0789,10.1135,10.1289,10.1289,10.1289,10.1289,10.1289,10.125,10.1173,10.1096,10.0981,10.0943,10.0981,10.1019,10.1096,10.1135,10.0942,10.0404,10.0058,9.948,9.8826,9.8557,9.8095,9.7557,9.8172,9.7787,9.6557,9.6365,9.6365,9.6326,9.6288,9.6288,9.6288,9.6288,9.6288,9.6288,9.6288,9.6288,9.6288,9.6288,9.6288,9.6288,9.6288,9.6249,9.6057,9.598,9.5403,9.5134,9.498,9.4711,9.4134,9.3672,9.3326,9.2979,9.2784,9.2623,9.2486,9.2273,9.1881,9.2043,9.2276,9.248,9.2749,9.2257,9.207,9.1992,9.2148,9.2422,9.2734,9.3086,9.3437,9.3828,9.4023,9.414,9.4609,9.5078,9.4726,9.4414,9.4726,9.5195,9.5937,9.6445,9.6679,9.8711,9.925,9.9519,9.9635,9.9673,9.9981,9.9788,9.9019,9.7557,9.6826,9.725,9.7981,9.8366,9.8634,9.9096,9.9558,9.9404,9.9981,10.0404,10.0558,10.1019,10.125,10.1289,10.1173,10.0673,9.9827,9.9519,9.9558,9.9327,9.9635,10.0096,10.0712,10.1096,10.125,10.1289,10.1289,10.1289,10.1289,10.1289,10.1289,10.1289,10.1289,10.1289,10.1289,10.1289,10.1289,10.1289,10.1289,10.1096,10.075,10.0519,10.0019,9.9558,9.9327,9.875,9.8404,9.875,9.8324,9.7402,9.7057,9.6826,9.6557,9.6288,9.6288,9.6288,9.6288,9.6288,9.6288,9.6288,9.6288,9.6288,9.6288,9.6288,9.6288,9.6288,9.6288,9.6211,9.6211,9.6019,9.5942,9.5826,9.5365,9.4828,9.4749,9.448,9.4134,9.3903,9.3518,9.3316,9.3316,9.3109,9.3302,9.3475,9.3493,9.3379,9.2858,9.263,9.2695,9.2773,9.2929,9.3242,9.3609,9.4062,9.4453,9.4726,9.5,9.5429,9.582,9.5898,9.5898,9.6015,9.6054,9.6406,9.6914,9.7304,9.7827,9.8365,9.8673,9.8788,9.8865,9.9404,9.9135,9.8173,9.6942,9.6596,9.7134,9.7942,9.8519,9.8904,9.9596,10.0212,9.9712,10.0212,10.0519,10.0596,10.1019,10.125,10.1289,10.125,10.0789,10.0173,9.9942,9.9942,9.9942,9.9788,10.0289,10.1019,10.1289,10.1289,10.1289,10.1289,10.1289,10.1289,10.1289,10.1289,10.1289,10.1289,10.1289,10.1289,10.1289,10.1289,10.1289,10.1289,10.1289,10.1135,10.0866,10.0519,10.0289,10.0019,9.9481,9.9365,9.8865,9.8673,9.8481,9.8019,9.7634,9.6903,9.6519,9.6288,9.6288,9.6288,9.6288,9.6288,9.6326,9.6519,9.6673,9.6634,9.6711,9.6749,9.6673,9.6673,9.6365,9.6365,9.6288,9.6288,9.6249,9.5826,9.5558,9.5788,9.5749,9.5328,9.4982,9.4559,9.4134,9.4057,9.398,9.4093,9.409,9.3932,9.374,9.3477,9.3326,9.3361,9.34,9.3477,9.382,9.4201,9.4629,9.5156,9.5664,9.6054,9.625,9.6484,9.664,9.6758,9.6875,9.6914,9.6914,9.7226,9.7656,9.748,9.7596,9.8365,9.8634,9.8673,9.8634,9.8173,9.7441,9.6634,9.6326,9.6403,9.7287,9.7979,9.8788,9.9673,10.0366,10.0866,10.1058,10.1135,10.1173,10.125,10.1289,10.1289,10.125,10.0827,10.0596,10.0442,10.025,10.0212,10.0558,10.1019,10.125,10.1289,10.1289,10.1289,10.1289,10.1289,10.1289,10.1289,10.1289,10.1289,10.1289,10.1289,10.1289,10.1289,10.1289,10.1289,10.1289,10.1289,10.125,10.1212,10.1212,10.125,10.1289,10.075,10.0173,9.9404,9.9558,9.9558,9.9058,9.8442,9.7634,9.698,9.6557,9.6288,9.6326,9.6403,9.6519,9.6634,9.7094,9.7364,9.7442,9.7557,9.748,9.7402,9.7057,9.6557,9.6403,9.6326,9.6288,9.6288,9.6134,9.6057,9.6249,9.6211,9.6057,9.5635,9.548,9.5057,9.4595,9.4518,9.448,9.4364,9.4134,9.4057,9.4136,9.3982,9.4054,9.3939,9.4016,9.4403,9.4789,9.5277,9.5872,9.6724,9.707,9.6914,9.7109,9.7422,9.75,9.7383,9.7383,9.7304,9.7383,9.7695,9.6673,9.6673,9.6903,9.7019,9.7019,9.7057,9.6865,9.6596,9.6365,9.6288,9.6365,9.7171,9.7673,9.798,9.9404,10.0135,10.0596,10.0981,10.1212,10.1289,10.1289,10.1289,10.1289,10.125,10.075,10.0442,10.0366,10.0519,10.0366,10.0943,10.1289,10.1289,10.1289,10.1289,10.1289,10.1289,10.1289,10.1289,10.1289,10.1289,10.1289,10.1289,10.1289,10.1289,10.1404,10.1404,10.1327,10.1366,10.1366,10.1327,10.1327,10.1289,10.1289,10.1289,10.1058,10.1019,10.0673,10.0519,10.0134,9.9865,9.9365,9.8635,9.8173,9.7288,9.6749,9.6519,9.6711,9.698,9.7211,9.7634,9.8134,9.8404,9.8442,9.8404,9.8096,9.748,9.6942,9.6519,9.6403,9.6288,9.6288,9.6288,9.6288,9.6288,9.6249,9.6288,9.6211,9.6057,9.5865,9.5365,9.5134,9.5095,9.5095,9.498,9.5057,9.5135,9.4866,9.4672,9.4634,9.467,9.4941,9.5366,9.5942,9.6413,9.6836,9.7148,9.7344,9.7461,9.7461,9.7617,9.7578,9.7617,9.7695,9.7695,9.7695,9.6288,9.6288,9.6288,9.6288,9.6288,9.6288,9.6288,9.6288,9.6288,9.6288,9.6403,9.7173,9.7519,9.7827,9.925,10.0135,10.0173,10.0943,10.1289,10.1289,10.1289,10.1289,10.1289,10.1289,10.1058,10.0673,10.0558,10.075,10.0673,10.0904,10.1289,10.1289,10.1289,10.1289,10.1289,10.1289,10.1289,10.1289,10.1289,10.1289,10.1289,10.1289,10.1289,10.1404,10.1558,10.1635,10.1443,10.1558,10.1673,10.1404,10.1289,10.1289,10.1289,10.1289,10.1289,10.125,10.1173,10.0981,10.0711,10.0635,10.0057,9.9596,9.9288,9.8596,9.7942,9.7595,9.7749,9.7941,9.8057,9.8327,9.8865,9.9288,9.9327,9.9288,9.8596,9.7904,9.7326,9.6711,9.648,9.6326,9.6288,9.6288,9.6288,9.6288,9.6288,9.6288,9.6288,9.6249,9.6172,9.598,9.5865,9.5826,9.5942,9.598,9.6019,9.5865,9.5634,9.5441,9.5518,9.5557,9.5597,9.5751,9.6172,9.6448,9.6695,9.6953,9.7187,9.7226,9.7265,9.7422,9.7539,9.7539,9.7578,9.7656,9.7656,9.6288,9.6288,9.6288,9.6288,9.6288,9.6288,9.6288,9.6326,9.6403,9.6442,9.6596,9.7173,9.7558,9.8057,9.9365,10.0058,10.0327,10.0904,10.1289,10.1289,10.1289,10.1289,10.1289,10.1289,10.1173,10.125,10.1212,10.1058,10.1212,10.1289,10.1289,10.1289,10.1289,10.1289,10.1289,10.1558,10.1558,10.1327,10.1481,10.1558,10.1366,10.1289,10.1366,10.1597,10.1981,10.2327,10.1981,10.1981,10.2251,10.1712,10.1327,10.1327,10.1289,10.1289,10.1289,10.1289,10.1289,10.125,10.1135,10.1096,10.0827,10.0404,10.0173,9.975,9.925,9.8441,9.8403,9.8788,9.8942,9.9365,9.9865,10.0096,10.0173,9.9981,9.9442,9.8865,9.8365,9.7596,9.6826,9.6634,9.6403,9.6365,9.6288,9.6288,9.6288,9.6288,9.6288,9.6288,9.6288,9.6288,9.6288,9.6288,9.6288,9.6288,9.6249,9.6134,9.6211,9.6172,9.6172,9.6134,9.598,9.6134,9.6326,9.6459,9.6568,9.6724,9.6875,9.6938,9.7028,9.7109,9.7226,9.7344,9.7422,9.7539,9.7656,9.6288,9.6288,9.6288,9.6288,9.6288,9.6288,9.6288,9.6365,9.6942,9.7173,9.725,9.7481,9.7866,9.8557,9.9596,10.0173,10.0289,10.0904,10.1212,10.1289,10.1289,10.1289,10.1289,10.1289,10.1289,10.1289,10.1289,10.1289,10.1289,10.1289,10.1289,10.1289,10.1289,10.1289,10.1366,10.1712,10.1943,10.1597,10.1981,10.1943,10.1635,10.152,10.152,10.2097,10.2595,10.302,10.2828,10.2751,10.2674,10.2251,10.1597,10.1366,10.1289,10.1289,10.1289,10.1289,10.1289,10.1289,10.1289,10.1289,10.1135,10.1096,10.0943,10.0904,10.0404,9.9404,9.9095,9.9519,9.9942,10.0404,10.0673,10.0827,10.0865,10.0557,10.0211,9.9788,9.9327,9.8288,9.7287,9.6903,9.6596,9.6442,9.6365,9.6326,9.6288,9.6288,9.6288,9.6288,9.6288,9.6288,9.6288,9.6288,9.6288,9.6288,9.6288,9.6288,9.6288,9.6288,9.6249,9.6249,9.6288,9.6326,9.6326,9.6326,9.6399,9.6557,9.6634,9.6669,9.6753,9.6858,9.697,9.7104,9.7252,9.7383,9.7539,9.6288,9.6288,9.6288,9.6288,9.6288,9.6288,9.6288,9.6403,9.6749,9.7403,9.8135,9.8481,9.875,9.9135,10.0058,10.0327,10.0327,10.0943,10.1212,10.1289,10.1289,10.1289,10.1289,10.1289,10.1289,10.1289,10.1289,10.1289,10.1289,10.1289,10.1289,10.1289,10.1289,10.1327,10.1443,10.202,10.2404,10.198,10.2712,10.2789,10.2289,10.2212,10.2366,10.2943,10.3558,10.3828,10.3712,10.3558,10.3289,10.2597,10.175,10.1366,10.1289,10.1289,10.1289,10.1289,10.1289,10.1289,10.1289,10.1289,10.1289,10.1289,10.1289,10.1096,10.1096,10.025,10.0212,10.0596,10.0635,10.0981,10.1019,10.1135,10.1173,10.0981,10.0365,9.9788,9.9096,9.8173,9.7557,9.7287,9.698,9.6788,9.6749,9.6826,9.6711,9.6288,9.6288,9.6365,9.6365,9.6403,9.6365,9.6288,9.6288,9.6288,9.6288,9.6288,9.6288,9.6288,9.6288,9.6288,9.6288,9.6288,9.6288,9.6288,9.6326,9.6365,9.6442,9.648,9.648,9.6552,9.6699,9.6854,9.7091,9.7401,9.7734,9.6288,9.6288,9.6288,9.6288,9.6288,9.6288,9.6288,9.6326,9.6442,9.725,9.8558,9.9519,9.9558,9.9904,10.0289,10.0404,10.0635,10.1058,10.125,10.1289,10.1289,10.1289,10.1289,10.1289,10.1289,10.1289,10.1289,10.1289,10.1289,10.1289,10.1289,10.1289,10.1289,10.1289,10.1558,10.2174,10.2712,10.2786,10.3288,10.3905,10.3675,10.329,10.3443,10.402,10.4597,10.4713,10.4597,10.4366,10.4097,10.3289,10.2212,10.1597,10.1327,10.1289,10.1289,10.1289,10.1289,10.1289,10.1289,10.1289,10.1289,10.1289,10.1289,10.1289,10.1289,10.125,10.1212,10.1212,10.125,10.125,10.1289,10.1289,10.1289,10.1096,10.0442,9.9942,9.9096,9.8404,9.8134,9.7902,9.7596,9.7365,9.7326,9.7403,9.721,9.6711,9.6557,9.6519,9.6557,9.6634,9.6673,9.6442,9.6288,9.6288,9.6288,9.6288,9.6288,9.6288,9.6288,9.6288,9.6288,9.6288,9.6288,9.6288,9.6326,9.6326,9.6326,9.6365,9.6365,9.6442,9.6476,9.6699,9.724,9.7577,9.8049,9.6288,9.6288,9.6288,9.6288,9.6288,9.6288,9.6288,9.6403,9.6942,9.748,9.8057,9.9404,10.0211,10.075,10.0289,10.0404,10.0981,10.125,10.125,10.1289,10.1289,10.1289,10.1289,10.1289,10.1289,10.1289,10.1289,10.1289,10.1289,10.1289,10.1289,10.1289,10.1289,10.1366,10.1558,10.2366,10.3328,10.3403,10.4054,10.4866,10.4676,10.4366,10.4289,10.4636,10.4982,10.5443,10.5636,10.5328,10.502,10.4287,10.3134,10.2135,10.1635,10.1366,10.1289,10.1289,10.1289,10.1289,10.1289,10.1289,10.1289,10.1289,10.1289,10.1289,10.1289,10.1289,10.125,10.125,10.1289,10.1289,10.1289,10.1289,10.125,10.0789,10.0212,10.0173,9.9788,9.9558,9.9404,9.9096,9.8788,9.8481,9.825,9.8365,9.8364,9.8056,9.7942,9.7827,9.7288,9.7173,9.7019,9.6826,9.6557,9.6288,9.6326,9.6288,9.6288,9.6288,9.6288,9.6288,9.6288,9.6288,9.6288,9.6288,9.6288,9.6288,9.6288,9.6403,9.648,9.6557,9.6403,9.6592,9.7241,9.7903,9.8451]},{"header":{"parameterUnit":"m.s-1","parameterCategory":1,"la1":31.0,"la2":29.5877,"lo1":-88.7671,"lo2":-86.6584,"dy":0.0162,"dx":0.0185,"nx":115,"ny":88,"refTime":"2023-03-12T06:00:00:Z","depth":0,"parameterNumber":3,"parameterNumberName":"V-component_of_WINDS"},"data":[0.0,0.0,0.0,0.0,0.0,0.0,0.0,0.0,0.0,0.0,0.0,0.0,0.0,0.0,0.0,0.0,0.0,0.0,0.0,0.0,0.0,0.0,0.0,0.0,0.0,0.0,0.0,0.0,0.0,0.0,0.0,0.0,0.0,0.0,0.0,0.0,0.0,0.0,0.0,0.0,0.0,0.0,0.0,0.0,0.0,0.0,0.0,0.0,0.0,0.0,0.0,0.0,0.0,0.0,0.0,0.0,0.0,0.0,0.0,0.0,0.0,0.0,0.0,0.0,0.0,0.0,0.0,0.0,0.0,0.0,0.0,0.0,0.0,0.0,0.0,0.0,0.0,0.0,0.0,0.0,0.0,0.0,0.0,0.0,0.0,0.0,0.0,0.0,0.0,0.0,0.0,0.0,0.0,0.0,0.0,0.0,0.0,0.0,0.0,0.0,0.0,0.0,0.0,0.0,0.0,0.0,0.0,0.0,0.0,0.0,0.0,0.0,0.0,0.0,0.0,0.0,0.0,0.0,0.0,0.0,0.0,0.0,0.0,0.0,0.0,0.0,0.0,0.0,0.0,0.0,0.0,0.0,0.0,0.0,0.0,0.0,0.0,0.0,0.0,0.0,0.0,0.0,0.0,0.0,0.0,0.0,0.0,0.0,0.0,0.0,0.0,0.0,0.0,0.0,0.0,0.0,0.0,0.0,0.0,0.0,0.0,0.0,0.0,0.0,0.0,0.0,0.0,0.0,0.0,0.0,0.0,0.0,0.0,0.0,0.0,0.0,0.0,0.0,0.0,0.0,0.0,0.0,0.0,0.0,0.0,0.0,0.0,0.0,0.0,0.0,0.0,0.0,0.0,0.0,0.0,0.0,0.0,0.0,0.0,0.0,0.0,0.0,0.0,0.0,0.0,0.0,0.0,0.0,0.0,0.0,0.0,0.0,0.0,0.0,0.0,0.0,0.0,0.0,0.0,0.0,0.0,0.0,0.0,0.0,0.0,0.0,0.0,0.0,0.0,0.0,0.0,0.0,0.0,0.0,0.0,0.0,0.0,0.0,0.0,0.0,0.0,0.0,0.0,0.0,0.0,0.0,0.0,0.0,0.0,0.0,0.0,0.0,0.0,0.0,0.0,0.0,0.0,0.0,0.0,0.0,0.0,0.0,0.0,0.0,0.0,0.0,0.0,0.0,0.0,0.0,0.0,0.0,0.0,0.0,0.0,0.0,0.0,0.0,0.0,0.0,0.0,0.0,0.0,0.0,0.0,0.0,0.0,0.0,0.0,0.0,0.0,0.0,0.0,0.0,0.0,0.0,0.0,0.0,0.0,0.0,0.0,0.0,0.0,0.0,0.0,0.0,0.0,0.0,0.0,0.0,0.0,0.0,0.0,0.0,0.0,0.0,0.0,0.0,0.0,0.0,0.0,0.0,0.0,0.0,0.0,0.0,0.0,0.0,0.0,0.0,0.0,0.0,0.0,0.0,0.0,0.0,0.0,0.0,0.0,0.0,0.0,0.0,0.0,0.0,0.0,0.0,0.0,0.0,0.0,0.0,0.0,0.0,0.0,0.0,0.0,0.0,0.0,0.0,0.0,0.0,0.0,0.0,0.0,0.0,0.0,0.0,0.0,0.0,0.0,0.0,0.0,0.0,0.0,0.0,0.0,0.0,0.0,0.0,0.0,0.0,0.0,0.0,0.0,0.0,0.0,0.0,0.0,0.0,0.0,0.0,0.0,0.0,0.0,0.0,0.0,0.0,0.0,0.0,0.0,0.0,0.0,0.0,0.0,0.0,0.0,0.0,0.0,0.0,0.0,0.0,0.0,0.0,0.0,0.0,0.0,0.0,0.0,0.0,0.0,0.0,0.0,0.0,0.0,0.0,0.0,0.0,0.0,0.0,0.0,0.0,0.0,0.0,0.0,0.0,0.0,0.0,0.0,0.0,0.0,0.0,0.0,0.0,0.0,0.0,0.0,0.0,0.0,0.0,0.0,0.0,0.0,0.0,0.0,0.0,0.0,0.0,0.0,0.0,0.0,0.0,0.0,0.0,0.0,0.0,0.0,0.0,0.0,0.0,0.0,0.0,0.0,0.0,0.0,0.0,0.0,0.0,0.0,0.0,0.0,0.0,0.0,0.0,0.0,0.0,0.0,0.0,0.0,0.0,0.0,0.0,0.0,0.0,0.0,0.0,0.0,0.0,0.0,0.0,0.0,0.0,0.0,0.0,0.0,0.0,0.0,0.0,0.0,0.0,0.0,0.0,0.0,0.0,0.0,0.0,0.0,0.0,0.0,0.0,0.0,0.0,0.0,0.0,0.0,0.0,0.0,0.0,0.0,0.0,0.0,0.0,0.0,0.0,0.0,0.0,0.0,0.0,0.0,0.0,0.0,0.0,0.0,0.0,0.0,0.0,0.0,0.0,0.0,0.0,0.0,0.0,0.0,0.0,0.0,0.0,0.0,0.0,0.0,0.0,0.0,0.0,0.0,0.0,0.0,0.0,0.0,0.0,0.0,0.0,0.0,0.0,0.0,0.0,0.0,0.0,0.0,0.0,0.0,0.0,0.0,0.0,0.0,0.0,0.0,0.0,0.0,0.0,0.0,0.0,0.0,0.0,0.0,0.0,0.0,0.0,0.0,0.0,0.0,0.0,0.0,0.0,0.0,0.0,0.0,0.0,0.0,0.0,0.0,0.0,0.0,0.0,0.0,0.0,0.0,0.0,0.0,0.0,0.0,0.0,0.0,0.0,0.0,0.0,0.0,0.0,0.0,0.0,0.0,0.0,0.0,0.0,0.0,0.0,0.0,0.0,0.0,0.0,0.0,0.0,0.0,0.0,0.0,0.0,0.0,0.0,0.0,0.0,0.0,0.0,0.0,0.0,0.0,0.0,0.0,0.0,0.0,0.0,0.0,0.0,0.0,0.0,0.0,0.0,0.0,0.0,0.0,0.0,0.0,0.0,0.0,0.0,0.0,0.0,0.0,0.0,0.0,0.0,0.0,0.0,0.0,0.0,0.0,0.0,0.0,0.0,0.0,0.0,0.0,0.0,0.0,0.0,0.0,0.0,0.0,0.0,0.0,0.0,0.0,0.0,0.0,0.0,0.0,0.0,0.0,0.0,0.0,0.0,0.0,0.0,0.0,0.0,0.0,0.0,0.0,0.0,0.0,0.0,0.0,0.0,0.0,0.0,0.0,0.0,0.0,0.0,0.0,0.0,0.0,0.0,0.0,0.0,0.0,0.0,0.0,0.0,0.0,0.0,0.0,0.0,0.0,0.0,0.0,0.0,0.0,0.0,0.0,0.0,0.0,0.0,0.0,0.0,0.0,0.0,0.0,0.0,0.0,0.0,0.0,0.0,0.0,0.0,0.0,0.0,0.0,0.0,0.0,0.0,0.0,0.0,0.0,0.0,0.0,0.0,0.0,0.0,0.0,0.0,0.0,0.0,0.0,0.0,0.0,0.0,0.0,0.0,0.0,0.0,0.0,0.0,0.0,0.0,0.0,0.0,0.0,0.0,0.0,0.0,0.0,0.0,0.0,0.0,0.0,0.0,0.0,0.0,0.0,0.0,0.0,0.0,0.0,0.0,0.0,0.0,0.0,0.0,0.0,0.0,0.0,0.0,0.0,0.0,0.0,0.0,0.0,0.0,0.0,0.0,0.0,0.0,0.0,0.0,0.0,0.0,0.0,0.0,0.0,0.0,0.0,0.0,0.0,0.0,0.0,0.0,0.0,0.0,0.0,0.0,0.0,0.0,0.0,0.0,0.0,0.0,0.0,0.0,0.0,0.0,0.0,0.0,0.0,0.0,0.0,0.0,0.0,0.0,0.0,0.0,0.0,0.0,0.0,0.0,0.0,0.0,0.0,0.0,0.0,0.0,0.0,0.0,0.0,0.0,0.0,0.0,0.0,0.0,0.0,0.0,0.0,0.0,0.0,0.0,0.0,0.0,0.0,0.0,0.0,0.0,0.0,0.0,0.0,0.0,0.0,0.0,0.0,0.0,0.0,0.0,0.0,0.0,0.0,0.0,0.0,0.0,0.0,0.0,0.0,0.0,0.0,0.0,0.0,0.0,0.0,0.0,0.0,0.0,0.0,0.0,0.0,0.0,0.0,0.0,0.0,0.0,0.0,0.0,0.0,0.0,0.0,0.0,0.0,0.0,0.0,0.0,0.0,0.0,0.0,0.0,0.0,0.0,0.0,0.0,0.0,0.0,0.0,0.0,0.0,0.0,0.0,0.0,0.0,0.0,0.0,0.0,0.0,0.0,0.0,0.0,0.0,0.0,0.0,0.0,0.0,0.0,0.0,0.0,0.0,0.0,0.0,0.0,0.0,0.0,0.0,0.0,0.0,0.0,0.0,0.0,0.0,0.0,0.0,0.0,0.0,0.0,0.0,0.0,0.0,0.0,0.0,0.0,0.0,0.0,0.0,0.0,0.0,0.0,0.0,0.0,0.0,0.0,0.0,0.0,0.0,0.0,0.0,0.0,0.0,0.0,0.0,0.0,0.0,0.0,0.0,0.0,0.0,0.0,0.0,0.0,0.0,0.0,0.0,0.0,0.0,0.0,0.0,0.0,0.0,0.0,0.0,0.0,0.0,0.0,0.0,0.0,0.0,0.0,0.0,0.0,0.0,0.0,0.0,0.0,0.0,0.0,0.0,0.0,0.0,0.0,0.0,0.0,0.0,0.0,0.0,0.0,0.0,0.0,0.0,0.0,0.0,0.0,0.0,0.0,0.0,0.0,0.0,0.0,0.0,0.0,0.0,0.0,0.0,0.0,0.0,0.0,0.0,0.0,0.0,0.0,0.0,0.0,0.0,0.0,0.0,0.0,0.0,0.0,0.0,0.0,0.0,0.0,0.0,0.0,0.0,0.0,0.0,0.0,0.0,0.0,0.0,0.0,0.0,0.0,0.0,0.0,0.0,0.0,0.0,0.0,0.0,0.0,0.0,0.0,0.0,0.0,0.0,0.0,0.0,0.0,0.0,0.0,0.0,0.0,0.0,0.0,0.0,0.0,0.0,0.0,0.0,0.0,0.0,0.0,0.0,0.0,0.0,0.0,0.0,0.0,0.0,0.0,0.0,0.0,0.0,0.0,0.0,0.0,0.0,0.0,0.0,0.0,0.0,0.0,0.0,0.0,0.0,0.0,0.0,0.0,0.0,0.0,0.0,0.0,0.0,0.0,0.0,0.0,0.0,0.0,0.0,0.0,0.0,0.0,0.0,0.0,0.0,0.0,0.0,0.0,0.0,0.0,0.0,0.0,0.0,0.0,0.0,0.0,0.0,0.0,0.0,0.0,0.0,0.0,0.0,0.0,0.0,0.0,0.0,0.0,0.0,0.0,0.0,0.0,0.0,0.0,0.0,0.0,0.0,0.0,0.0,0.0,0.0,0.0,0.0,0.0,0.0,0.0,0.0,0.0,0.0,0.0,0.0,0.0,0.0,0.0,0.0,0.0,0.0,0.0,0.0,0.0,0.0,0.0,0.0,0.0,0.0,0.0,0.0,0.0,0.0,0.0,0.0,0.0,0.0,0.0,0.0,0.0,0.0,0.0,0.0,0.0,0.0,0.0,0.0,0.0,0.0,0.0,0.0,0.0,0.0,0.0,0.0,0.0,0.0,0.0,0.0,0.0,0.0,0.0,0.0,0.0,0.0,0.0,0.0,0.0,0.0,0.0,0.0,0.0,0.0,0.0,0.0,0.0,0.0,0.0,0.0,0.0,0.0,0.0,0.0,0.0,0.0,0.0,0.0,0.0,0.0,0.0,0.0,0.0,0.0,0.0,0.0,0.0,0.0,0.0,0.0,0.0,0.0,0.0,0.0,0.0,0.0,0.0,0.0,0.0,0.0,0.0,0.0,0.0,0.0,0.0,0.0,0.0,0.0,0.0,0.0,0.0,0.0,0.0,0.0,0.0,0.0,0.0,0.0,0.0,0.0,0.0,0.0,0.0,0.0,0.0,0.0,0.0,0.0,0.0,0.0,0.0,0.0,0.0,0.0,0.0,0.0,0.0,0.0,0.0,0.0,0.0,0.0,0.0,0.0,0.0,0.0,0.0,0.0,0.0,0.0,0.0,0.0,0.0,0.0,0.0,0.0,0.0,0.0,0.0,0.0,0.0,0.0,0.0,0.0,0.0,0.0,0.0,0.0,0.0,0.0,0.0,0.0,0.0,0.0,0.0,0.0,0.0,0.0,0.0,0.0,0.0,0.0,0.0,0.0,0.0,0.0,0.0,0.0,0.0,0.0,0.0,0.0,0.0,0.0,0.0,0.0,0.0,0.0,0.0,0.0,0.0,0.0,0.0,0.0,0.0,0.0,0.0,0.0,0.0,0.0,0.0,0.0,0.0,0.0,0.0,0.0,0.0,0.0,0.0,0.0,0.0,0.0,0.0,0.0,0.0,0.0,0.0,0.0,0.0,0.0,0.0,0.0,0.0,0.0,0.0,0.0,0.0,0.0,0.0,0.0,0.0,0.0,0.0,0.0,0.0,0.0,0.0,0.0,0.0,0.0,0.0,0.0,0.0,0.0,0.0,0.0,0.0,0.0,0.0,0.0,0.0,0.0,0.0,0.0,0.0,0.0,0.0,0.0,0.0,0.0,0.0,0.0,0.0,0.0,0.0,0.0,0.0,0.0,0.0,0.0,0.0,0.0,0.0,0.0,0.0,0.0,0.0,0.0,0.0,0.0,0.0,0.0,0.0,0.0,0.0,0.0,0.0,0.0,0.0,0.0,0.0,0.0,0.0,0.0,0.0,0.0,0.0,0.0,0.0,0.0,0.0,0.0,0.0,0.0,0.0,0.0,0.0,0.0,0.0,0.0,0.0,0.0,0.0,0.0,0.0,0.0,0.0,0.0,0.0,0.0,0.0,0.0,0.0,0.0,0.0,0.0,0.0,0.0,0.0,0.0,0.0,0.0,0.0,0.0,0.0,0.0,0.0,0.0,0.0,0.0,0.0,0.0,0.0,0.0,0.0,0.0,0.0,0.0,0.0,0.0,0.0,0.0,0.0,0.0,0.0,0.0,0.0,0.0,0.0,0.0,0.0,0.0,0.0,0.0,0.0,0.0,0.0,0.0,0.0,0.0,0.0,0.0,0.0,0.0,0.0,0.0,0.0,0.0,0.0,0.0,0.0,0.0,0.0,0.0,0.0,0.0,0.0,0.0,0.0,0.0,0.0,0.0,0.0,0.0,0.0,0.0,0.0,0.0,0.0,0.0,0.0,0.0,0.0,0.0,0.0,0.0,0.0,0.0,0.0,0.0,0.0,0.0,0.0,0.0,0.0,0.0,0.0,0.0,0.0,0.0,0.0,0.0,0.0,0.0,0.0,0.0,0.0,0.0,0.0,0.0,0.0,0.0,0.0,0.0,0.0,0.0,0.0,0.0,0.0,0.0,0.0,0.0,0.0,0.0,0.0,0.0,0.0,0.0,0.0,0.0,0.0,0.0,0.0,0.0,0.0,0.0,0.0,0.0,0.0,0.0,0.0,0.0,0.0,0.0,0.0,0.0,0.0,0.0,0.0,0.0,0.0,0.0,0.0,0.0,0.0,0.0,0.0,0.0,0.0,0.0,0.0,0.0,0.0,0.0,0.0,0.0,0.0,0.0,0.0,0.0,0.0,0.0,0.0,0.0,0.0,0.0,0.0,0.0,0.0,0.0,0.0,0.0,0.0,0.0,0.0,0.0,0.0,0.0,0.0,0.0,0.0,0.0,0.0,0.0,0.0,0.0,0.0,0.0,0.0,0.0,0.0,0.0,0.0,0.0,0.0,0.0,0.0,0.0,0.0,0.0,0.0,0.0,0.0,0.0,0.0,0.0,0.0,0.0,0.0,0.0,0.0,0.0,0.0,0.0,0.0,0.0,0.0,0.0,0.0,0.0,0.0,0.0,0.0,0.0,0.0,0.0,0.0,0.0,0.0,0.0,0.0,0.0,0.0,0.0,0.0,0.0,0.0,0.0,0.0,0.0,0.0,0.0,0.0,0.0,0.0,0.0,0.0,0.0,0.0,0.0,0.0,0.0,0.0,0.0,0.0,0.0,0.0,0.0,0.0,0.0,0.0,0.0,0.0,0.0,0.0,0.0,0.0,0.0,0.0,0.0,0.0,0.0,0.0,0.0,0.0,0.0,0.0,0.0,0.0,0.0,0.0,0.0,0.0,0.0,0.0,0.0,0.0,0.0,0.0,0.0,0.0,0.0,0.0,0.0,0.0,0.0,0.0,0.0,0.0,0.0,0.0,0.0,0.0,0.0,0.0,0.0,0.0,0.0,0.0,0.0,0.0,0.0,0.0,0.0,0.0,0.0,0.0,0.0,0.0,0.0,0.0,0.0,0.0,0.0,0.0,0.0,0.0,0.0,0.0,0.0,0.0,0.0,0.0,0.0,0.0,0.0,0.0,0.0,0.0,0.0,0.0,0.0,0.0,0.0,0.0,0.0,0.0,0.0,0.0,0.0,0.0,0.0,0.0,0.0,0.0,0.0,0.0,0.0,0.0,0.0,0.0,0.0,0.0,0.0,0.0,0.0,0.0,0.0,0.0,0.0,0.0,0.0,0.0,0.0,0.0,0.0,0.0,0.0,0.0,0.0,0.0,0.0,0.0,0.0,0.0,0.0,0.0,0.0,0.0,0.0,0.0,0.0,0.0,0.0,0.0,0.0,0.0,0.0,0.0,0.0,0.0,0.0,0.0,0.0,0.0,0.0,0.0,0.0,0.0,0.0,0.0,0.0,0.0,0.0,0.0,0.0,0.0,0.0,0.0,0.0,0.0,0.0,0.0,0.0,0.0,0.0,0.0,0.0,0.0,0.0,0.0,0.0,0.0,0.0,0.0,0.0,0.0,0.0,0.0,0.0,0.0,0.0,0.0,0.0,0.0,0.0,0.0,0.0,0.0,0.0,0.0,0.0,0.0,0.0,0.0,0.0,0.0,0.0,0.0,0.0,0.0,0.0,0.0,0.0,0.0,0.0,0.0,0.0,0.0,0.0,0.0,0.0,0.0,0.0,0.0,0.0,0.0,0.0,0.0,0.0,0.0,0.0,0.0,0.0,0.0,0.0,0.0,0.0,0.0,0.0,0.0,0.0,0.0,0.0,0.0,0.0,0.0,0.0,0.0,0.0,0.0,0.0,0.0,0.0,0.0,0.0,0.0,0.0,0.0,0.0,0.0,0.0,0.0,0.0,0.0,0.0,0.0,0.0,0.0,0.0,0.0,0.0,0.0,0.0,0.0,0.0,0.0,0.0,0.0,0.0,0.0,0.0,0.0,0.0,0.0,0.0,0.0,0.0,0.0,0.0,0.0,0.0,0.0,0.0,0.0,0.0,0.0,0.0,0.0,0.0,0.0,0.0,0.0,0.0,0.0,0.0,0.0,0.0,0.0,0.0,0.0,0.0,0.0,0.0,0.0,0.0,0.0,0.0,0.0,0.0,0.0,0.0,0.0,0.0,0.0,0.0,0.0,0.0,0.0,0.0,0.0,0.0,0.0,0.0,0.0,0.0,0.0,0.0,0.0,0.0,0.0,0.0,0.0,0.0,0.0,0.0,0.0,0.0,0.0,0.0,0.0,0.0,0.0,0.0,0.0,0.0,0.0,0.0,0.0,0.0,0.0,0.0,0.0,0.0,0.0,0.0,0.0,0.0,0.0,0.0,0.0,0.0,0.0,0.0,0.0,0.0,0.0,0.0,0.0,0.0,0.0,0.0,0.0,0.0,0.0,0.0,0.0,0.0,0.0,0.0,0.0,0.0,0.0,0.0,0.0,0.0,0.0,0.0,0.0,0.0,0.0,0.0,0.0,0.0,0.0,0.0,0.0,0.0,0.0,0.0,0.0,0.0,0.2823,0.23,0.221,0.2357,0.0835,0.0,0.0,0.0,0.0,0.0,0.0,0.0,0.0,0.0,0.0,0.0,0.0,0.0,0.0,0.0,0.0,0.0,0.0,0.0,0.0,0.0,0.0,0.0,0.0,0.0,0.0,0.0,0.0,0.0,0.0,0.0,0.0,0.0,0.0,0.0,0.0,0.0,0.0,0.0,0.0,0.0,0.0,0.0,0.0,0.0,0.0,0.0,0.0,0.0,0.0,0.0,0.0,0.0,0.0,0.0,0.0,0.0,0.0,0.0,0.0,0.0,0.0,0.0,0.0,0.0,0.0,0.0,0.0,0.0,0.0,0.0,0.0,0.0,0.0,0.0,0.0,0.0,0.0,0.0,0.0,0.0,0.0,0.0,0.0,0.0,0.0,0.0,0.0,0.0,0.0,0.0,0.0,0.0,0.0,0.0,0.0,0.0,0.0,0.0,0.0,0.0,0.0,0.0,0.0,0.0,0.0,0.0,0.0,0.0,0.0,0.741,0.6589,0.6237,0.6487,0.2504,0.029,0.0,0.0,0.0,0.0,0.0,0.0,0.0,0.0,0.0,0.0,0.0,0.0,0.0,0.0,0.0,0.0,0.0,0.0,0.0,0.0,0.0,0.0,0.0,0.0,0.0,0.0,0.0,0.0,0.0,0.0,0.0,0.0,0.0,0.0,0.0,0.0,0.0,0.0,0.0,0.0,0.0,0.0,0.0,0.0,0.0,0.0,0.0,0.0,0.0,0.0,0.0,0.0,0.0,0.0,0.0,0.0,0.0,0.0,0.0,0.0,0.0,0.0,0.0,0.0,0.0,0.0,0.0,0.0,0.0,0.0,0.0,0.0,0.0,0.0,0.0,0.0,0.0,0.0,0.0,0.0,0.0,0.0,0.0,0.0,0.0,0.0,0.0,0.0,0.0,0.0,0.0,0.0,0.0,0.0,0.0,0.0,0.0,0.0,0.0,0.0,0.0,0.0,0.0,0.0,0.0,0.0,0.0,0.0,0.0,1.1106,1.0479,0.9986,0.9537,0.6354,0.3202,0.0,0.0,0.0,0.0,0.0,0.0,0.0,0.0,0.0,0.0,0.0,0.0,0.0,0.0,0.0,0.0,0.0,0.0,0.0,0.0,0.0,0.0,0.0,0.0,0.0,0.0,0.0,0.0,0.0,0.0,0.0,0.0,0.0,0.0,0.0,0.0,0.0,0.0,0.0,0.0,0.0,0.0,0.0,0.0,0.0,0.0,0.0,0.0,0.0,0.0,0.0,0.0,0.0,0.0,0.0,0.0,0.0,0.0,0.0,0.0,0.0,0.0,0.0,0.0,0.0,0.0,0.0,0.0,0.0,0.0,0.0,0.0,0.0,0.0,0.0,0.0,0.0,0.0,0.0,0.0,0.0,0.0,0.0,0.0,0.0,0.0,0.0,0.0,0.0,0.0,0.0,0.0,0.0,0.0,0.0,0.0,0.0,0.0,0.0,0.0,0.0,0.0,0.0,0.0,0.0,0.0,0.0,0.0,1.0689,1.1517,1.2255,1.2395,1.1952,0.9709,0.6616,0.0,0.0,0.0,0.0,0.0,0.0,0.0,0.0,0.0,0.0,0.0,0.0,0.0,0.0,0.0,0.0,0.0,0.0,0.0,0.0,0.0,0.0,0.0,0.0,0.0,0.0,0.0,0.0,0.0,0.0,0.0,0.0,0.0,0.0,0.0,0.0,0.0,0.0,0.0,0.0,0.0,0.0,0.0,0.0,0.0,0.0,0.0,0.0,0.0,0.0,0.0,0.0,0.0,0.0,0.0,0.0,0.0,0.0,0.0,0.0,0.0,0.0,0.0,0.0,0.0,0.0,0.0,0.0,0.0,0.0,0.0,0.0,0.0,0.0,0.0,0.0,0.0,0.0,0.0,0.0,0.0,0.0,0.0,0.0,0.0,0.0,0.0,0.0,0.0,0.0,0.0,0.0,0.0,0.0,0.0,0.0,0.0,0.0,0.0,0.0,0.0,0.0,0.0,0.0,0.0,0.0,0.0,0.0,1.043,1.0346,1.2456,1.3775,1.3707,1.224,1.008,0.0,0.0,0.0,0.0,0.0,0.0,0.0,0.0,0.0,0.0,0.0,0.0,0.0,0.0,0.0,0.0,0.0,0.0,0.0,0.0,0.0,0.0,0.0,0.0,0.0,0.0,0.0,0.0,0.0,0.0,0.0,0.0,0.0,0.0,0.0,0.0,0.0,0.0,0.0,0.0,0.0,0.0,0.0,0.0,0.0,0.0,0.0,0.0,0.0,0.0,0.0,0.0,0.0,0.0,0.0,0.0,0.0,0.0,0.0,0.0,0.0,0.0,0.0,0.0,0.0,0.0,0.0,0.0,0.0,0.0,0.0,0.0,0.0,0.0,0.0,0.0,0.0,0.0,0.0,0.0,0.0,0.0,0.0,0.0,0.0,0.0,0.0,0.0,0.0,0.0,0.0,0.0,0.0,0.0,0.0,0.0,0.0,0.0,0.0,0.0,0.0,0.0,0.0,0.0,0.0,0.0,0.0,0.0,1.0792,1.0317,1.2782,1.4091,1.3749,1.276,1.1484,0.0,0.0,0.0,0.0,0.0,0.0,0.0,0.0,0.0,0.0,0.0,0.0,0.0,0.0,0.0,0.0,0.0,0.0,0.0,0.0,0.0,0.0,0.0,0.0,0.0,0.0,0.0,0.0,0.0,0.0,0.0,0.0,0.0,0.0,0.0,0.0,0.0,0.0,0.0,0.0,0.0,0.0,0.0,0.0,0.0,0.0,0.0,0.0,-0.7034,0.0,0.0,0.0,0.0,0.0,0.0,0.0,0.0,0.0,0.0,0.0,0.0,0.0,0.0,0.0,0.0,0.0,0.0,0.0,0.0,0.0,0.0,0.0,0.0,0.0,0.0,0.0,0.0,0.0,0.0,0.0,0.0,0.0,0.0,0.0,0.0,0.0,0.0,0.0,0.0,0.0,0.0,0.0,0.0,0.0,0.0,0.0,0.0,0.0,0.0,0.0,0.0,0.0,0.0,0.0,0.0,0.0,0.0,0.0,1.1895,1.0848,1.3134,1.4217,1.3961,1.3304,1.1909,0.0,0.0,0.0,0.0,0.0,0.0,0.0,0.0,0.0,0.0,0.0,0.0,0.0,0.0,0.0,0.0,0.0,0.0,0.0,0.0,0.0,0.0,0.0,0.0,0.0,0.0,0.0,0.0,0.0,0.0,0.0,0.0,0.0,0.0,0.0,0.0,0.0,0.0,0.0,0.0,0.0,0.0,0.0,0.0,0.0,0.0,0.0,0.0,0.0,0.0,0.0,0.0,0.0,0.0,0.0,0.0,0.0,0.0,0.0,0.0,0.0,0.0,0.0,0.0,0.0,0.0,0.0,0.0,0.0,0.0,0.0,0.0,0.0,0.0,0.0,0.0,0.0,0.0,0.0,0.0,0.0,0.0,0.0,0.0,0.0,0.0,0.0,0.0,0.0,0.0,0.0,0.0,0.0,0.0,0.0,0.0,0.0,0.0,0.0,0.0,0.0,0.0,0.0,0.0,0.0,0.0,0.0,1.1423,1.3069,1.1764,1.3415,1.4407,1.4245,1.3362,1.1963,0.9944,0.0,0.0,0.0,0.0,0.0,0.0,0.0,0.0,0.0,0.0,0.0,0.0,0.0,0.0,0.0,0.0,0.0,0.0,0.0,0.0,0.0,0.0,0.0,0.0,0.0,0.0,0.0,0.0,0.0,0.0,0.0,0.0,0.0,0.0,0.0,0.0,0.0,0.0,0.0,0.0,0.0,0.0,0.0,0.0,0.0,0.0,0.0,0.0,-0.8832,0.0,0.0,0.0,0.0,0.0,0.0,0.0,0.0,0.0,0.0,0.0,0.0,0.0,0.0,0.0,0.0,0.0,0.0,0.0,0.0,0.0,0.0,0.0,0.0,0.0,0.0,0.0,0.0,0.0,0.0,0.0,0.0,0.0,0.0,0.0,0.0,0.0,0.0,0.0,0.0,0.0,0.0,0.0,0.0,0.0,0.0,0.0,0.0,0.0,0.0,0.0,0.0,0.0,0.0,0.0,0.0,0.7005,1.1475,1.3641,1.3442,1.3988,1.4258,1.3901,1.2917,1.2186,1.1941,0.0,0.0,0.0,0.0,0.0,0.0,0.0,0.0,0.0,0.0,0.0,0.0,0.0,0.0,0.0,0.0,0.0,0.0,0.0,0.0,0.0,0.0,0.0,0.0,0.0,0.0,0.0,0.0,0.0,0.0,0.0,0.0,0.0,0.0,0.0,0.0,0.0,0.0,0.0,0.0,0.0,0.0,0.0,0.0,0.0,0.0,0.0,0.0,0.0,-0.6233,0.0,0.0,0.0,0.0,0.0,0.0,0.0,0.0,0.0,0.0,0.0,0.0,0.0,0.0,0.0,0.0,0.0,0.0,0.0,0.0,0.0,0.0,0.0,0.0,0.0,0.0,0.0,0.0,0.0,0.0,0.0,0.0,0.0,0.0,0.0,0.0,0.0,0.0,0.0,0.0,0.0,0.0,0.0,0.0,0.0,0.0,0.0,0.0,0.0,0.0,0.0,0.0,0.0,0.0,0.0,0.7224,1.1682,1.396,1.382,1.4115,1.434,1.3988,1.2725,1.1931,0.0,0.0,0.0,0.0,0.0,0.0,0.0,0.0,0.0,0.0,0.0,0.0,0.0,0.0,0.0,0.0,0.0,0.0,0.0,0.0,0.0,0.0,0.0,0.0,0.0,0.0,0.0,0.0,0.0,0.0,0.0,0.0,0.0,0.0,0.0,0.0,0.0,0.0,0.0,0.0,0.0,0.0,0.0,0.0,0.0,0.0,0.0,0.0,0.0,-0.4651,-0.5651,0.0,0.0,0.0,0.0,0.0,0.0,0.0,0.0,0.0,0.0,0.0,0.0,0.0,0.0,0.0,0.0,0.0,0.0,0.0,0.0,0.0,0.0,0.0,0.0,0.0,0.0,0.0,0.0,0.0,0.0,0.0,0.0,0.0,0.0,0.0,0.0,0.0,0.0,0.0,0.0,0.0,0.0,0.0,0.0,0.0,0.0,0.0,0.0,0.0,0.0,0.0,0.0,0.0,0.0,0.0,0.8312,1.2258,1.4238,1.3914,1.4209,1.4441,1.4278,1.2671,1.1598,0.0,0.0,0.0,0.0,0.0,0.0,0.0,0.0,0.0,0.0,0.0,0.0,0.0,0.0,0.0,0.0,0.0,0.0,0.0,0.0,0.0,0.0,0.0,0.0,0.0,0.0,0.0,0.0,0.0,0.0,0.0,0.0,0.0,0.0,0.0,0.0,0.0,0.0,0.0,0.0,0.0,0.0,0.0,0.0,0.0,0.0,0.0,0.0,0.0,-0.2087,0.0,0.0,0.0,0.0,0.0,0.0,0.0,0.0,0.0,0.0,0.0,0.0,0.0,0.0,0.0,0.0,0.0,0.0,0.0,0.0,0.0,0.0,0.0,0.0,0.0,0.0,0.0,0.0,0.0,0.0,0.0,0.0,0.0,0.0,0.0,0.0,0.0,0.0,0.0,0.0,0.0,0.0,0.0,0.0,0.0,0.0,0.0,0.0,0.0,0.0,0.0,0.0,0.0,0.0,0.0,0.0,1.1596,1.3657,1.451,1.4189,1.4496,1.4448,1.4285,1.2576,1.1214,0.0,0.0,0.0,0.0,0.0,0.0,0.0,0.0,0.0,0.0,0.0,0.0,0.0,0.0,0.0,0.0,0.0,0.0,0.0,0.0,0.0,0.0,0.0,0.0,0.0,0.0,0.0,0.0,0.0,0.0,0.0,0.0,0.0,0.0,0.0,0.0,0.0,0.0,0.0,0.0,0.0,0.0,0.0,0.0,0.0,0.0,0.0,0.0,0.0,-0.0277,0.0,0.0,0.0,0.0,0.0,0.0,0.0,0.0,0.0,0.0,0.0,0.0,0.0,0.0,0.0,0.0,0.0,0.0,0.0,0.0,0.0,0.0,0.0,0.0,0.0,0.0,0.0,0.0,0.0,0.0,0.0,0.0,0.0,0.0,0.0,0.0,0.0,0.0,0.0,0.0,0.0,0.0,0.0,0.0,0.0,0.0,0.0,0.0,0.0,0.0,0.0,0.0,0.0,0.0,0.0,0.4261,1.2498,1.4034,1.4609,1.4531,1.4475,1.4401,1.3995,1.2264,1.1221,0.0,0.0,0.0,0.0,0.0,0.0,0.0,0.0,0.0,0.0,0.0,0.0,0.0,0.0,0.0,0.0,0.0,0.0,0.0,0.0,0.0,0.0,0.0,0.0,0.0,0.0,0.0,0.0,0.0,0.0,0.0,0.0,0.0,0.0,0.0,0.0,0.0,0.0,0.0,0.0,0.0,0.0,0.0,0.0,0.0,0.0,0.0,0.0,0.0,0.0,0.0,0.0,0.0,0.0,0.0,0.0,0.0,0.0,0.0,0.0,0.0,0.0,0.0,0.0,0.0,0.0,0.0,0.0,0.0,0.0,0.0,0.0,0.0,0.0,0.0,0.0,0.0,0.0,0.0,0.0,0.0,0.0,0.0,0.0,0.0,0.0,0.0,0.0,0.0,0.0,0.0,0.0,0.0,0.0,0.0,0.0,0.0,0.0,0.0,0.0,0.0,0.0,0.0,0.0,0.0,0.0,1.292,1.4144,1.4791,1.4646,1.4661,1.4229,1.3867,1.2032,0.0,0.0,0.0,0.0,0.0,0.0,0.0,0.0,0.0,0.0,0.0,0.0,0.0,0.0,0.0,0.0,0.0,0.0,0.0,0.0,0.0,0.0,0.0,0.0,0.0,0.0,0.0,0.0,0.0,0.0,0.0,0.0,0.0,0.0,0.0,0.0,0.0,0.0,0.0,0.0,0.0,0.0,0.0,0.0,0.0,0.0,0.0,0.0,0.0,0.0,0.0,0.0,0.0,0.0,0.0,0.0,0.0,0.0,0.0,0.0,0.0,0.0,0.0,0.0,0.0,0.0,0.0,0.0,0.0,0.0,0.0,0.0,0.0,0.0,0.0,0.0,0.0,0.0,0.0,0.0,0.0,0.0,0.0,0.0,0.0,0.0,0.0,0.0,0.0,0.0,0.0,0.0,0.0,0.0,0.0,0.0,0.0,0.0,0.0,0.0,0.0,0.0,0.0,0.0,0.0,0.0,0.0,1.3221,1.4258,1.4732,1.4653,1.4764,1.433,1.3881,1.242,1.1585,0.0,0.0,0.0,0.0,0.0,0.0,0.0,0.0,0.0,0.0,0.0,0.0,0.0,0.0,0.0,0.0,0.0,0.0,0.0,0.0,0.0,0.0,0.0,0.0,0.0,0.0,0.0,0.0,0.0,0.0,0.0,0.0,0.0,0.0,0.0,0.0,0.0,0.0,0.0,0.0,0.0,0.0,0.0,0.0,0.0,0.0,0.0,0.0,0.0,0.0,0.0,0.0,0.0,0.0,0.0,0.0,0.0,0.0,0.0,0.0,0.0,0.0,0.0,0.0,0.0,0.0,0.0,0.0,0.0,0.0,0.0,0.0,0.0,0.0,0.0,0.0,0.0,0.0,0.0,0.0,0.0,0.0,0.0,0.0,0.0,0.0,0.0,0.0,0.0,0.0,0.0,0.0,0.0,0.0,0.0,0.0,0.0,0.0,0.0,0.0,0.0,0.0,0.0,0.0,0.0,0.9676,1.3051,1.4139,1.4636,1.4778,1.4638,1.457,1.4041,1.2664,1.1633,0.0,0.0,0.0,0.0,0.0,0.0,0.0,0.0,0.0,0.0,0.0,0.0,0.0,0.0,0.0,0.0,0.0,0.0,0.0,0.0,0.0,0.0,0.0,0.0,0.0,0.0,0.0,0.0,0.0,0.0,0.0,0.0,0.0,0.0,0.0,0.0,0.0,0.0,0.0,0.0,0.0,0.0,0.0,0.0,0.0,0.0,0.0,0.0,0.0,0.0,0.0,0.0,0.0,0.0,0.0,0.0,0.0,0.0,0.0,0.0,0.0,0.0,0.0,0.0,0.0,0.0,0.0,0.0,0.0,0.0,0.0,0.0,0.0,0.0,0.0,0.0,0.0,0.0,0.0,0.0,0.0,0.0,0.0,0.0,0.0,0.0,0.0,0.0,0.0,0.0,0.0,0.0,0.0,0.0,0.0,0.0,0.0,0.0,0.0,0.0,0.0,0.0,0.0,0.0,0.0,0.9726,1.3027,1.4154,1.4678,1.4689,1.4618,1.455,1.4272,1.2868,1.2004,0.0,0.0,0.0,0.0,0.0,0.0,0.0,0.0,0.0,0.0,0.0,0.0,0.0,0.0,0.0,0.0,0.0,0.0,0.0,0.0,0.0,0.0,0.0,0.0,0.0,0.0,0.0,0.0,0.0,0.0,0.0,0.0,0.0,0.0,0.0,0.0,0.0,0.0,0.0,0.0,0.0,0.0,0.0,0.0,0.0,0.0,0.0,0.0,0.0,0.0,0.0,0.0,0.0,0.0,0.0,0.0,0.0,0.0,0.0,0.0,0.0,0.0,0.0,0.0,0.0,0.0,0.0,0.0,0.0,0.0,0.0,0.0,0.0,0.0,0.0,0.0,0.0,0.0,0.0,0.0,0.0,0.0,0.0,0.0,0.0,0.0,0.0,0.0,0.0,0.0,0.0,0.0,0.0,0.0,0.0,0.0,0.0,0.0,0.0,0.0,0.0,0.0,0.0,0.0,0.0,0.9761,1.3311,1.396,1.4479,1.4668,1.4516,1.4455,1.4285,1.3261,1.2526,1.2015,0.0,0.0,0.0,0.0,0.0,0.0,0.0,0.0,0.0,0.0,0.0,0.0,0.0,0.0,0.0,0.0,0.0,0.0,0.0,0.0,0.0,0.0,0.0,0.0,0.0,0.0,0.0,0.0,0.0,0.0,0.0,0.0,0.0,0.0,0.0,0.0,0.0,0.0,0.0,0.0,0.0,0.0,0.0,0.0,0.0,0.0,0.0,0.0,0.0,0.0,0.0,0.0,0.0,0.0,0.0,0.0,0.0,0.0,0.0,0.0,0.0,0.0,0.0,0.0,0.0,0.0,0.0,0.0,0.0,0.0,0.0,0.0,0.0,0.0,0.0,0.0,0.0,0.0,0.0,0.0,0.0,0.0,0.0,0.0,0.0,0.0,0.0,0.0,0.0,0.0,0.6021,0.8729,0.0,0.0,0.0,0.0,0.0,0.0,0.0,0.0,0.0,0.0,0.0,0.0,0.9802,1.3221,1.4147,1.4499,1.4496,1.4611,1.459,1.4256,1.3424,1.2313,1.0892,0.0,0.0,0.0,0.0,0.0,0.0,0.0,0.0,0.0,0.0,0.0,0.0,0.0,0.0,0.0,0.0,0.0,0.0,0.0,0.0,0.0,0.0,0.0,0.0,0.0,0.0,0.0,0.0,0.0,0.0,0.0,0.0,0.0,0.0,0.0,0.0,0.0,0.0,0.0,0.0,0.0,0.0,0.0,0.0,0.0,0.0,0.0,0.0,0.0,0.0,0.0,0.0,0.0,0.0,0.0,0.0,0.0,0.0,-0.6017,-0.6018,-0.6669,-0.7589,-0.901,0.0,0.0,0.0,0.0,0.0,0.0,0.0,0.0,0.0,0.0,0.0,0.0,0.0,0.0,0.0,0.0,0.3734,0.0,0.0,0.0,0.0,0.0,0.0,0.0,0.0,0.4768,0.5864,0.9808,1.1241,1.1635,0.0,0.9542,0.7914,0.0,0.0,0.0,0.0,0.0,0.0,0.0,0.0,0.9757,1.3229,1.4139,1.4492,1.4482,1.4563,1.4563,1.4309,1.3617,1.247,1.1045,0.9774,0.8937,0.0,0.0,0.0,0.0,0.0,0.0,0.0,0.0,0.0,0.0,0.0,0.0,0.0,0.0,0.0,0.0,0.0,0.0,0.0,0.0,0.0,0.0,0.0,0.0,0.0,0.0,0.0,0.0,0.0,0.0,0.0,0.0,0.0,0.0,0.0,0.0,0.0,0.0,0.0,0.0,0.0,0.0,0.0,0.0,0.0,0.0,0.0,0.0,0.0,0.0,0.0,0.0,0.0,0.0,0.0,0.0,0.0,-0.292,-0.3603,-0.5255,-0.8975,-0.9588,-0.9343,-0.9013,-1.0412,-1.1578,0.0,0.0,0.0,0.0,0.0,0.0,0.0,0.0,0.7675,1.0494,0.0,1.0407,0.0,0.0,0.0,0.0,0.0,0.0,0.0,0.0,0.7566,1.1048,1.1641,1.2187,1.2371,1.2075,1.0742,0.9921,0.9721,0.9051,0.0,0.0,0.0,0.0,0.0,0.0,0.9769,1.3253,1.3975,1.4472,1.4654,1.438,1.4367,1.4269,1.3707,1.3051,1.2095,1.061,0.968,0.9425,0.8527,0.0,0.0,0.0,0.0,0.0,0.0,0.0,0.0,0.0,0.0,0.0,0.0,0.0,0.0,0.0,0.0,0.0,0.0,0.0,0.0,0.0,0.0,0.0,0.0,0.0,0.0,0.0,0.0,0.0,0.0,0.0,0.0,0.0,0.0,0.0,0.0,0.0,0.0,0.0,0.0,0.0,0.0,0.0,0.0,0.0,0.0,0.0,0.0,0.0,0.0,0.0,0.0,0.0,0.0,0.0,0.0,0.0,0.0,-0.7893,-0.8807,-0.8765,-0.9139,-1.1226,-1.3182,0.7418,0.0,0.0,0.0,0.0,0.7135,0.8023,0.7841,0.9771,1.0705,1.0663,1.0263,0.0,0.0,0.0,0.0,0.0,0.0,0.6002,0.7048,1.0015,1.1713,1.2262,1.2875,1.2955,1.2784,1.1956,1.1301,1.0928,1.0405,0.9856,0.9286,0.0,0.0,0.0,0.0,0.9769,1.319,1.4062,1.4284,1.4353,1.4421,1.4319,1.4034,1.3839,1.3261,1.2436,1.1185,1.0201,0.9673,0.9306,0.0,0.0,0.0,0.0,0.0,0.0,0.0,0.0,0.0,0.0,0.0,0.0,0.0,0.0,0.0,0.0,0.0,0.0,0.0,0.0,0.0,0.0,0.0,0.0,0.0,0.0,0.0,0.0,0.0,0.0,0.0,0.0,0.0,0.0,0.0,0.0,0.0,0.0,0.0,0.0,0.0,0.0,0.0,0.0,0.0,0.0,0.0,0.0,0.0,0.0,0.0,0.0,0.0,0.0,0.0,0.0,0.0,0.0,-0.2588,-0.4413,-0.6876,-0.9656,-1.1921,-1.3432,1.2024,0.9081,0.8815,0.8845,0.9254,0.9433,1.0559,1.2054,1.1671,1.1649,1.2015,1.0922,1.0558,1.0489,0.8355,0.0,0.0,0.0,0.9105,1.048,1.1155,1.1938,1.291,1.3422,1.3661,1.3472,1.2766,1.2244,1.1918,1.1409,1.0934,1.0473,0.0,0.0,0.8634,0.9094,1.0779,1.3498,1.3981,1.4347,1.4292,1.438,1.4238,1.3851,1.3964,1.3598,1.2892,1.1714,1.0789,1.0169,0.9808,0.9367,0.0,0.0,0.0,0.0,0.0,0.0,0.0,0.0,0.0,0.0,0.0,0.0,0.0,0.0,0.0,0.0,0.0,0.0,0.0,0.0,0.0,0.0,0.0,0.0,0.0,0.0,0.0,0.0,0.0,0.0,0.0,0.0,0.0,0.0,0.0,0.0,0.0,0.0,0.0,0.0,0.0,0.0,0.0,0.0,0.0,0.0,0.0,0.0,0.0,0.0,0.0,0.0,0.0,0.0,0.0,0.0,0.0,0.0,-0.1634,-0.3777,-0.6007,-1.0237,-1.3881,1.4719,1.4249,1.3432,1.3133,1.3035,1.3173,1.3647,1.4121,1.3141,1.3339,1.4213,1.2606,1.163,1.1328,1.1226,0.0,0.0,1.1848,1.1851,1.1676,1.144,1.2146,1.3398,1.4066,1.4318,1.4304,1.3513,1.2963,1.2779,1.2244,1.1945,1.1857,1.0109,0.8857,0.8334,1.0633,1.238,1.3841,1.4081,1.4333,1.4292,1.4299,1.4163,1.3871,1.4062,1.3959,1.3508,1.2244,1.1279,1.069,1.0136,0.9795,0.9724,0.0,0.0,0.0,0.0,0.0,0.0,0.0,0.0,0.0,0.0,0.0,0.0,0.0,0.0,0.0,0.0231,0.0,0.0,0.0,0.0,0.0,0.0,0.0,0.0,0.0,0.0,0.0,0.0,0.0,0.0,0.0,0.0,0.0,0.0,0.0,0.0,0.0,0.0,0.0,0.0,0.0,0.0,0.0,0.0,0.0,0.0,0.0,0.0,0.0,0.0,0.0,0.0,0.0,0.0,0.0,0.0,0.0,0.0,0.0,0.0,-0.6676,-1.2553,1.5601,1.5235,1.5046,1.4694,1.4089,1.4057,1.4027,1.3981,1.3981,1.4043,1.421,1.3843,1.2986,1.1918,1.2038,1.2093,1.2359,1.2422,1.2387,1.237,1.2424,1.3191,1.4034,1.4194,1.427,1.4263,1.4016,1.3675,1.3417,1.3275,1.2908,1.2359,1.2059,1.1315,1.0173,1.2011,1.3317,1.4172,1.4311,1.4235,1.4278,1.4299,1.4211,1.4021,1.394,1.3837,1.3669,1.2402,1.1385,1.1125,1.0555,1.0114,0.9758,0.9574,0.0,0.0,0.0,0.0,0.0,0.0,0.0,0.0,0.0,0.5243,0.3265,0.0,0.6139,0.0,0.2341,0.0,0.0,0.0,0.0,0.0,0.0,0.0,0.0,0.0,0.0,0.0,0.0,0.0,0.0,0.0,0.0,0.0,0.0,0.0,0.0,0.0,0.0,0.0,0.0,0.0,0.0,0.0,0.0,0.0,0.0,0.0,0.0,0.0,0.0,0.0,0.0,0.0,0.0,0.0,0.0,0.0,0.0,0.0,0.0,0.0,-0.5528,1.6246,1.6029,1.6035,1.5744,1.5269,1.5018,1.4765,1.4454,1.452,1.4611,1.4738,1.4295,1.3533,1.2583,1.2718,1.2793,1.2813,1.303,1.3083,1.2958,1.3277,1.3646,1.4228,1.4311,1.4352,1.4345,1.4109,1.3987,1.3831,1.3756,1.3505,1.3105,1.2847,1.2366,1.1829,1.2525,1.3184,1.3499,1.4055,1.427,1.4278,1.4299,1.4129,1.3783,1.3825,1.3653,1.3513,1.1955,1.1028,1.0912,1.046,1.012,1.0095,0.9889,0.9404,0.0,0.0,0.0,0.0,0.0,0.0,0.0,0.0,0.0,0.0,0.0,0.8165,0.0,0.3272,0.0,0.0,0.0,0.0,0.0,0.0,0.0,0.0,0.0,0.0,0.0,0.0,0.0,0.0,0.0,0.0,0.0,0.0,0.0,0.0,0.0,0.0,0.0,0.0,0.0,0.0,0.0,0.0,0.0,0.0,0.0,0.0,0.0,0.0,0.0,0.0,0.0,0.0,0.0,0.0,0.0,0.0,0.0,0.0,0.0,-0.1967,1.67,1.6585,1.6578,1.6578,1.653,1.5866,1.5547,1.5281,1.5006,1.5052,1.5156,1.438,1.3838,1.3356,1.3464,1.3444,1.3336,1.3593,1.3606,1.3555,1.368,1.3988,1.4299,1.4299,1.4299,1.4292,1.4163,1.4102,1.4102,1.3966,1.3871,1.3817,1.3126,1.2879,1.3036,1.2896,1.2775,1.269,1.3796,1.4326,1.4238,1.419,1.3878,1.3308,1.3479,1.337,1.276,1.1118,1.0206,1.0446,1.0168,1.0095,1.0229,0.9925,0.9503,0.0,0.8911,0.0,0.0,0.0,0.0,0.0,0.0,0.0,0.0,0.7743,0.7529,0.7707,0.3048,0.0,0.0,0.0,0.0,0.0,0.0,0.0,0.0,0.0,0.0,0.0,0.0,0.0,0.0,0.0,0.0,0.0,0.0,0.0,0.0,0.0,0.0,0.0,0.0,0.0,0.0,0.0,0.0,0.0,0.0,0.0,0.0,0.0,0.0,0.0,0.0,0.0,0.0,0.0,0.0,0.0,0.0,0.0,0.0,0.0,0.0,1.6924,1.689,1.6897,1.6897,1.687,1.6605,1.6286,1.594,1.5959,1.5677,1.5113,1.4457,1.4189,1.4251,1.417,1.4116,1.4089,1.415,1.4183,1.4035,1.4245,1.4272,1.4299,1.4299,1.4299,1.4299,1.4272,1.4258,1.4258,1.4224,1.4027,1.3682,1.379,1.3648,1.311,0.0,0.0,0.0,1.3851,1.44,1.427,1.3573,1.299,1.2364,1.2892,0.0,1.1819,1.0073,0.9245,0.9243,0.9581,0.0,0.0,0.0,0.0,0.0,0.0,0.0,0.0,0.0,0.0,0.0,1.0123,1.003,0.9136,0.6471,0.3905,0.1829,0.0669,0.0,0.0,0.0,0.0,0.0,0.0,0.0,0.0,0.0,0.0,0.0,0.0,0.0,0.0,0.0,0.0,0.0,0.0,0.0,0.0,0.0,0.0,0.0,0.0,0.0,0.0,0.0,0.0,0.0,0.0,0.0,0.0,0.0,0.0,0.0,0.0,0.0,0.0,0.0,0.0,0.0,0.0,0.0,0.0,0.0,0.0,1.708,0.0,1.7012,1.6978,0.0,1.6815,1.6619,1.6598,1.6295,1.5911,1.5282,1.497,1.4808,1.4733,1.4584,1.4516,1.4516,1.4441,1.4407,1.4401,1.4333,1.4299,1.4299,1.4299,1.4299,1.4299,1.4299,1.4299,1.4299,1.4299,1.4183,1.396,1.4215,1.4132,1.3736,1.4159,1.4124,1.3796,1.4117,1.4098,1.3874,1.3488,1.2964,1.2301,0.0,0.0,0.0,0.0,0.0,0.0,0.0,0.0,0.0,0.0,0.0,0.9419,0.9674,1.0221,1.1033,1.0929,1.077,1.0732,1.0953,1.0677,0.9992,0.8353,0.6681,0.5295,0.2134,0.0,0.0,0.0,0.0,0.0,0.0,0.0,0.0,0.0,0.0,0.0,0.0,0.0,0.0,0.0,0.0,0.0,0.0,0.0,0.0,0.0,0.0,0.0,0.0,0.0,0.0,0.0,0.0,0.0,0.0,0.0,0.0,0.0,0.0,0.0,0.0,0.0,0.0,0.0,0.0,0.0,0.0,0.0,0.0,0.0,0.0,1.7195,1.7175,1.7039,1.6978,1.6971,1.6842,1.6775,1.6934,0.0,0.0,0.0,1.5499,1.5334,1.4997,1.4848,1.4767,1.4733,1.4584,1.4509,1.4323,1.436,1.4299,1.4299,1.4299,1.4299,1.4299,1.4299,1.4299,1.4299,1.4299,1.4299,1.4299,1.4299,1.4299,1.4299,1.4299,1.4359,1.4291,1.4393,1.4139,1.3487,1.3598,1.3311,1.2788,1.2403,1.1652,1.0432,1.0219,1.0134,1.0128,1.0096,0.991,0.9583,0.9975,1.0301,1.0731,1.0754,1.0915,1.1563,1.119,1.1108,1.1538,1.1564,1.1301,1.0672,1.067,1.0455,0.9764,0.3769,0.0,0.0,0.0,0.0,0.0,0.0,0.0,0.0,0.0,0.0,0.0,0.0,0.0,0.0,0.0,0.0,0.0,0.0,0.0,0.0,0.0,0.0,0.0,0.0,0.0,0.0,0.0,0.0,0.0,0.0,0.0,0.0,0.0,0.0,0.0,0.0,0.0,0.0,0.0,0.0,0.0,0.0,0.0,0.0,0.0,0.0,1.7195,1.7182,1.7039,1.6978,1.6978,1.6958,1.6876,1.6927,1.6273,1.5974,1.5973,1.5897,1.5688,1.5147,1.5004,1.4869,1.4733,1.4577,1.4509,0.0,1.4367,1.4299,1.4299,1.4299,1.4299,1.4299,1.4299,1.4299,1.4299,1.4299,1.4299,1.4299,1.4299,1.4299,1.4299,1.4299,1.4278,1.4238,1.4333,1.4215,1.4249,1.4223,1.4179,1.398,1.318,1.2113,1.0712,1.1124,1.1411,1.1397,1.0719,1.0202,0.9857,0.9893,1.0072,1.0718,1.0724,1.1034,1.1545,1.1552,1.1691,1.2301,1.2178,1.1877,1.1674,1.1325,0.9742,0.6469,0.2506,0.0,0.0,0.0,0.0,0.0,0.0,0.0,0.0,0.0,0.0,0.0,0.0,0.0,0.0,0.0,0.0,0.0,0.0,0.0,0.0,0.0,0.0,0.0,0.0,0.0,0.0,0.0,0.0,0.0,0.0,0.0,0.0,0.0,0.0,0.0,0.0,0.0,0.0,0.0,0.0,0.0,0.0,0.0,0.0,0.0,0.0,1.7317,1.729,1.7073,1.6978,1.6978,1.6978,1.6897,1.6948,1.6659,1.6447,1.6076,1.6182,1.5815,1.5533,1.5309,1.5167,1.5092,1.4862,1.476,1.4557,1.4423,1.4356,1.435,1.4356,1.4543,1.4536,1.4536,1.4496,1.4421,1.4414,1.438,1.4306,1.4299,1.4299,1.4306,1.4373,1.4373,1.4299,1.4345,1.427,1.4263,1.4249,1.4379,1.4318,1.3774,1.3137,1.2265,1.262,1.264,1.2393,1.1736,1.1342,1.0785,1.0735,1.1018,1.166,1.1442,1.1332,1.1777,1.1935,1.2162,1.2761,1.2539,1.2467,1.2556,1.2126,1.1095,0.8988,0.3587,0.0,0.0,0.0,0.0,0.0,0.0,0.0,0.0,0.0,0.0,0.0,0.0,0.0,0.0,0.0,0.0,0.0,0.0,0.0,0.0,0.0,0.0,0.0,0.0,0.0,0.0,0.0,0.0,0.0,0.0,0.0,0.0,0.0,0.0,0.0,0.0,0.0,0.0,0.0,0.0,0.0,0.0,0.0,0.0,0.0,0.0,1.748,1.7392,1.7134,1.7012,1.6978,1.6978,1.691,1.7003,1.7064,1.6701,1.6118,1.6042,1.6083,1.5832,1.5608,1.5493,1.5425,1.5153,1.5018,1.4805,1.4454,1.4368,1.4551,1.474,1.474,1.474,1.474,1.4679,1.4577,1.4563,1.4489,1.436,1.4319,1.4312,1.4346,1.4269,1.4289,1.4407,1.4401,1.4367,1.4306,1.4333,1.4278,1.4297,1.4222,1.4027,1.3713,1.3661,1.3539,1.3246,1.2745,1.2379,1.1998,1.1795,1.202,1.236,1.2127,1.1884,1.2203,1.2291,1.2725,1.3179,1.3047,1.3003,1.3275,1.2933,1.2585,1.1818,0.7073,0.0,0.0,0.0,0.0,0.0,0.0,0.0,0.0,0.0,0.0,0.0,0.0,0.0,0.0,0.0,0.0,0.0,0.0,0.0,0.0,0.0,0.0,0.0,0.0,0.0,0.0,0.0,0.0,0.0,0.0,0.0,0.0,0.0,0.0,0.0,0.0,0.0,0.0,0.0,0.0,0.0,0.0,0.0,0.0,0.0,0.0,1.7663,1.7412,1.7236,1.7093,1.6985,1.6978,1.6971,1.6937,1.701,1.6646,1.6062,1.6191,1.5981,1.5866,1.5818,1.573,1.5594,1.5303,1.516,1.5126,1.4869,1.474,1.5132,1.5125,1.5118,1.5125,1.4943,1.4753,1.4719,1.4713,1.4638,1.4309,1.4367,1.4373,1.4296,1.4323,1.4577,1.507,1.4888,1.457,1.4326,1.4428,1.4421,1.4285,1.4116,1.4201,1.416,1.3885,1.3713,1.4027,1.3582,1.3078,1.2862,1.2429,1.2134,1.2474,1.2474,1.2487,1.2501,1.28,1.3192,1.3638,1.3501,1.3451,1.3729,1.3528,1.3508,1.3206,1.3088,1.2217,1.2396,0.5157,0.0,0.0,0.0,0.0,0.0,0.0,0.0,0.0,0.0,0.0,0.0,0.0,0.0,0.0,0.0,0.0,0.0,0.0,0.0,0.0,0.0,0.0,0.0,0.0,0.0,0.0,0.0,0.0,0.0,0.0,0.0,0.0,0.0,0.0,0.0,0.0,0.0,0.0,0.0,0.0,0.0,0.0,0.0,1.769,1.7412,1.7256,1.7107,1.6985,1.6978,1.6978,1.6965,1.703,1.6927,1.6625,1.6341,1.613,1.5981,1.5893,1.5818,1.5744,1.5452,1.5316,1.5107,1.5092,1.5004,1.519,1.519,1.519,1.5197,1.5004,1.4957,1.4875,1.478,1.4477,1.435,1.435,1.4403,1.4282,1.4733,1.4963,1.5125,1.5101,1.4855,1.459,1.4523,1.4448,1.4312,1.4238,1.4204,1.4197,1.4082,1.416,1.4249,1.3947,1.3796,1.3624,1.3045,1.2782,1.2807,1.3125,1.3166,1.3083,1.3157,1.3444,1.3823,1.3661,1.3715,1.3831,1.3627,1.3667,1.378,1.4068,1.4224,1.3432,0.5719,0.0,0.0,0.0,0.0,0.0,0.0,0.0,0.0,0.0,0.0,0.0,0.0,0.0,0.0,0.0,0.0,0.0,0.0,0.0,0.0,0.0,0.0,0.0,0.0,0.0,0.0,0.0,0.0,0.0,0.0,0.0,0.0,0.0,0.0,0.0,0.0,0.0,0.0,0.0,0.0,0.0,0.0,0.0,1.7731,1.7412,1.7216,1.7073,1.6985,1.6978,1.6978,1.6971,1.7078,1.7003,1.6941,1.6524,1.6347,1.6191,1.6001,1.5913,1.5886,1.5649,1.5506,1.5267,1.5309,1.5242,1.5242,1.5248,1.5269,1.5303,1.5309,1.5235,1.5086,1.4889,1.4746,1.4477,1.4517,1.4388,1.4624,1.4923,1.5128,1.5271,1.5272,1.5059,1.4821,1.4699,1.457,1.4434,1.4421,1.4421,1.4236,1.438,1.4312,1.4373,1.4338,1.4201,1.4124,1.3756,1.3506,1.3372,1.3693,1.3741,1.3682,1.3688,1.3749,1.3885,1.3905,1.3919,1.3973,1.3894,1.3954,1.3974,1.4095,1.3642,0.9688,0.4116,0.0,0.0,0.0,0.0,0.0,0.0,0.0,0.0,0.0,0.0,0.0,0.0,0.0,0.0,0.0,0.0,0.0,0.0,0.0,0.0,0.0,0.0,0.0,0.0,0.0,0.0,0.0,0.0,0.0,0.0,0.0,0.0,0.0,0.0,0.0,0.0,0.0,0.0,0.0,0.0,0.0,0.0,0.0,1.7826,1.7399,1.7114,1.6992,1.6978,1.6978,1.6978,1.6978,1.6965,1.7099,1.6989,1.6941,1.6852,1.6476,1.6205,1.6076,1.6056,1.59,1.575,1.5622,1.5267,1.52,1.52,1.5404,1.5664,1.5567,1.5574,1.5506,1.535,1.5099,1.4964,1.5128,1.4828,1.4828,1.5128,1.5162,1.5224,1.5126,1.5167,1.5113,1.5169,1.495,1.4869,1.474,1.4713,1.451,1.4315,1.457,1.4489,1.4303,1.4353,1.4211,1.4249,1.4222,1.4153,1.4187,1.3995,1.4002,1.4187,1.4016,1.3905,1.4208,1.4061,1.4116,1.4217,1.4251,1.4278,1.4326,1.4333,1.1088,0.4103,0.1608,0.0,0.0,0.0,0.0,0.0,0.0,0.0,0.0,0.0,0.0,0.0,0.0,0.0,0.0,0.0,0.0,0.0,0.0,0.0,0.0,0.0,0.0,0.0,0.0,0.0,0.0,0.0,0.0,0.0,0.0,0.0,0.0,0.0,0.0,0.0,0.0,0.0,0.0,0.0,0.0,0.0,0.0,0.0,1.7684,1.7263,1.7066,1.6978,1.6978,1.6978,1.6978,1.6978,1.6978,1.6951,1.7099,1.701,1.6927,1.6653,1.6456,1.6361,1.6341,1.611,1.592,1.5959,1.552,1.5214,1.5214,1.5609,1.589,1.5822,1.5835,1.5513,1.5276,1.5153,1.5059,1.4991,1.5011,1.5059,1.5099,1.5106,1.5133,1.5174,1.5181,1.516,1.512,1.5106,1.5079,1.5018,1.4835,1.474,1.4551,1.4597,1.4516,1.433,1.4373,1.4278,1.4231,1.4393,1.4331,1.4374,1.4256,1.4095,1.4194,1.4256,1.4156,1.4211,1.4217,1.4231,1.4285,1.4299,1.4306,1.4319,1.434,1.2171,0.9113,0.375,0.0,0.0,0.0,0.0,0.0,0.0,0.0,0.0,0.0,0.0,0.0,0.0,0.0,0.0,0.0,0.0,0.0,0.0,0.0,0.0,0.0,0.0,0.0,0.0,0.0,0.0,0.0,0.0,0.0,0.0,0.0,0.0,0.0,0.0,0.0,0.0,0.0,0.0,0.0,0.0,0.0,0.0,0.0,1.7541,1.7256,1.706,1.6978,1.6978,1.6978,1.6978,1.6978,1.6978,1.6978,1.6958,1.7085,1.6829,1.6809,1.6714,1.6673,1.6625,1.6313,1.6247,1.6048,1.5642,1.5355,1.5355,1.5753,1.6036,1.6154,1.5932,1.5594,1.5418,1.535,1.5087,1.4818,1.5093,1.514,1.5133,1.5133,1.514,1.533,1.533,1.533,1.5133,1.533,1.533,1.5303,1.5133,1.4977,1.4889,1.4929,1.4658,1.445,1.4296,1.4346,1.4306,1.4299,1.4258,1.4352,1.4238,1.4258,1.4352,1.4245,1.4299,1.4299,1.4299,1.4299,1.4299,1.4299,1.4299,1.4306,1.4319,1.434,1.3084,0.8401,0.3398,0.0,0.0,0.0,0.0,0.0,0.0,0.0,0.0,0.0,0.0,0.0,0.0,0.0,0.0,0.0,0.0,0.0,0.0,0.0,0.0,0.0,0.0,0.0,0.0,0.0,0.0,0.0,0.0,0.0,0.0,0.0,0.0,0.0,0.0,0.0,0.0,0.0,0.0,0.0,0.0,0.0,0.0,1.7433,1.7358,1.7107,1.6985,1.6978,1.6978,1.6978,1.6978,1.6978,1.6978,1.6978,1.6971,1.6951,1.6965,1.6931,1.6958,1.6849,1.6503,1.6191,1.6131,1.5872,1.5453,1.525,1.5859,1.6124,1.6049,1.592,1.5845,1.5791,1.5662,1.5388,1.5215,1.5188,1.5188,1.5228,1.5395,1.5408,1.5601,1.5594,1.5408,1.5235,1.5401,1.5594,1.5608,1.5581,1.5445,1.5194,1.5224,1.495,1.4356,1.4302,1.4269,1.436,1.4326,1.4306,1.4319,1.4319,1.4312,1.4312,1.4326,1.4346,1.4326,1.4312,1.4319,1.4306,1.4299,1.4299,1.4299,1.4306,1.4319,1.434,1.3445,0.9299,0.0,0.0,0.0,0.0,0.0,0.0,0.0,0.0,0.0,0.0,0.0,0.0,0.0,0.0,0.0,0.0,0.0,0.0,0.0,0.0,0.0,0.0,0.0,0.0,0.0,0.0,0.0,0.0,0.0,0.0,0.0,0.0,0.0,0.0,0.0,0.0,0.0,0.0,0.0,0.0,0.0,0.0,1.7453,1.7263,1.7168,1.7066,1.6985,1.6978,1.6978,1.6978,1.6978,1.6978,1.6978,1.6978,1.6978,1.6978,1.6978,1.6924,1.6815,1.6659,1.6503,1.632,1.6004,1.5951,1.5957,1.5964,1.6191,1.5998,1.6083,1.5954,1.5852,1.5723,1.5635,1.5442,1.5448,1.5635,1.5863,1.5835,1.5835,1.6036,1.6036,1.5835,1.5442,1.5642,1.5642,1.5842,1.5642,1.5581,1.5493,1.5255,1.512,1.4919,1.5018,1.4652,1.441,1.4316,1.4309,1.4403,1.4417,1.4417,1.4417,1.441,1.4543,1.4289,1.4441,1.4394,1.4312,1.4312,1.4312,1.4306,1.4299,1.4306,1.4319,1.434,1.0204,0.0,0.0,0.0,0.0,0.0,0.0,0.0,0.0,0.0,0.0,0.0,0.0,0.0,0.0,0.0,0.0,0.0,0.0,0.0,0.0,0.0,0.0,0.0,0.0,0.0,0.0,0.0,0.0,0.0,0.0,0.0,0.0,0.0,0.0,0.0,0.0,0.0,0.0,0.0,0.0,0.0,0.0,1.75,1.7277,1.7216,1.7114,1.6985,1.6978,1.6978,1.6978,1.6978,1.6978,1.6978,1.6978,1.6978,1.6978,1.6978,1.6931,1.6842,1.6836,1.6788,1.6666,1.6469,1.6395,1.6388,1.6388,1.6388,1.6374,1.6293,1.6198,1.6096,1.5967,1.5913,1.575,1.5859,1.5872,1.6138,1.6069,1.6048,1.6138,1.6076,1.6035,1.5866,1.5832,1.5805,1.6007,1.5805,1.5805,1.5784,1.556,1.5377,1.5242,1.5176,1.4814,1.4368,1.4457,1.4457,1.4713,1.474,1.474,1.474,1.4719,1.4706,1.4618,1.4597,1.4563,1.4482,1.4462,1.4269,1.4387,1.4441,1.4421,1.434,1.4256,1.1368,0.6287,0.0,0.0,0.0,0.0,0.0,0.0,0.0,0.0,0.0,0.0,0.0,0.0,0.0,0.0,0.0,0.0,0.0,0.0,0.0,0.0,0.0,0.0,0.0,0.0,0.0,0.0,0.0,0.0,0.0,0.0,0.0,0.0,0.0,0.0,0.0,0.0,0.0,0.0,0.0,0.0,0.0,1.7575,1.7419,1.727,1.7134,1.7005,1.6985,1.6978,1.6978,1.6978,1.6978,1.6978,1.6978,1.6978,1.6978,1.6978,1.6971,1.6971,1.6958,1.6951,1.687,1.67,1.6578,1.679,1.679,1.6981,1.6953,1.6728,1.6503,1.6435,1.6334,1.6179,1.6199,1.6011,1.6024,1.6138,1.6218,1.6225,1.6368,1.6218,1.6171,1.6071,1.6178,1.6103,1.6103,1.609,1.6076,1.6049,1.6083,1.5683,1.5234,1.5147,1.4943,1.4461,1.4591,1.4787,1.5025,1.5174,1.5209,1.4998,1.4855,1.4821,1.4991,1.4774,1.4557,1.4706,1.449,1.445,1.4363,1.4631,1.4611,1.4455,1.4363,1.3907,1.3107,0.5414,0.0,0.0,0.0,0.0,0.0,0.0,0.0,0.0,0.0,0.0,0.0,0.0,0.0,0.0,0.0,0.0,0.0,0.0,0.0,0.0,0.0,0.0,0.0,0.0,0.0,0.0,0.0,0.0,0.0,0.0,0.0,0.0,0.0,0.0,0.0,0.0,0.0,0.0,0.0,0.0,1.7717,1.7575,1.7426,1.727,1.7127,1.7026,1.6978,1.6978,1.6978,1.6978,1.6978,1.6978,1.6978,1.6978,1.6978,1.6978,1.6978,1.6978,1.6978,1.6971,1.691,1.6863,1.7071,1.7065,1.7003,1.692,1.6686,1.6632,1.6524,1.649,1.6497,1.6306,1.6442,1.6225,1.6075,1.6442,1.6653,1.6503,1.6673,1.6618,1.6239,1.6219,1.6408,1.6395,1.6307,1.6252,1.6218,1.6192,1.5973,1.5581,1.5289,1.5228,1.4937,1.4798,1.4912,1.5201,1.5309,1.514,1.5242,1.5026,1.5174,1.5259,1.5162,1.5046,1.4746,1.474,1.4537,1.4685,1.4726,1.4719,1.484,1.4517,1.4551,1.3619,0.6592,0.0,0.0,0.0,0.0,0.0,0.0,0.0,0.0,0.0,0.0,0.0,0.0,0.0,0.0,0.0,0.0,0.0,0.0,0.0,0.0,0.0,0.0,0.0,0.0,0.0,0.0,0.0,0.0,0.0,0.0,0.0,0.0,0.0,0.0,0.0,0.0,0.0,0.0,0.0,0.0,1.7779,1.7643,1.7555,1.7392,1.7195,1.71,1.7039,1.6985,1.6978,1.6978,1.6978,1.6978,1.6978,1.6978,1.6978,1.6978,1.6978,1.6978,1.6978,1.6978,1.6971,1.6971,1.6971,1.6978,1.6931,1.7071,1.6842,1.6802,1.672,1.6653,1.6653,1.668,1.6585,1.6585,1.65,1.679,1.681,1.6666,1.6817,1.6756,1.6605,1.6551,1.6524,1.6714,1.6435,1.6395,1.6165,1.6426,1.6199,1.5897,1.5671,1.5459,1.5202,1.5089,1.5221,1.5513,1.5395,1.5395,1.5533,1.5506,1.5241,1.5303,1.5187,1.5086,1.4984,1.497,1.4997,1.4855,1.4943,1.495,1.5059,1.4882,1.497,1.4872,0.9924,0.4653,0.0741,0.0,0.0,0.0,0.0,0.0,0.0,0.0,0.0,0.0,0.0,0.0,0.0,0.0,0.0,0.0,0.0,0.0,0.0,0.0,0.0,0.0,0.0,0.0,0.0,0.0,0.0,0.0,0.0,0.0,0.0,0.0,0.0,0.0,0.0,0.0,0.0,0.0,0.0,1.7785,1.767,1.7656,1.7494,1.727,1.7222,1.7141,1.7026,1.7019,1.6998,1.6985,1.6978,1.6978,1.6978,1.6978,1.6978,1.6978,1.6978,1.6978,1.6978,1.6978,1.6978,1.6978,1.6978,1.6971,1.6958,1.6971,1.6958,1.6904,1.6815,1.6849,1.6863,1.6693,1.6727,1.6842,1.6927,1.6955,1.6863,1.6941,1.69,1.6948,1.668,1.6632,1.6838,1.6783,1.6524,1.6306,1.6666,1.6689,1.6168,1.5911,1.571,1.5321,1.5509,1.5662,1.5877,1.5897,1.5716,1.6064,1.5856,1.5615,1.5486,1.5254,1.5187,1.5276,1.5107,1.5248,1.5252,1.5262,1.5242,1.5341,1.5167,1.5282,1.5574,1.4957,1.0587,0.4089,0.0,0.0,0.0,0.0,0.0,0.0,0.0,0.0,0.0,0.0,0.0,0.0,0.0,0.0,0.0,0.0,0.0,0.0,0.0,0.0,0.0,0.0,0.0,0.0,0.0,0.0,0.0,0.0,0.0,0.0,0.0,0.0,0.0,0.0,0.0,0.0,0.0,0.0,1.7846,1.7806,1.7697,1.7609,1.7534,1.7426,1.7283,1.6936,1.6929,1.708,1.6998,1.6978,1.6978,1.6978,1.6978,1.6978,1.6978,1.6978,1.6978,1.6978,1.6978,1.6978,1.6978,1.6978,1.6978,1.6978,1.6978,1.6978,1.6958,1.6944,1.6944,1.6944,1.691,1.6904,1.6937,1.691,1.6904,1.6965,1.6897,1.7085,1.6897,1.6883,1.6849,1.7058,1.6968,1.6646,1.6544,1.6735,1.6877,1.6731,1.6337,1.6042,1.5877,1.5736,1.5839,1.6048,1.6124,1.5934,1.6035,1.6007,1.5993,1.5932,1.5635,1.5574,1.5547,1.5261,1.5398,1.5513,1.5568,1.5445,1.5452,1.5308,1.5547,1.578,1.5774,1.4917,1.1272,0.0,0.0,0.0,0.0,0.0,0.0,0.0,0.0,0.0,0.0,0.0,0.0,0.0,0.0,0.0,0.0,0.0,0.0,0.0,0.0,0.0,0.0,0.0,0.0,0.0,0.0,0.0,0.0,0.0,0.0,0.0,0.0,0.0,0.0,0.0,0.0,0.0,0.0,1.786,1.7853,1.7779,1.7711,1.7643,1.7561,1.7439,1.7297,1.7003,1.6936,1.7073,1.7012,1.6978,1.6978,1.6978,1.6978,1.6978,1.6978,1.6978,1.6978,1.6978,1.6978,1.6978,1.6978,1.6978,1.6978,1.6978,1.6978,1.6978,1.6978,1.6971,1.6978,1.6978,1.6965,1.6978,1.6978,1.6971,1.6978,1.6978,1.6978,1.6978,1.6978,1.6978,1.6971,1.6904,1.6815,1.6754,1.6955,1.6955,1.6893,1.6524,1.6179,1.6179,1.5843,1.5944,1.6096,1.613,1.611,1.6206,1.6158,1.6131,1.6062,1.598,1.571,1.5676,1.5415,1.5388,1.5361,1.5574,1.5635,1.5642,1.5716,1.573,1.573,1.6091,1.5842,1.3969,0.0,0.0,0.0,0.0,0.0,0.0,0.0,0.0,0.0,0.0,0.0,0.0,0.0,0.0,0.0,0.0,0.0,0.0,0.0,0.0,0.0,0.0,0.0,0.0,0.0,0.0,0.0,0.0,0.0,0.0,0.0,0.0,0.0,0.0,0.0,0.0,0.0,0.0,1.786,1.786,1.786,1.7792,1.769,1.7684,1.7595,1.7446,1.729,1.7216,1.6949,1.7039,1.6998,1.7012,1.7026,1.7019,1.7012,1.6985,1.6985,1.7032,1.6992,1.7005,1.7012,1.7005,1.6978,1.6978,1.6978,1.6985,1.7012,1.6998,1.7005,1.7005,1.6985,1.6978,1.6978,1.6978,1.6978,1.6978,1.6978,1.6978,1.6978,1.6978,1.6978,1.6978,1.6971,1.6951,1.6931,1.6937,1.6958,1.6971,1.6856,1.652,1.6413,1.6101,1.6266,1.6341,1.6132,1.6078,1.6191,1.613,1.6062,1.6131,1.6096,1.6041,1.5778,1.5771,1.5549,1.5542,1.5542,1.5791,1.573,1.5818,1.6083,1.6076,1.6175,1.5925,1.4285,0.7519,0.0,0.0,0.0,0.0,0.0,0.0,0.0,0.0,0.0,0.0,0.0,0.0,0.0,0.0,0.0,0.0,0.0,0.0,0.0,0.0,0.0,0.0,0.0,0.0,0.0,0.0,0.0,0.0,0.0,0.0,0.0,0.0,0.0,0.0,0.0,0.0,0.0,1.786,1.786,1.786,1.7846,1.7826,1.7826,1.7745,1.7827,1.7676,1.7525,1.6976,1.7053,1.7066,1.7134,1.7161,1.7161,1.7134,1.7087,1.7066,1.6909,1.7073,1.706,1.6915,1.7053,1.6998,1.6978,1.6985,1.7032,1.7093,1.7053,1.7039,1.71,1.7032,1.6978,1.6978,1.6978,1.6978,1.6978,1.6978,1.6978,1.6978,1.6978,1.6978,1.6978,1.6978,1.6978,1.6978,1.6978,1.6978,1.6978,1.6951,1.6924,1.6836,1.6453,1.6551,1.6707,1.649,1.6245,1.6192,1.6118,1.6065,1.6205,1.6123,1.6049,1.5981,1.5927,1.5886,1.5845,1.5852,1.6089,1.6001,1.6008,1.6029,1.6029,1.6199,1.6131,1.544,1.316,0.871,0.0,0.0,0.0,0.0,0.0,0.0,0.0,0.0,0.0,0.0,0.0,0.0,0.0,0.0,0.0,0.0,0.0,0.0,0.0,0.0,0.0,0.0,0.0,0.0,0.0,0.0,0.0,0.0,0.0,0.0,0.0,0.0,0.0,0.0,0.0,0.0,1.786,1.786,1.786,1.786,1.786,1.786,1.7826,1.7971,1.7834,1.7717,1.7399,1.7283,1.7243,1.7297,1.7311,1.7311,1.7283,1.7249,1.7036,1.7063,1.7029,1.7023,1.7069,1.6942,1.71,1.7066,1.7032,1.7053,1.7161,1.7046,1.7066,1.7127,1.7046,1.6978,1.6978,1.6978,1.6985,1.6985,1.6985,1.6978,1.6978,1.6978,1.6978,1.6978,1.6978,1.6978,1.6978,1.6978,1.6978,1.6978,1.6978,1.6978,1.6931,1.6856,1.6927,1.6872,1.6639,1.6598,1.6544,1.6449,1.6395,1.6112,1.6286,1.6225,1.6137,1.6076,1.6042,1.6192,1.6172,1.6199,1.6062,1.609,1.6083,1.6083,1.6083,1.6015,1.5906,1.5886,1.2304,0.7087,0.0,0.0,0.0,0.0,0.0,0.0,0.0,0.0,0.0,0.0,0.0,0.0,0.0,0.0,0.0,0.0,0.0,0.0,0.0,0.0,0.0,0.0,0.0,0.0,0.0,0.0,0.0,0.0,0.0,0.0,0.0,0.0,0.0,0.0,0.0,1.786,1.786,1.786,1.786,1.786,1.786,1.786,1.7833,1.793,1.7643,1.7623,1.7487,1.7426,1.746,1.7467,1.7467,1.7467,1.7439,1.7203,1.723,1.719,1.7203,1.7197,1.7076,1.7175,1.6929,1.7039,1.7053,1.7141,1.7046,1.7073,1.7134,1.7066,1.7019,1.7032,1.7087,1.7053,1.7026,1.7019,1.7012,1.6985,1.6978,1.6978,1.6978,1.6978,1.6978,1.6978,1.6978,1.6978,1.6978,1.6978,1.6978,1.6978,1.6978,1.6924,1.7037,1.701,1.6941,1.7078,1.7002,1.6742,1.6463,1.6476,1.6374,1.6273,1.6239,1.6038,1.6151,1.6123,1.6123,1.6151,1.6164,1.6157,1.6137,1.613,1.6083,1.5974,1.5913,1.5872,1.1149,0.6415,0.0,0.0,0.0,0.0,0.0,0.0,0.0,0.0,0.0,0.0,0.0,0.0,0.0,0.0,0.0,0.0,0.0,0.0,0.0,0.0,0.0,0.0,0.0,0.0,0.0,0.0,0.0,0.0,0.0,0.0,0.0,0.0,0.0,0.0,1.786,1.786,1.786,1.786,1.786,1.786,1.786,1.784,1.793,1.7875,1.7841,1.7724,1.771,1.7568,1.7609,1.7616,1.7582,1.7528,1.7528,1.7371,1.7521,1.7534,1.7779,1.7538,1.7236,1.6976,1.7053,1.7073,1.7114,1.7032,1.7066,1.7168,1.7182,1.6949,1.6962,1.7036,1.7069,1.6976,1.6949,1.6895,1.7012,1.6992,1.6992,1.6978,1.6992,1.6998,1.7012,1.7019,1.7019,1.6998,1.6992,1.6985,1.6978,1.6978,1.6978,1.6958,1.6951,1.6944,1.7092,1.7003,1.692,1.6639,1.6612,1.6524,1.6449,1.6152,1.6112,1.6091,1.6078,1.6078,1.6098,1.6179,1.6172,1.6125,1.6279,1.6198,1.6096,1.6049,1.5995,1.5683,1.1006,0.6592,0.0,0.0,0.0,0.0,0.0,0.0,0.0,0.0,0.0,0.0,0.0,0.0,0.0,0.0,0.0,0.0,0.0,0.0,0.0,0.0,0.0,0.0,0.0,0.0,0.0,0.0,0.0,0.0,0.0,0.0,0.0,0.0,0.0,1.786,1.786,1.786,1.786,1.786,1.786,1.7819,1.7964,1.7902,1.782,1.7744,1.7676,1.7467,1.7534,1.7602,1.765,1.765,1.765,1.7697,1.7745,1.7697,1.7704,1.7684,1.748,1.7324,1.7036,1.7107,1.6998,1.7039,1.7053,1.7087,1.727,1.7023,1.7029,1.7311,1.7392,1.7593,1.7338,1.7311,1.7023,1.6922,1.7093,1.706,1.6992,1.706,1.7087,1.7114,1.7195,1.7175,1.7134,1.71,1.7053,1.6998,1.6978,1.6978,1.6978,1.6978,1.6971,1.6965,1.6917,1.7058,1.6802,1.6754,1.6754,1.6659,1.6524,1.6225,1.6429,1.6219,1.6219,1.6429,1.6483,1.668,1.6659,1.6435,1.6341,1.6259,1.6225,1.6164,1.6042,1.5716,1.1383,0.6994,0.0,0.0,0.0,0.0,0.0,0.0,0.0,0.0,0.0,0.0,0.0,0.0,0.0,0.0,0.0,0.0,0.0,0.0,0.0,0.0,0.0,0.0,0.0,0.0,0.0,0.0,0.0,0.0,0.0,0.0,0.0,0.0,1.786,1.786,1.786,1.786,1.786,1.786,1.7806,1.7937,1.7889,1.7589,1.727,1.7439,1.7419,1.7439,1.7534,1.7602,1.7656,1.7758,1.7826,1.7846,1.786,1.7846,1.7772,1.7595,1.7453,1.6975,1.6956,1.7046,1.7005,1.7039,1.7161,1.7358,1.7297,1.713,1.7453,1.7751,1.7772,1.771,1.721,1.713,1.7049,1.7036,1.7188,1.7161,1.6969,1.7029,1.7049,1.7338,1.7331,1.7216,1.7175,1.7114,1.7005,1.6978,1.6978,1.6978,1.6978,1.6978,1.6978,1.6958,1.6917,1.689,1.6883,1.6897,1.7023,1.6673,1.6578,1.6578,1.6578,1.6373,1.6585,1.6824,1.6845,1.6824,1.679,1.6483,1.6402,1.6374,1.6307,1.6191,1.609,1.6015,1.189,0.7892,0.0,0.0,0.0,0.2531,0.0,0.0,0.0,0.0,0.0,0.0,0.0,0.0,0.0,0.0,0.0,0.0,0.0,0.0,0.0,0.0,0.0,0.0,0.0,0.0,0.0,0.0,0.0,0.0,0.0,0.0,0.0,1.786,1.786,1.786,1.786,1.786,1.786,1.786,1.7779,1.7684,1.7398,1.7107,1.7257,1.7399,1.7419,1.7439,1.7521,1.7636,1.7656,1.7738,1.7819,1.786,1.786,1.7799,1.7697,1.7555,1.7203,1.7229,1.7093,1.7046,1.7114,1.7175,1.7216,1.7365,1.7277,1.7609,1.7711,1.793,1.7854,1.7324,1.7237,1.7412,1.7405,1.7385,1.7372,1.717,1.7183,1.7405,1.7669,1.7635,1.7483,1.7236,1.7154,1.7053,1.6992,1.6985,1.6978,1.6978,1.6978,1.6978,1.6978,1.6971,1.6965,1.6971,1.6971,1.6924,1.703,1.6962,1.6734,1.6734,1.6734,1.6775,1.6829,1.7023,1.6989,1.6927,1.6646,1.6571,1.6524,1.6456,1.6132,1.6252,1.6198,1.6137,1.1823,1.0739,0.9892,0.9644,0.863,0.3521,0.0,0.0,0.0,0.0,0.0,0.0,0.0,0.0,0.0,0.0,0.0,0.0,0.0,0.0,0.0,0.0,0.0,0.0,0.0,0.0,0.0,0.0,0.0,0.0,0.0,0.0,1.7785,1.786,1.786,1.786,1.786,1.786,1.7985,1.7827,1.7758,1.7453,1.715,1.7304,1.7277,1.7304,1.7385,1.7385,1.7405,1.7589,1.767,1.7751,1.7806,1.7853,1.7812,1.7957,1.7834,1.7507,1.7331,1.7249,1.727,1.7243,1.7338,1.7433,1.7521,1.7636,1.7765,1.7826,1.7812,1.7792,1.7711,1.7656,1.7568,1.7779,1.7738,1.7648,1.7317,1.7331,1.7351,1.7656,1.7813,1.771,1.7385,1.7256,1.7121,1.7046,1.7005,1.6998,1.6998,1.6998,1.6978,1.6978,1.6978,1.6978,1.6978,1.6978,1.6978,1.6917,1.6904,1.6897,1.6883,1.687,1.6904,1.6937,1.6937,1.691,1.6856,1.6788,1.6734,1.668,1.6598,1.6476,1.6442,1.6402,1.6347,1.5668,1.5538,1.542,1.5144,1.3875,0.8489,0.4725,0.4142,0.1778,0.0,0.0,0.0,0.0,0.0,0.0,0.0,0.0,0.0,0.0,0.0,0.0,0.0,0.0,0.0,0.0,0.0,0.0,0.0,0.0,0.0,0.0,0.0,1.7711,1.7799,1.7846,1.786,1.786,1.7819,1.7909,1.794,1.7829,1.749,1.7353,1.7387,1.7408,1.7236,1.7344,1.7419,1.7433,1.7561,1.7663,1.7751,1.7826,1.786,1.7826,1.7985,1.7895,1.7792,1.7467,1.7385,1.7304,1.7324,1.7446,1.7589,1.7471,1.7772,1.7819,1.786,1.786,1.786,1.7853,1.7826,1.7944,1.793,1.7909,1.7813,1.767,1.7485,1.7724,1.7772,1.7971,1.7861,1.7534,1.7412,1.7069,1.6956,1.7093,1.7073,1.7073,1.7073,1.7005,1.6978,1.6978,1.6978,1.6978,1.6978,1.6978,1.6978,1.6958,1.6965,1.6971,1.6978,1.6978,1.6978,1.6978,1.6944,1.6944,1.689,1.6863,1.6815,1.672,1.6625,1.6598,1.6564,1.6476,1.6408,1.632,1.6212,1.5957,1.5293,1.304,0.9989,0.9348,0.6368,0.0,0.0,0.0,0.0,0.0,0.0,0.0,0.0,0.0,0.0,0.0,0.0,0.0,0.0,0.0,0.0,0.0,0.0,0.0,0.0,0.0,0.0,0.0,1.7643,1.767,1.7792,1.7846,1.7819,1.7711,1.7643,1.7786,1.7538,1.7353,1.706,1.7586,1.7648,1.7249,1.7392,1.7473,1.7534,1.7609,1.7697,1.7785,1.7833,1.7853,1.786,1.7812,1.7711,1.7528,1.7467,1.7405,1.727,1.7426,1.7575,1.7684,1.7772,1.7833,1.786,1.786,1.786,1.786,1.786,1.7853,1.784,1.7826,1.7806,1.7799,1.7806,1.7812,1.7826,1.7833,1.8026,1.793,1.7643,1.7317,1.7203,1.7157,1.7076,1.7202,1.709,1.7023,1.7026,1.6992,1.6992,1.6985,1.6978,1.6978,1.6978,1.6978,1.6978,1.6978,1.6978,1.6978,1.6978,1.6978,1.6978,1.6978,1.6978,1.6971,1.6937,1.6924,1.6822,1.6775,1.6748,1.67,1.6598,1.6517,1.6456,1.6395,1.6152,1.5708,1.4855,1.4202,1.3117,1.1301,0.7465,0.8294,0.9953,1.2966,0.0,0.0,0.0,0.0,0.0,0.0,0.0,0.0,0.0,0.0,0.0,0.0,0.0,0.0,0.0,0.0,0.0,0.0,0.0,1.7405,1.75,1.7548,1.7568,1.7575,1.7629,1.7595,1.746,1.7202,1.7073,1.7148,1.7497,1.7566,1.7392,1.7473,1.7555,1.7528,1.7629,1.7704,1.7505,1.7812,1.7853,1.786,1.784,1.7751,1.7602,1.7548,1.7555,1.7514,1.7568,1.765,1.7758,1.7826,1.7853,1.786,1.786,1.786,1.786,1.786,1.786,1.786,1.786,1.786,1.786,1.786,1.786,1.786,1.786,1.7826,1.7992,1.7724,1.7636,1.7555,1.7514,1.7412,1.7351,1.7412,1.6895,1.6956,1.7114,1.7073,1.7026,1.6978,1.6978,1.6978,1.6978,1.6978,1.6978,1.6978,1.6978,1.6978,1.6978,1.6978,1.6978,1.6978,1.6978,1.6965,1.6965,1.6931,1.6917,1.6897,1.6815,1.6934,1.6707,1.6659,1.6598,1.6558,1.649,1.5825,1.5825,1.5164,1.5195,1.3553,1.3973,1.5208,1.5956,1.6125,0.0,0.0,0.0,0.0,0.922,0.0,0.0,0.0,0.0,0.0,0.0,0.0,0.0,0.0,0.0,0.0,0.0,0.0,1.7249,1.7344,1.7399,1.7419,1.7433,1.7528,1.748,1.7311,1.7093,1.7032,1.7127,1.727,1.7372,1.7439,1.7561,1.767,1.7582,1.767,1.7724,1.7512,1.7812,1.7853,1.786,1.7853,1.7772,1.7663,1.7623,1.7623,1.7623,1.7595,1.7684,1.7812,1.786,1.786,1.786,1.786,1.786,1.786,1.786,1.786,1.786,1.786,1.786,1.786,1.786,1.786,1.786,1.786,1.786,1.7833,1.7785,1.7724,1.7684,1.7861,1.7765,1.7744,1.7655,1.7399,1.7365,1.7283,1.7216,1.7087,1.7019,1.6978,1.6978,1.6978,1.6978,1.6978,1.6985,1.7019,1.7046,1.7039,1.7053,1.706,1.7046,1.7046,1.6992,1.6992,1.6978,1.6978,1.6971,1.6897,1.7065,1.689,1.6883,1.7023,1.6962,1.6886,1.6598,1.6585,1.6571,1.6379,1.6168,1.593,1.5897,1.6272,1.6456,1.6252,1.6259,1.6272,1.6121,1.3449,1.0364,0.0,0.0,0.0,0.0,0.0,0.0,0.0,0.0,0.0,0.0,0.0,0.0,1.7188,1.7209,1.7344,1.7392,1.7399,1.7392,1.7311,1.6962,1.7039,1.6985,1.6998,1.6936,1.7056,1.7419,1.7575,1.7697,1.7785,1.7819,1.7833,1.784,1.7853,1.786,1.786,1.7853,1.7779,1.7964,1.7711,1.7677,1.767,1.7731,1.7812,1.7853,1.786,1.786,1.786,1.786,1.786,1.786,1.786,1.786,1.786,1.786,1.786,1.786,1.786,1.786,1.786,1.786,1.786,1.7853,1.7846,1.7846,1.7853,1.786,1.7992,1.7889,1.7751,1.7779,1.7779,1.7467,1.7358,1.7216,1.71,1.7026,1.6978,1.6985,1.6998,1.7019,1.7039,1.6902,1.6949,1.7182,1.7202,1.7188,1.6956,1.7114,1.7026,1.6998,1.6985,1.6978,1.6978,1.6951,1.6937,1.6971,1.6965,1.6937,1.7078,1.6836,1.6761,1.668,1.6666,1.6659,1.6639,1.6598,1.6585,1.681,1.6783,1.6373,1.6353,1.6366,1.6646,1.6927,1.4452,1.05,0.4646,0.0,0.0,0.0,0.0,0.0,0.0,0.0,0.0,0.0,0.0,1.7046,1.7046,1.7087,1.7107,1.7107,1.7114,1.708,1.7032,1.6992,1.6978,1.6992,1.6915,1.7222,1.7277,1.7528,1.7656,1.7738,1.7806,1.7846,1.786,1.786,1.786,1.786,1.7853,1.7992,1.7937,1.7697,1.7724,1.7697,1.7799,1.786,1.786,1.786,1.786,1.786,1.786,1.786,1.786,1.786,1.786,1.786,1.786,1.786,1.786,1.788,1.788,1.7867,1.7874,1.7874,1.7867,1.7867,1.786,1.786,1.786,1.7819,1.7812,1.7978,1.795,1.7882,1.7609,1.7521,1.7614,1.7311,1.7154,1.706,1.7019,1.7053,1.71,1.7141,1.7216,1.7304,1.7351,1.7358,1.7351,1.7297,1.7188,1.7093,1.7019,1.6998,1.6978,1.6978,1.6978,1.6978,1.6978,1.6971,1.6978,1.6965,1.6937,1.6904,1.6815,1.6775,1.6768,1.6768,1.6748,1.6761,1.6989,1.6941,1.6693,1.6686,1.648,1.6741,1.703,1.6917,1.3979,0.8259,0.0,0.0,0.0,0.0,0.0,0.0,0.0,0.0,0.0,0.0,1.6978,1.6978,1.6978,1.6978,1.6978,1.6978,1.6978,1.6978,1.6978,1.6978,1.6998,1.7134,1.7195,1.7249,1.75,1.7656,1.7663,1.7799,1.786,1.786,1.786,1.786,1.786,1.786,1.7819,1.7751,1.7731,1.7765,1.7751,1.7792,1.786,1.786,1.786,1.786,1.786,1.786,1.786,1.786,1.786,1.786,1.786,1.786,1.786,1.788,1.7907,1.7921,1.7887,1.7907,1.7928,1.788,1.786,1.786,1.786,1.786,1.786,1.7853,1.784,1.7806,1.7985,1.7745,1.7868,1.7786,1.7731,1.7385,1.727,1.6989,1.7016,1.7049,1.729,1.7338,1.7433,1.7731,1.7738,1.7954,1.7607,1.7263,1.7161,1.7053,1.7012,1.6985,1.6978,1.6978,1.6978,1.6978,1.6978,1.6978,1.6978,1.6971,1.6958,1.6924,1.6904,1.6897,1.6917,1.6924,1.6931,1.6904,1.6863,1.6829,1.6842,1.6849,1.7071,1.7099,1.6958,1.506,1.1873,0.0,0.0,0.0,0.0,0.0,0.0,0.0,0.0,0.0,0.0,1.6978,1.6978,1.6978,1.6978,1.6978,1.6978,1.6978,1.6985,1.6998,1.7005,1.7032,1.7353,1.7422,1.729,1.7521,1.7643,1.769,1.7792,1.786,1.786,1.786,1.786,1.786,1.786,1.784,1.7853,1.7846,1.7819,1.7846,1.786,1.786,1.786,1.786,1.786,1.786,1.7907,1.7907,1.7867,1.7894,1.7907,1.7874,1.786,1.7874,1.7914,1.7982,1.8043,1.7982,1.7982,1.803,1.7935,1.7867,1.7867,1.786,1.786,1.786,1.786,1.786,1.7853,1.7833,1.7826,1.7779,1.793,1.7663,1.7589,1.75,1.7136,1.713,1.7197,1.7446,1.7521,1.7834,1.7875,1.7889,1.7854,1.7758,1.7433,1.7344,1.7209,1.7073,1.7039,1.6998,1.6992,1.6978,1.6978,1.6978,1.6978,1.6978,1.6978,1.6978,1.6978,1.6978,1.6978,1.6978,1.6978,1.6971,1.6951,1.6965,1.6958,1.6958,1.6951,1.6924,1.6951,1.6985,1.5493,1.4002,1.532,0.0,1.3624,1.1055,0.0,0.0,0.0,0.0,0.0,0.0,1.6978,1.6978,1.6978,1.6978,1.6978,1.6978,1.6978,1.6992,1.7093,1.7134,1.7367,1.7408,1.7477,1.7378,1.7561,1.7663,1.7684,1.7792,1.7846,1.786,1.786,1.786,1.786,1.786,1.786,1.786,1.786,1.786,1.786,1.786,1.786,1.786,1.786,1.786,1.7874,1.7935,1.7975,1.7914,1.7982,1.7975,1.7921,1.7901,1.7901,1.8002,1.8321,1.8165,1.8131,1.8118,1.8104,1.803,1.7914,1.7874,1.786,1.786,1.786,1.786,1.786,1.786,1.786,1.786,1.7833,1.7826,1.7799,1.7792,1.7704,1.7528,1.725,1.7548,1.7623,1.7704,1.7978,1.8005,1.8012,1.7957,1.7895,1.7595,1.7514,1.7331,1.6936,1.7087,1.7032,1.7005,1.6992,1.6985,1.6978,1.6978,1.6978,1.6978,1.6978,1.6978,1.6978,1.6978,1.6978,1.6978,1.6978,1.6978,1.6978,1.6978,1.6971,1.6971,1.6978,1.6985,1.6985,1.6985,1.6564,1.7026,1.7039,1.6611,1.3813,1.0822,0.9764,0.7855,0.3184,0.0,0.0,1.6978,1.6978,1.6978,1.6978,1.6978,1.6978,1.6978,1.6998,1.706,1.7175,1.7525,1.7586,1.7635,1.748,1.7643,1.769,1.769,1.7799,1.7846,1.786,1.786,1.786,1.786,1.786,1.786,1.786,1.786,1.786,1.786,1.786,1.786,1.786,1.786,1.7867,1.7887,1.7989,1.8057,1.8211,1.8111,1.8124,1.8036,1.8023,1.805,1.8152,1.826,1.8308,1.8287,1.826,1.8213,1.8091,1.7941,1.7874,1.786,1.786,1.786,1.786,1.786,1.786,1.786,1.786,1.786,1.786,1.786,1.7826,1.7826,1.7677,1.767,1.7738,1.7745,1.7806,1.7812,1.7833,1.784,1.7806,1.7923,1.782,1.7473,1.7311,1.7202,1.6936,1.71,1.7066,1.706,1.7073,1.7053,1.6978,1.6978,1.6992,1.6992,1.6998,1.6992,1.6978,1.6978,1.6978,1.6978,1.6978,1.6978,1.6978,1.6978,1.6978,1.6978,1.6978,1.6978,1.6978,1.6985,1.6992,1.7005,1.7012,1.7012,1.4645,1.4452,1.4475,0.8921,0.3401,0.0,1.6978,1.6978,1.6978,1.6978,1.6978,1.6978,1.6978,1.6985,1.7005,1.7367,1.76,1.7772,1.7779,1.7616,1.7684,1.7704,1.7745,1.7819,1.7853,1.786,1.786,1.786,1.786,1.786,1.786,1.786,1.786,1.786,1.786,1.786,1.786,1.786,1.786,1.786,1.7907,1.8016,1.8111,1.8587,1.8445,1.8321,1.8048,1.7981,1.824,1.8342,1.8443,1.8464,1.8443,1.8403,1.8355,1.8213,1.8023,1.7914,1.7867,1.786,1.786,1.786,1.786,1.786,1.786,1.786,1.786,1.786,1.786,1.786,1.786,1.7853,1.7846,1.7846,1.7853,1.7853,1.786,1.786,1.786,1.7826,1.7711,1.7847,1.7696,1.7351,1.7304,1.7043,1.7209,1.7168,1.7161,1.7175,1.6922,1.7053,1.7026,1.7019,1.7026,1.7039,1.7046,1.7005,1.6978,1.6978,1.6978,1.6978,1.6978,1.6978,1.6978,1.6978,1.6978,1.6978,1.6978,1.6978,1.6985,1.6985,1.6985,1.6992,1.6992,1.7005,1.6578,1.5965,1.4533,0.9181,0.3852,1.6978,1.6978,1.6978,1.6978,1.6978,1.6978,1.6978,1.6998,1.7093,1.7188,1.729,1.7751,1.7895,1.7765,1.7684,1.7704,1.7806,1.7853,1.7853,1.786,1.786,1.786,1.786,1.786,1.786,1.786,1.786,1.786,1.786,1.786,1.786,1.786,1.786,1.7874,1.7907,1.805,1.8219,1.8465,1.8816,1.8491,1.8222,1.8403,1.8389,1.845,1.8511,1.8593,1.8626,1.8572,1.8518,1.8623,1.8417,1.8009,1.7921,1.7874,1.786,1.786,1.786,1.786,1.786,1.786,1.786,1.786,1.786,1.786,1.786,1.786,1.7853,1.7853,1.786,1.786,1.786,1.786,1.7853,1.7772,1.767,1.7663,1.7595,1.7555,1.7528,1.7473,1.7419,1.7586,1.7767,1.7344,1.7123,1.7069,1.727,1.7249,1.7154,1.7134,1.7107,1.7073,1.7026,1.6978,1.6985,1.6978,1.6978,1.6978,1.6978,1.6978,1.6978,1.6978,1.6978,1.6978,1.6978,1.6978,1.6978,1.6998,1.7012,1.7026,1.6998,1.6598,1.6273,1.485,0.948]}]]